[[{"header":{"parameterUnit":"m.s-1","parameterCategory":1,"la1":30.6,"la2":29.2853,"lo1":-89.7004,"lo2":-87.6739,"dy":0.0162,"dx":0.0183,"nx":112,"ny":82,"refTime":"2024-02-17T06:00:00:Z","depth":0,"parameterNumber":2,"parameterNumberName":"U-component_of_WINDS"},"data":[0.0,0.0,0.0,0.0,0.0,0.0,0.0,0.0,0.0,0.0,0.0,0.0,0.0,0.0,0.0,0.0,0.0,0.0,0.0,0.0,0.0,0.0,0.0,0.0,0.0,0.0,0.0,0.0,0.0,0.0,0.0,0.0,0.0,0.0,0.0,0.0,0.0,0.0,0.0,0.0,0.0,0.0,0.0,0.0,0.0,0.0,0.0,0.0,0.0,0.0,0.0,0.0,0.0,0.0,0.0,0.0,0.0,0.0,0.0,0.0,0.0,0.0,0.0,0.0,0.0,0.0,0.0,0.0,0.0,0.0,0.0,0.0,0.0,0.0,0.0,0.0,0.0,0.0,0.0,0.0,0.0,0.0,0.0,0.0,0.0,0.0,0.0,0.0,0.0,0.0,0.0,8.4804,9.2773,9.7383,9.6562,9.3711,8.7773,7.7812,0.0,0.0,0.0,0.0,0.0,0.0,0.0,0.0,0.0,0.0,0.0,0.0,0.0,0.0,0.0,0.0,0.0,0.0,0.0,0.0,0.0,0.0,0.0,0.0,0.0,0.0,0.0,0.0,0.0,0.0,0.0,0.0,0.0,0.0,0.0,0.0,0.0,0.0,0.0,0.0,0.0,0.0,0.0,0.0,0.0,0.0,0.0,0.0,0.0,0.0,0.0,0.0,0.0,0.0,0.0,0.0,0.0,0.0,0.0,0.0,0.0,0.0,0.0,0.0,0.0,0.0,0.0,0.0,0.0,0.0,0.0,0.0,0.0,0.0,0.0,0.0,0.0,0.0,0.0,0.0,0.0,0.0,0.0,0.0,0.0,0.0,0.0,0.0,0.0,0.0,0.0,0.0,0.0,0.0,0.0,0.0,0.0,0.0,0.0,0.0,0.0,0.0,0.0,0.0,8.0547,9.2187,9.6015,9.7383,9.6562,9.207,8.582,7.7695,0.0,0.0,0.0,0.0,0.0,0.0,0.0,0.0,0.0,0.0,0.0,0.0,0.0,0.0,0.0,0.0,0.0,0.0,0.0,0.0,0.0,0.0,0.0,0.0,0.0,0.0,0.0,0.0,0.0,0.0,0.0,0.0,0.0,0.0,0.0,0.0,0.0,0.0,0.0,0.0,0.0,0.0,0.0,0.0,0.0,0.0,0.0,0.0,0.0,0.0,0.0,0.0,0.0,0.0,0.0,0.0,0.0,0.0,0.0,0.0,0.0,0.0,0.0,0.0,0.0,0.0,0.0,0.0,0.0,0.0,0.0,0.0,0.0,0.0,0.0,0.0,0.0,0.0,0.0,0.0,0.0,0.0,0.0,0.0,0.0,0.0,0.0,0.0,0.0,0.0,0.0,0.0,0.0,0.0,0.0,0.0,0.0,0.0,0.0,0.0,0.0,0.0,0.0,7.8711,8.4492,9.4179,9.6719,9.7187,9.5898,9.1875,8.5898,7.7734,7.4687,0.0,0.0,0.0,0.0,0.0,0.0,0.0,0.0,0.0,0.0,0.0,0.0,0.0,0.0,0.0,0.0,0.0,0.0,0.0,0.0,0.0,0.0,0.0,0.0,0.0,0.0,0.0,0.0,0.0,0.0,0.0,0.0,0.0,0.0,0.0,0.0,0.0,0.0,0.0,0.0,0.0,0.0,0.0,0.0,0.0,0.0,0.0,0.0,0.0,0.0,0.0,0.0,0.0,0.0,0.0,0.0,0.0,0.0,0.0,0.0,0.0,0.0,0.0,0.0,0.0,0.0,0.0,0.0,0.0,0.0,0.0,0.0,0.0,0.0,0.0,0.0,0.0,0.0,0.0,0.0,0.0,0.0,0.0,0.0,0.0,0.0,0.0,0.0,0.0,0.0,0.0,0.0,0.0,0.0,0.0,0.0,0.0,0.0,0.0,0.0,0.0,0.0,8.457,8.8828,9.5117,9.6953,9.7031,9.5351,9.125,8.5469,7.7695,7.3164,0.0,0.0,0.0,0.0,0.0,0.0,0.0,0.0,0.0,0.0,0.0,0.0,0.0,0.0,0.0,0.0,0.0,0.0,0.0,0.0,0.0,0.0,0.0,0.0,0.0,0.0,0.0,0.0,0.0,0.0,0.0,0.0,0.0,0.0,0.0,0.0,0.0,0.0,0.0,0.0,0.0,0.0,0.0,0.0,0.0,0.0,0.0,0.0,0.0,0.0,0.0,0.0,0.0,0.0,0.0,0.0,0.0,0.0,0.0,0.0,0.0,0.0,0.0,0.0,0.0,0.0,0.0,0.0,0.0,0.0,0.0,0.0,0.0,0.0,0.0,0.0,0.0,0.0,0.0,0.0,0.0,0.0,0.0,0.0,0.0,0.0,0.0,0.0,0.0,0.0,0.0,0.0,0.0,0.0,0.0,0.0,0.0,0.0,0.0,0.0,0.0,0.0,8.6797,9.2578,9.7031,9.7617,9.7031,9.5351,8.9101,8.2969,7.7539,7.0937,0.0,0.0,0.0,0.0,0.0,0.0,0.0,0.0,0.0,0.0,0.0,0.0,0.0,0.0,0.0,0.0,0.0,0.0,0.0,0.0,0.0,0.0,0.0,0.0,0.0,0.0,0.0,0.0,0.0,0.0,0.0,0.0,0.0,0.0,0.0,0.0,0.0,0.0,0.0,0.0,0.0,0.0,0.0,0.0,0.0,0.0,0.0,0.0,0.0,0.0,0.0,0.0,0.0,0.0,0.0,0.0,0.0,0.0,0.0,0.0,0.0,0.0,0.0,0.0,0.0,0.0,0.0,0.0,0.0,0.0,0.0,0.0,0.0,0.0,0.0,0.0,0.0,0.0,0.0,0.0,0.0,0.0,0.0,0.0,0.0,0.0,0.0,0.0,0.0,0.0,0.0,0.0,0.0,0.0,0.0,0.0,0.0,0.0,0.0,0.0,0.0,0.0,8.6562,9.2344,0.0,9.8203,9.7617,9.539,9.082,8.4961,7.7656,0.0,0.0,0.0,0.0,0.0,0.0,0.0,0.0,0.0,0.0,0.0,0.0,0.0,0.0,0.0,0.0,0.0,0.0,0.0,0.0,0.0,0.0,0.0,0.0,0.0,0.0,0.0,0.0,0.0,0.0,0.0,0.0,0.0,0.0,0.0,0.0,0.0,0.0,0.0,0.0,0.0,0.0,0.0,0.0,0.0,0.0,0.0,0.0,0.0,0.0,0.0,0.0,0.0,0.0,0.0,0.0,0.0,0.0,0.0,0.0,0.0,0.0,0.0,0.0,0.0,0.0,0.0,0.0,0.0,0.0,0.0,0.0,0.0,0.0,0.0,0.0,0.0,0.0,0.0,0.0,0.0,0.0,0.0,0.0,0.0,0.0,0.0,0.0,0.0,0.0,0.0,0.0,0.0,0.0,0.0,0.0,0.0,0.0,0.0,0.0,0.0,0.0,8.0703,8.7148,9.3008,0.0,9.8633,9.8086,9.582,9.0898,8.4883,7.7656,0.0,0.0,0.0,0.0,0.0,0.0,0.0,0.0,0.0,0.0,0.0,0.0,0.0,0.0,0.0,0.0,0.0,0.0,0.0,0.0,0.0,0.0,0.0,0.0,0.0,0.0,0.0,0.0,0.0,0.0,0.0,0.0,0.0,0.0,0.0,0.0,0.0,0.0,0.0,0.0,0.0,0.0,0.0,0.0,0.0,0.0,0.0,0.0,0.0,0.0,0.0,0.0,0.0,0.0,0.0,0.0,0.0,0.0,0.0,0.0,0.0,0.0,0.0,0.0,0.0,0.0,0.0,0.0,0.0,0.0,0.0,0.0,0.0,0.0,0.0,0.0,0.0,0.0,0.0,0.0,0.0,0.0,0.0,0.0,0.0,0.0,0.0,0.0,0.0,0.0,0.0,0.0,0.0,0.0,0.0,0.0,0.0,0.0,0.0,0.0,0.0,0.0,8.1758,8.9101,9.5234,9.8633,9.8984,9.832,9.664,8.8594,8.1797,0.0,0.0,0.0,0.0,0.0,0.0,0.0,0.0,0.0,0.0,0.0,0.0,0.0,0.0,0.0,0.0,0.0,0.0,0.0,0.0,0.0,0.0,0.0,0.0,0.0,0.0,0.0,0.0,0.0,0.0,0.0,0.0,0.0,0.0,0.0,0.0,0.0,0.0,0.0,0.0,0.0,0.0,0.0,0.0,0.0,0.0,0.0,0.0,0.0,0.0,0.0,0.0,0.0,0.0,0.0,0.0,0.0,0.0,0.0,0.0,0.0,0.0,0.0,0.0,0.0,0.0,0.0,0.0,0.0,0.0,0.0,0.0,0.0,0.0,0.0,0.0,0.0,0.0,0.0,0.0,0.0,0.0,0.0,0.0,0.0,0.0,0.0,0.0,0.0,0.0,0.0,0.0,0.0,0.0,0.0,0.0,0.0,0.0,0.0,0.0,0.0,0.0,0.0,8.1836,8.9648,9.5664,9.7851,9.9179,9.875,9.582,9.0429,8.4336,7.7617,0.0,0.0,0.0,0.0,0.0,0.0,0.0,0.0,0.0,0.0,0.0,0.0,0.0,0.0,0.0,0.0,0.0,0.0,0.0,0.0,0.0,0.0,0.0,0.0,0.0,0.0,0.0,0.0,0.0,0.0,0.0,0.0,0.0,0.0,0.0,0.0,0.0,0.0,0.0,0.0,0.0,0.0,0.0,0.0,0.0,0.0,0.0,0.0,0.0,0.0,0.0,0.0,0.0,0.0,0.0,0.0,0.0,0.0,0.0,0.0,0.0,0.0,0.0,0.0,0.0,0.0,0.0,0.0,0.0,0.0,0.0,0.0,0.0,0.0,0.0,0.0,0.0,0.0,0.0,0.0,0.0,0.0,0.0,0.0,0.0,0.0,0.0,0.0,0.0,0.0,0.0,0.0,0.0,0.0,0.0,0.0,0.0,0.0,0.0,0.0,0.0,0.0,8.2851,9.0273,9.6094,9.8476,9.9375,9.8554,9.5469,9.1211,8.5117,7.668,0.0,0.0,0.0,0.0,0.0,0.0,0.0,0.0,0.0,0.0,0.0,0.0,0.0,0.0,0.0,0.0,0.0,0.0,0.0,0.0,0.0,0.0,0.0,0.0,0.0,0.0,0.0,0.0,0.0,0.0,0.0,0.0,0.0,0.0,0.0,0.0,0.0,0.0,0.0,0.0,0.0,0.0,0.0,0.0,0.0,0.0,0.0,0.0,0.0,0.0,0.0,0.0,0.0,0.0,0.0,0.0,0.0,0.0,0.0,0.0,0.0,0.0,0.0,0.0,0.0,0.0,0.0,0.0,0.0,0.0,0.0,0.0,0.0,0.0,0.0,0.0,0.0,0.0,0.0,0.0,0.0,0.0,0.0,0.0,0.0,0.0,0.0,0.0,0.0,0.0,0.0,0.0,0.0,0.0,0.0,0.0,0.0,0.0,0.0,0.0,0.0,0.0,8.4258,9.0898,9.6445,9.9726,9.9414,9.7969,9.5429,9.1211,8.4726,7.543,0.0,0.0,0.0,0.0,0.0,0.0,0.0,0.0,0.0,0.0,0.0,0.0,0.0,0.0,0.0,0.0,0.0,0.0,0.0,0.0,0.0,0.0,0.0,0.0,0.0,0.0,0.0,0.0,0.0,0.0,0.0,0.0,0.0,0.0,0.0,0.0,0.0,0.0,0.0,0.0,0.0,0.0,0.0,0.0,0.0,0.0,0.0,0.0,0.0,0.0,0.0,0.0,0.0,0.0,0.0,0.0,0.0,0.0,0.0,0.0,7.6865,0.0,0.0,0.0,0.0,0.0,0.0,0.0,0.0,0.0,0.0,0.0,0.0,0.0,0.0,0.0,0.0,0.0,0.0,0.0,0.0,0.0,0.0,0.0,0.0,0.0,0.0,0.0,0.0,0.0,0.0,0.0,0.0,0.0,0.0,0.0,0.0,0.0,0.0,0.0,0.0,0.0,8.3398,9.0508,9.5976,9.8047,9.8711,9.7969,9.5429,9.1211,8.5234,7.7148,7.2265,0.0,0.0,0.0,0.0,0.0,0.0,0.0,0.0,0.0,0.0,0.0,0.0,0.0,0.0,0.0,0.0,0.0,0.0,0.0,0.0,0.0,0.0,0.0,0.0,0.0,0.0,0.0,0.0,0.0,0.0,0.0,0.0,0.0,0.0,0.0,0.0,0.0,0.0,0.0,0.0,0.0,0.0,0.0,0.0,0.0,0.0,0.0,0.0,0.0,0.0,0.0,0.0,0.0,0.0,0.0,0.0,0.0,0.0,0.0,0.0,7.8636,0.0,0.0,0.0,0.0,0.0,0.0,0.0,0.0,0.0,0.0,0.0,0.0,0.0,0.0,0.0,0.0,0.0,0.0,0.0,0.0,0.0,0.0,0.0,0.0,0.0,0.0,0.0,0.0,0.0,0.0,0.0,0.0,0.0,0.0,0.0,0.0,0.0,0.0,0.0,0.0,8.4922,9.1172,9.6015,9.8086,9.8359,9.7187,9.4219,9.1094,8.5664,7.7109,7.2851,0.0,0.0,0.0,0.0,0.0,0.0,0.0,0.0,0.0,0.0,0.0,0.0,0.0,0.0,0.0,0.0,0.0,0.0,0.0,0.0,0.0,0.0,0.0,0.0,0.0,0.0,0.0,0.0,0.0,0.0,0.0,0.0,0.0,0.0,0.0,0.0,0.0,0.0,0.0,0.0,0.0,0.0,0.0,0.0,0.0,0.0,0.0,0.0,0.0,0.0,0.0,0.0,0.0,8.6282,8.6705,8.7246,8.7979,8.7979,8.7284,8.4516,8.1902,7.9675,0.0,0.0,0.0,0.0,0.0,0.0,0.0,0.0,0.0,0.0,0.0,0.0,0.0,0.0,0.0,0.0,0.0,0.0,0.0,0.0,0.0,0.0,0.0,0.0,0.0,7.6845,7.5401,0.0,0.0,0.0,0.0,0.0,0.0,0.0,0.0,0.0,0.0,0.0,0.0,8.6601,9.1992,9.6211,9.8515,9.8125,9.6367,9.3086,9.1094,8.6172,7.7148,7.3672,6.9101,0.0,0.0,0.0,0.0,0.0,0.0,0.0,0.0,0.0,0.0,0.0,0.0,0.0,0.0,0.0,0.0,0.0,0.0,0.0,0.0,0.0,0.0,0.0,0.0,0.0,0.0,0.0,0.0,0.0,0.0,0.0,0.0,7.3047,7.4086,0.0,0.0,0.0,0.0,0.0,0.0,0.0,0.0,0.0,0.0,0.0,0.0,0.0,8.4976,8.6557,8.8861,9.0131,9.0398,9.1825,9.2212,9.1672,9.1789,9.2135,9.2676,9.2215,0.0,8.3899,8.1939,0.0,0.0,0.0,0.0,0.0,0.0,0.0,0.0,0.0,0.0,0.0,0.0,0.0,0.0,0.0,0.0,0.0,0.0,0.0,0.0,0.0,0.0,7.777,7.6526,7.6674,7.6788,0.0,7.4384,7.2537,6.925,6.7775,0.0,0.0,0.0,0.0,0.0,0.0,0.0,8.5701,9.1875,9.6484,9.7734,9.7773,9.6601,9.3945,9.1445,8.6914,7.9648,7.4687,6.9922,6.5273,6.1875,0.0,0.0,0.0,0.0,0.0,0.0,0.0,0.0,0.0,0.0,0.0,0.0,0.0,0.0,0.0,0.0,0.0,0.0,0.0,0.0,0.0,0.0,0.0,0.0,0.0,0.0,0.0,0.0,0.0,7.2514,7.5205,7.6053,7.6903,7.6747,0.0,0.0,0.0,0.0,0.0,0.0,0.0,0.0,0.0,8.7942,8.9673,9.1635,9.379,9.5408,9.6673,9.7593,9.7863,9.8055,9.8173,9.767,9.7403,9.7295,9.7295,9.4754,9.0327,8.7284,8.513,8.3514,0.0,0.0,0.0,0.0,8.0714,8.0906,8.1252,8.0558,0.0,7.9285,0.0,0.0,0.0,0.0,0.0,0.0,0.0,0.0,0.0,0.0,8.0948,8.165,8.1696,8.1208,7.9825,7.7896,7.5098,0.0,7.052,7.0313,6.8033,0.0,0.0,0.0,0.0,8.2467,8.6597,9.2376,9.6484,9.7422,9.7226,9.5976,9.3398,9.0781,8.6758,8.082,7.6055,7.1523,6.7226,6.418,6.168,0.0,0.0,0.0,0.0,0.0,0.0,0.0,0.0,0.0,0.0,0.0,0.0,0.0,0.0,0.0,0.0,0.0,0.0,0.0,0.0,0.0,0.0,0.0,0.0,0.0,0.0,0.0,0.0,7.5553,7.8284,7.8288,8.0135,8.0325,0.0,0.0,0.0,0.0,0.0,0.0,8.5792,8.9098,9.2138,9.4672,9.66,9.8718,10.1099,10.1909,10.2986,10.4212,10.3594,10.3402,10.3594,10.3092,10.2404,10.1411,10.1411,9.968,9.6603,9.2323,8.8818,8.5974,8.4016,8.3054,8.2747,8.3133,8.3672,8.4251,8.4251,8.3672,8.2745,8.1512,0.0,7.8055,7.6975,0.0,0.0,0.0,0.0,7.8869,8.1543,8.2726,8.3858,8.6103,8.6269,8.5322,8.3401,8.1479,7.8519,0.0,7.3051,7.3103,7.0031,0.0,0.0,0.0,0.0,8.3444,8.7786,9.2996,9.6626,9.7304,9.6875,9.5351,9.25,9.0078,8.6601,8.164,7.7539,7.3515,6.9648,6.6562,6.3437,6.0234,0.0,0.0,0.0,0.0,0.0,0.0,0.0,0.0,0.0,0.0,0.0,0.0,0.0,0.0,0.0,0.0,0.0,0.0,0.0,0.0,0.0,0.0,0.0,0.0,0.0,0.0,0.0,0.0,0.0,8.1208,8.5897,0.0,0.0,0.0,0.0,8.4397,8.6865,8.9406,9.1905,9.5211,9.8247,10.0784,10.3292,10.5407,10.721,10.81,10.8482,10.86,10.848,10.7711,10.6205,10.7015,10.6485,10.4794,10.4794,10.3792,10.1709,9.5098,9.1285,8.9393,8.6897,8.6399,8.698,8.6207,8.5938,8.5976,8.5976,8.5435,8.4743,8.4664,8.2937,8.1054,8.171,8.0212,0.0,0.0,7.9596,8.0939,8.1133,8.3516,8.6166,8.713,8.7942,8.7829,8.5322,8.4664,8.2589,0.0,7.3322,7.225,7.2061,0.0,7.4088,7.6747,8.2087,8.6577,8.8682,9.3639,9.7073,9.7376,9.6875,9.5117,9.164,8.9726,8.6836,8.25,7.8984,7.5859,7.3164,6.8984,6.5508,6.2851,6.039,0.0,0.0,0.0,0.0,0.0,0.0,0.0,0.0,0.0,0.0,0.0,0.0,0.0,0.0,0.0,0.0,0.0,0.0,0.0,0.0,0.0,0.0,0.0,0.0,0.0,0.0,0.0,0.0,8.9947,9.3366,0.0,9.0406,9.0062,9.0674,9.2129,9.5093,9.7904,10.0486,10.3289,10.579,10.7782,10.9208,11.0598,11.1711,11.198,11.2214,11.2214,11.1596,11.0788,10.9708,10.9406,10.8408,10.6713,10.6213,10.471,10.2404,9.9401,9.5862,9.2133,9.0169,8.8902,8.8252,8.8474,8.8895,8.9477,9.0015,8.9669,8.859,8.6399,8.3591,8.1131,8.1439,8.0902,8.0171,8.0171,8.1783,8.3783,8.4863,8.6442,8.8135,8.9517,8.9631,8.8938,8.694,8.5668,8.3858,8.0285,7.7786,7.5905,7.4824,7.4436,7.5511,7.9208,8.2937,8.6551,8.9972,9.4136,9.6642,9.6356,9.5756,9.4062,9.0742,8.8906,8.6094,8.1758,7.8789,7.5781,7.2578,6.8867,6.5664,6.3047,5.9961,5.8047,0.0,0.0,0.0,0.0,0.0,0.0,0.0,0.0,0.0,0.0,0.0,0.0,0.0,0.0,0.0,0.0,0.0,0.0,0.0,0.0,0.0,0.0,0.0,0.0,0.0,0.0,9.4597,9.5715,9.9601,10.0909,9.7447,9.737,9.8134,9.9591,10.2284,10.4905,10.7098,10.9406,11.1291,11.2711,11.3599,11.4291,11.4794,11.4794,11.4717,11.4407,11.3907,11.2981,11.1901,11.1291,11.0098,10.8482,10.7903,10.6208,10.3787,10.29,10.0094,9.6057,9.4093,9.2479,9.1328,9.1859,9.2246,9.2556,9.3138,9.2789,9.1633,8.9092,8.617,8.3672,8.3672,8.3247,8.2785,8.2785,8.4439,8.644,8.7557,8.8673,8.9827,9.0938,9.0744,8.9782,8.7827,8.6517,8.5053,8.2749,8.0712,7.8942,7.7515,7.7282,7.8436,8.186,8.4553,8.7594,9.1554,9.421,9.5748,9.5686,9.4617,9.2734,8.9804,8.7773,8.4765,8.0429,7.7734,7.4883,7.168,6.8555,6.5664,6.3047,5.9336,5.7305,5.7031,0.0,0.0,0.0,0.0,0.0,0.0,0.0,0.0,0.0,0.0,0.0,0.0,0.0,0.0,0.0,0.0,0.0,0.0,0.0,0.0,0.0,0.0,0.0,8.6397,9.4446,9.9755,9.8211,10.4597,10.7213,10.2205,10.3905,10.5715,10.6592,10.8211,10.9903,11.159,11.3291,11.4484,11.5412,11.6105,11.649,11.649,11.6492,11.6108,11.5294,11.5294,11.4407,11.2788,11.2788,11.1906,11.0296,11.0298,10.879,10.64,10.5484,10.3597,10.1092,9.8555,9.7055,9.6322,9.6322,9.579,9.5027,9.5027,9.4487,9.3599,9.2789,9.083,8.8754,8.8754,8.7596,8.6243,8.6245,8.7481,8.8831,8.8831,9.002,9.1244,9.1244,9.1208,9.0515,8.7979,8.7404,8.6403,8.3018,8.1747,8.0898,8.0012,8.1206,8.2901,8.4664,8.7096,0.0,9.3253,9.3932,9.4538,9.5577,9.3609,9.1289,8.8906,8.6328,8.3008,7.8672,7.5937,7.332,7.0703,6.8164,6.5586,6.293,5.8789,5.6211,5.5351,0.0,0.0,0.0,0.0,0.0,0.0,0.0,0.0,0.0,0.0,0.0,0.0,0.0,0.0,0.0,0.0,0.0,0.0,0.0,0.0,0.0,0.0,9.2751,9.34,10.0481,10.6597,10.9213,11.1909,11.2989,11.1601,11.0906,11.0983,11.1788,11.3486,11.491,11.6017,11.7097,11.7792,11.7984,11.7715,11.7404,11.7404,11.6797,11.6415,11.6182,11.6182,11.5602,11.4602,11.4602,11.3599,11.198,11.1403,10.9711,10.7287,10.6403,10.4515,10.2097,10.0099,9.8483,9.717,9.717,9.6632,9.5942,9.5942,9.5367,9.4487,9.3638,9.2056,9.0402,8.9744,8.9669,8.9669,8.9011,9.0515,9.2176,9.1599,9.1789,9.2133,9.2133,9.1669,9.0669,8.8752,8.7867,8.675,8.4591,8.3516,8.2443,8.0977,8.1593,8.3093,8.5435,8.7936,0.0,9.3328,9.4328,9.4991,9.5634,9.4041,9.1765,8.8944,8.5781,8.1875,7.6914,7.3555,7.0625,6.8047,6.6055,6.3515,6.0312,5.8476,5.7109,0.0,0.0,0.0,0.0,0.0,0.0,0.0,0.0,0.0,0.0,0.0,0.0,0.0,0.0,0.0,0.0,0.0,0.0,0.0,0.0,0.0,0.0,9.4792,10.0296,10.3289,10.7905,11.2214,11.5715,11.7182,11.7682,11.699,11.5984,11.5599,11.6099,11.6987,11.7795,11.8289,11.8484,11.8712,11.91,11.8289,11.802,11.8289,11.7487,11.6984,11.6987,11.6682,11.63,11.5797,11.5489,11.4717,11.3712,11.2516,11.0788,10.8716,10.7403,10.54,0.0,0.0,0.0,0.0,0.0,9.6709,9.6285,9.6285,9.598,9.5408,9.4523,9.3328,9.2095,9.1244,9.1323,9.1631,9.1129,9.2287,9.352,9.2712,9.2482,9.2402,9.2056,9.1554,9.0746,8.9062,8.8291,8.7327,8.5282,8.4211,0.0,8.2328,8.2826,8.4247,8.6827,8.844,9.0441,9.3328,9.3523,9.3602,9.407,9.2244,9.011,8.785,8.4492,0.0,0.0,0.0,6.8398,6.4336,6.3203,0.0,0.0,0.0,5.7851,5.6601,5.7344,0.0,0.0,5.5859,5.6133,0.0,0.0,0.0,0.0,0.0,0.0,0.0,0.0,0.0,0.0,0.0,0.0,0.0,0.0,0.0,0.0,10.1681,10.8216,11.4214,11.5715,11.7102,11.9292,12.0798,12.0991,11.9485,11.9215,11.91,11.91,11.9215,11.9215,11.9215,0.0,0.0,0.0,0.0,11.8484,11.9215,11.8405,11.7905,11.7786,11.6987,11.6605,11.6492,11.5797,11.5412,11.5217,11.3599,11.1904,11.0216,10.848,10.629,10.3794,10.2712,10.0907,9.8598,9.7016,9.6362,9.6285,9.6285,0.0,0.0,9.5177,9.433,9.3523,9.2635,9.2482,9.2635,9.2635,9.3289,9.3828,9.3097,9.2789,9.2443,9.1672,9.1323,9.0746,8.9062,8.8716,8.7983,8.5512,8.4401,8.3907,8.4022,8.4516,8.5745,8.8175,8.8793,9.0099,9.3174,9.2287,9.1543,9.2095,0.0,0.0,8.6522,8.3086,7.9219,7.5,7.125,6.6719,6.1211,6.0703,6.0195,5.9492,5.9297,5.8437,5.6914,5.8437,5.8398,5.6875,5.6875,5.6875,0.0,0.0,0.0,0.0,0.0,0.0,0.0,0.0,0.0,0.0,0.0,0.0,0.0,0.0,0.0,10.1294,10.7911,11.4407,12.0287,12.1905,12.229,12.2213,12.1793,12.1494,12.1103,11.9911,11.91,11.91,11.9715,12.0103,12.0103,12.0603,12.0911,12.1106,12.0295,11.9908,12.0103,11.9292,11.8482,11.7786,0.0,0.0,11.6492,11.6297,11.5913,11.5217,11.4214,11.2788,11.1093,10.9406,10.6792,10.3717,10.1488,9.9832,9.8675,9.7634,9.6863,9.6285,9.6285,9.6285,9.6055,9.4444,9.383,9.3407,9.1902,9.2402,0.0,9.3484,9.4597,9.5747,9.5593,9.4518,9.3446,9.3251,9.2172,9.0746,8.9062,8.8716,8.8139,8.6245,8.5745,8.5824,8.6557,8.5668,8.5512,8.7365,8.9402,9.121,9.2559,9.2443,9.2599,9.3572,9.0892,8.8754,8.8045,8.3672,7.9453,7.5898,7.0469,6.6562,6.4687,6.2578,6.1367,6.1211,5.9883,5.9023,5.8711,5.9023,5.9023,5.8711,5.8711,5.8711,0.0,0.0,0.0,0.0,0.0,0.0,0.0,0.0,0.0,0.0,0.0,8.6673,9.0515,0.0,10.202,10.7985,11.3602,11.8792,12.3485,12.4909,12.5296,12.4793,12.3601,12.2719,12.2293,12.1103,12.0414,12.0414,12.068,12.0991,12.0991,12.0911,12.1103,12.1606,12.0798,12.0488,12.0911,12.01,11.9292,11.8405,11.802,11.7292,11.6492,11.6492,11.63,11.5797,11.4602,11.3288,11.1901,10.8903,10.6213,10.3715,10.1984,10.0601,9.9293,9.798,9.7247,9.6824,9.6439,9.6285,9.6093,9.4792,9.4333,9.4102,9.2828,9.3328,9.4333,9.4333,9.529,9.6209,9.5749,9.4674,9.3599,9.3213,9.2133,9.0746,8.9062,8.8716,8.8175,8.6438,8.5782,8.5899,8.7171,8.6709,8.6707,8.84,9.009,9.1515,9.2405,9.2482,9.2411,9.2237,8.9706,8.7646,8.6599,8.1953,7.8008,7.539,7.082,6.7617,6.6289,6.414,6.3008,6.3008,6.1328,6.0469,6.0469,6.0469,6.0234,5.9805,6.0234,6.0,0.0,0.0,0.0,0.0,0.0,0.0,0.0,0.0,8.3091,8.5944,8.9139,9.2982,9.825,10.2712,10.7716,11.3986,11.8407,12.2216,12.5409,12.6604,12.7184,12.7184,12.5486,12.3982,12.321,12.2488,12.1988,12.1914,12.1991,12.1988,12.1914,12.1219,12.0985,12.1606,12.0911,12.0914,12.1606,12.0914,12.01,11.9292,11.8484,11.76,11.6718,11.6605,11.6492,11.6413,11.4714,11.3404,11.2209,10.8285,10.5713,10.3984,10.2981,10.1714,10.0099,9.8598,9.7788,9.7403,9.6747,9.6439,9.617,9.5292,9.4989,9.4835,9.3946,9.4294,9.4989,9.4989,9.5638,9.6132,9.5446,9.4484,9.3523,9.2905,9.1939,9.0746,8.9062,8.8716,8.8175,8.6438,8.5589,8.5628,8.7132,8.7557,8.8171,8.9665,9.0782,9.1631,9.2172,9.2405,9.1984,9.061,8.838,8.6249,8.4487,8.039,7.7187,7.5469,7.2305,6.9726,6.7969,6.6055,6.4961,6.4805,6.3242,6.2383,6.2226,6.2226,6.1758,6.0937,6.164,6.1133,8.0473,7.9171,7.9252,8.1133,8.1749,8.3828,0.0,0.0,9.2212,9.6254,9.9214,10.1902,10.49,10.8903,11.3211,11.7792,12.1405,12.4598,12.7208,12.8406,12.8906,12.8906,12.6794,12.4909,12.3982,12.3906,12.3482,12.2787,12.3405,12.3482,12.279,12.2713,12.2293,12.1606,12.1491,12.1494,12.1606,12.1491,12.0991,12.0218,11.9292,11.8484,11.7597,11.6913,11.6492,11.6413,11.4714,11.3096,11.1401,10.8711,10.6482,10.4794,10.3212,10.2017,10.1094,10.0099,9.8832,9.7478,9.7403,9.6901,9.617,9.5292,9.4989,9.4835,9.3946,9.4294,9.4989,9.4989,9.5638,9.6285,9.617,9.4944,9.3674,9.3599,9.2364,9.0746,8.9062,8.8716,8.8175,8.6438,8.6012,8.6284,8.7211,8.8021,8.8865,8.9742,9.1282,9.2095,9.1439,9.2018,9.2135,9.121,8.9004,8.6486,8.3667,8.1679,7.9844,7.8164,7.5547,7.3242,7.1484,6.9062,6.7383,6.6601,6.5664,6.4765,6.4023,6.4023,6.3555,6.2695,6.2812,6.2344,8.3435,8.3206,0.0,0.0,8.7134,9.0601,9.4181,9.6367,9.8401,10.1214,10.4982,10.84,11.0401,11.4291,11.7981,0.0,12.4095,12.6906,12.8403,12.8983,12.8791,12.7912,12.6412,12.5489,12.5604,12.5181,12.4716,12.4409,12.4716,12.4486,12.3598,12.3598,12.3405,12.3104,12.3104,12.3104,12.3104,12.2601,12.1908,12.0991,12.0218,11.9097,11.7786,11.7404,11.6407,11.4986,11.4291,11.2483,10.9903,10.8788,10.679,10.4292,10.3599,10.2517,10.1205,10.0409,9.9332,9.8173,9.7673,9.6978,9.6245,9.5865,9.5752,9.5675,9.5326,9.548,9.5752,9.5752,9.6016,9.6285,9.6285,9.5018,9.3715,9.3715,9.2402,9.0746,8.9062,8.8716,8.8175,8.6438,8.6089,8.6553,8.7906,8.8447,8.9329,9.1131,9.2443,9.2905,9.2056,9.2674,9.2165,8.9446,8.7532,8.5563,8.3472,8.1875,8.0469,7.9258,7.7265,7.5312,7.3594,7.1523,6.9765,6.8437,6.707,6.5937,6.5078,6.4531,6.3867,6.3008,6.3008,6.2539,8.4824,0.0,0.0,8.8402,9.2674,9.7062,9.8216,10.1212,10.4207,10.5985,10.9595,11.3099,11.4712,11.7907,12.0908,12.2905,12.5903,12.8095,12.8791,12.8788,12.8099,12.6181,12.4989,12.4681,12.5607,12.5489,12.5489,12.5681,12.5986,12.5717,12.4909,12.4793,12.4598,12.4098,12.4098,12.4098,12.4098,12.3287,12.2598,12.1911,12.0795,11.9715,11.8482,11.802,11.6481,11.4291,11.4099,11.2288,10.9598,10.9098,10.71,10.4217,10.3987,10.2787,10.1205,10.0596,9.9755,9.8714,9.8096,9.7173,9.6285,9.6285,9.6285,9.6285,9.6285,9.6285,9.6285,9.6285,9.6285,9.6245,9.6019,9.4828,9.3638,9.3407,9.2249,9.0746,8.9062,8.8716,8.8175,8.6438,8.6089,8.6594,8.8098,8.8523,8.9408,9.1479,9.2672,9.3174,9.2559,9.2595,9.1432,8.8325,8.6477,8.4977,8.3662,8.2183,8.0898,7.9765,7.8359,7.668,7.4687,7.3164,7.1562,6.9844,6.8359,6.7187,6.6328,6.543,6.4453,6.3359,6.3359,6.2773,0.0,0.0,8.9641,9.3717,9.7944,10.2207,10.6403,10.8716,11.0409,11.2096,11.3907,11.5717,11.7404,11.9097,12.11,12.3716,12.6211,12.79,12.79,12.79,12.7018,12.4483,12.2719,12.2106,0.0,12.4486,12.58,12.6607,12.7409,12.7483,12.6684,12.6607,12.5797,12.4213,12.4098,12.4098,12.4098,12.3287,12.2902,12.2787,12.11,12.0295,12.0218,11.8517,11.6907,11.5217,11.4409,11.2981,11.1285,10.9598,10.7408,10.4987,10.4217,10.2787,10.1281,10.1284,10.0209,9.8793,9.8752,9.7673,9.6285,9.6285,9.6285,9.6285,9.6285,9.6285,9.6285,9.6285,9.6285,9.6093,9.5256,9.4369,9.3482,9.2712,9.1864,9.0746,8.9062,8.8716,8.8175,8.6438,8.6089,8.6399,8.7288,8.8139,8.8983,8.9857,9.1439,9.252,9.2482,9.1052,8.9667,8.8752,8.6772,8.5129,8.4246,8.2998,8.1523,7.9805,7.8906,7.7305,7.4726,7.375,7.2422,7.0703,6.9844,6.8984,6.8125,6.7265,6.5937,6.4258,6.4258,6.3359,0.0,0.0,9.6292,9.9986,10.4102,10.7905,11.0401,11.2291,11.3717,11.4294,11.3984,11.3712,11.4286,11.5792,11.741,11.8795,12.3604,12.6909,12.6291,12.7211,12.6288,12.21,12.1606,0.0,0.0,0.0,0.0,12.6607,12.7406,12.748,12.6684,12.7217,12.6986,12.5915,12.5797,12.5489,12.4989,12.4098,12.3402,12.2905,12.06,11.9485,11.9408,11.7718,11.5987,11.4409,11.4099,11.2406,10.9711,10.9095,10.7408,10.5102,10.4794,10.3715,10.221,10.221,10.0712,9.8793,9.8793,9.7714,9.6285,9.6285,9.6285,9.6285,9.6285,9.6285,9.6285,9.6285,9.6285,9.6247,9.5942,9.479,9.3636,9.3369,9.221,9.0746,8.9062,8.8716,8.8175,8.6438,8.6089,8.6553,8.8021,8.8523,8.9368,9.1325,9.1631,9.1864,9.2443,9.0975,8.959,8.8793,8.6774,8.5159,8.4264,8.3034,8.1562,7.9805,7.9453,7.789,7.4726,7.4336,7.3086,7.0742,7.043,6.9609,6.8203,6.789,6.6875,6.5156,6.457,6.3672,0.0,9.66,10.1907,10.5715,10.9293,11.2412,11.3714,11.491,11.5489,11.4602,11.2791,11.1211,11.0596,11.1406,11.2717,11.4407,11.9411,12.3491,12.4796,12.479,12.379,12.1103,12.0183,11.9298,0.0,0.0,0.0,12.5489,12.6483,12.6983,12.7101,12.7595,12.7714,12.7101,12.6489,12.5992,12.5412,12.4293,12.3098,12.1985,12.0292,11.9215,11.86,11.7182,11.5605,11.3984,11.3714,11.1791,10.8906,10.8906,10.7213,10.4718,10.4987,10.41,10.2594,10.2594,10.1214,9.9219,9.8906,9.7714,9.6285,9.6285,9.6285,9.6285,9.6285,9.6285,9.6285,9.6285,9.6285,9.6247,9.5903,9.4984,9.4023,9.3407,9.2441,9.1133,8.9139,8.8716,8.8175,8.6438,8.6089,8.6668,8.8408,8.9447,9.0599,9.2251,9.2018,9.1864,9.2443,9.1244,8.9936,8.8831,8.6789,8.5136,8.4265,8.3034,8.1679,8.0234,7.9883,7.8437,7.5625,7.5234,7.3984,7.168,7.1328,7.0312,6.8633,6.8359,6.7305,6.5586,6.4726,6.3828,9.7293,10.2214,10.6485,11.0711,11.3483,11.5608,11.63,11.6297,11.5489,11.2904,11.0211,10.779,0.0,0.0,10.7205,11.0593,11.4409,11.8487,12.3405,12.1485,12.0103,0.0,0.0,0.0,0.0,0.0,0.0,12.379,0.0,12.6101,12.7788,12.79,12.79,12.7785,12.6294,12.5412,12.5293,12.3716,12.1985,12.0295,12.0295,11.9408,11.7789,11.6913,11.5487,11.3986,11.3096,11.1291,10.8906,10.8906,10.6985,10.41,10.491,10.4217,10.271,10.2712,10.1601,9.9988,9.9101,9.7714,9.6285,9.6285,9.6285,9.6285,9.6285,9.6285,9.6285,9.6285,9.6285,9.6093,9.5294,9.5025,9.4604,9.2943,9.252,9.1828,8.9293,8.8716,8.8216,8.6553,8.6282,8.6822,8.8485,9.0827,9.2482,9.2443,9.252,9.2559,9.252,9.1669,9.0441,8.887,8.6737,8.5084,8.4266,8.3034,8.1914,8.1054,8.0195,7.8945,7.7265,7.6367,7.5078,7.332,7.25,7.1211,6.9453,6.8672,6.7383,6.5703,6.4805,6.3906,10.1986,10.71,11.1288,11.3714,11.5297,11.6108,11.5682,11.4099,11.1904,10.8708,10.4018,9.9712,0.0,0.0,0.0,10.6292,11.4907,0.0,12.379,12.498,0.0,0.0,0.0,12.0597,11.8905,11.9292,0.0,0.0,12.4909,12.5912,12.6909,12.8217,12.8294,12.6989,12.5989,12.5101,12.4406,12.2796,12.1414,12.0295,11.9715,11.8789,11.7789,11.6294,11.4986,11.3986,11.3096,11.1291,10.8906,10.8906,10.7713,10.5785,10.6018,10.5405,10.4407,10.3792,10.2102,9.9988,9.9101,9.7714,9.6285,9.6285,9.6285,9.6285,9.6285,9.6285,9.6285,9.6285,9.6285,9.6247,9.6016,9.5485,9.4717,9.3638,9.2943,9.1982,9.0015,8.9133,8.8562,8.8137,8.8515,8.9088,8.9513,9.1208,9.2287,9.1631,9.2595,9.3176,9.2597,9.0637,8.9177,8.8754,8.6182,8.4452,8.4227,8.3034,8.1914,8.1054,8.0195,7.8945,7.7265,7.6367,7.5078,7.332,7.3086,7.2109,7.0351,6.957,6.8594,6.75,6.5976,6.5156,10.71,11.1101,11.4214,11.5489,11.5913,11.5297,11.2604,11.0596,10.7708,10.2017,9.7593,0.0,0.0,0.0,0.0,0.0,0.0,0.0,12.3598,12.5018,12.5213,0.0,12.3601,0.0,12.0905,12.1485,12.2908,0.0,12.4986,12.5486,12.7101,12.8099,12.7983,12.6684,12.5489,12.4213,12.2985,12.168,12.0603,11.9795,11.8905,11.81,11.7215,11.5487,11.4486,11.3907,0.0,11.0901,10.8906,10.8906,10.7713,10.5905,10.6285,10.5713,10.4487,10.4102,10.2296,9.9988,9.9101,9.7714,9.6285,9.6285,9.6285,9.6285,9.6285,9.6285,9.6285,9.6285,9.6285,9.6285,9.6285,9.5942,9.5251,9.3984,9.3369,9.2441,9.0357,8.9551,8.9133,8.8754,8.9363,8.9893,8.9893,9.1631,9.2866,9.2364,9.3097,9.3523,9.3097,9.1135,8.9522,8.8793,8.6359,8.4631,8.4226,8.3034,8.2109,8.1601,8.039,7.9297,7.8359,7.7109,7.5664,7.3906,7.3867,7.2812,7.0703,6.9844,6.9023,6.8164,6.6406,6.5586,11.1791,11.4214,11.5605,11.6297,11.5682,11.3681,10.8713,10.6285,10.2902,9.4559,0.0,8.9169,8.5859,8.971,9.4867,9.9526,0.0,11.5596,12.3408,12.379,12.429,12.6681,12.5601,12.429,12.3482,12.4095,12.5293,12.6912,12.5486,12.5595,12.79,12.8019,12.7406,12.6415,12.4909,12.3293,12.1606,12.0719,11.9911,11.91,11.8212,11.7292,11.6413,11.4794,11.3984,11.3907,11.2209,11.0596,10.9098,10.8903,10.7482,10.5487,10.6092,10.54,10.3984,10.3792,10.2217,9.995,9.8985,9.7596,9.6285,9.6285,9.6285,9.6285,9.6285,9.6285,9.6285,9.6285,9.6285,9.6285,9.6285,9.6285,9.5901,9.4253,9.3792,9.3059,9.0744,9.0165,8.9821,8.9019,8.9515,9.0086,9.0086,9.2016,9.3523,9.3523,9.3523,9.3523,9.3523,9.1979,9.0325,8.8904,8.6697,8.5043,8.4325,8.3058,8.2304,8.2304,8.0664,7.9687,7.9687,7.8086,7.6367,7.4648,7.4609,7.3359,7.0859,6.9883,6.9062,6.832,6.6562,6.5781,11.3984,11.5605,11.6297,11.6492,11.4794,11.2019,10.7593,10.271,0.0,0.0,0.0,8.4095,8.1396,8.6782,0.0,10.0094,0.0,0.0,0.0,0.0,12.6681,0.0,0.0,0.0,0.0,0.0,0.0,0.0,0.0,12.7711,12.8903,12.8288,12.6903,12.4598,12.4293,12.3293,12.1606,12.0719,11.9911,11.91,11.8212,11.7292,11.6413,11.4794,11.3984,11.3907,11.2209,0.0,10.9908,10.9213,10.8211,10.721,10.6592,10.579,10.4715,10.3289,10.1717,9.9875,9.8291,9.7093,9.6285,9.6285,9.6285,9.6285,9.6285,9.6285,9.6285,9.6285,9.6285,9.6285,9.6285,9.6285,9.6057,9.5025,9.4217,9.3405,9.2287,9.1477,9.0705,8.9857,9.0396,9.0975,9.0975,9.1939,9.2712,9.2712,9.2712,9.2712,9.2712,9.0635,8.9094,8.8966,8.624,8.4439,8.452,8.3148,8.2304,8.2304,8.0664,7.9687,7.9687,7.8086,7.6367,7.4648,7.4609,7.3672,7.1758,7.0195,6.9375,6.9219,6.75,6.668,11.5412,11.6182,11.6492,11.6492,11.3909,10.979,10.3789,0.0,0.0,0.0,0.0,8.1093,7.944,0.0,0.0,0.0,0.0,0.0,0.0,0.0,0.0,0.0,0.0,0.0,0.0,0.0,0.0,0.0,0.0,12.8288,12.9217,12.7095,12.5406,12.4095,12.3296,12.2411,12.1606,12.0295,11.9487,11.91,11.7795,11.691,11.6413,11.4794,11.3984,11.3907,11.2209,11.1019,11.0103,10.9293,10.8406,10.7598,10.621,10.5215,10.4294,10.2597,10.0907,9.9255,9.7942,9.6978,9.6285,9.6285,9.6285,9.6285,9.6285,9.6285,9.6285,9.6285,9.6285,9.6285,9.6285,9.6285,9.5978,9.4638,9.3328,9.2287,9.1902,9.1515,9.109,9.0665,9.0898,9.1323,9.1787,9.221,9.2635,9.3059,9.2751,9.2328,9.1864,9.009,8.8733,8.8365,8.5847,8.4102,8.3949,8.2918,8.2304,8.2304,8.0664,7.9687,7.9687,7.8086,7.6367,7.4648,7.4609,7.375,7.1992,7.0273,6.9453,6.9453,6.7695,6.6914,11.5797,11.649,11.6682,11.649,11.3107,10.7795,10.0486,9.4441,0.0,0.0,7.8902,7.9092,7.8598,0.0,0.0,0.0,0.0,0.0,0.0,0.0,0.0,0.0,0.0,0.0,0.0,0.0,0.0,0.0,0.0,0.0,12.8599,12.6101,12.4486,12.4098,12.2719,12.1799,12.1606,11.9911,11.91,11.91,11.7295,11.6492,11.6413,11.4794,11.3984,11.3907,11.2209,11.1096,11.0409,10.929,10.848,10.779,10.5792,10.4602,10.3717,10.1709,10.0096,9.8637,9.7596,9.6824,9.6285,9.6285,9.6285,9.6285,9.6285,9.6285,9.6285,9.6285,9.6285,9.6285,9.6285,9.6285,9.5862,9.4097,9.2556,9.1439,9.1244,9.1208,9.1208,9.1208,9.1208,9.1439,9.2095,9.221,9.2482,9.3328,9.2751,9.1979,9.1285,8.9891,8.8559,8.7361,8.5442,8.402,8.3428,8.2723,8.2304,8.2304,8.0664,7.9687,7.9687,7.8086,7.6367,7.4648,7.4609,7.3633,7.1719,7.0234,6.9414,6.918,6.7617,6.6914,11.5182,11.6484,11.7481,11.6682,11.2219,10.629,10.0214,0.0,0.0,7.979,7.7982,7.7711,7.8369,0.0,0.0,0.0,0.0,0.0,0.0,0.0,0.0,0.0,0.0,0.0,0.0,0.0,0.0,0.0,0.0,0.0,12.6992,12.6607,12.5681,12.4095,12.321,12.2408,12.1606,11.9911,11.91,11.91,11.7295,11.6492,11.6413,11.4794,11.3984,11.3907,11.2209,11.1516,0.0,10.9598,10.8908,10.848,10.6102,10.4602,10.3599,10.1104,9.9601,9.856,9.6978,9.6362,9.6285,9.6285,9.6285,9.6285,9.6285,9.6285,9.6285,9.6285,9.6285,9.6285,9.6285,9.6285,9.5862,9.4097,9.302,9.2172,9.1362,9.1208,9.1208,9.1208,9.1208,9.1246,9.1321,9.1323,9.1592,9.2482,9.1864,9.1285,9.1208,8.9891,8.8157,8.5952,8.5029,8.4292,8.3644,8.2771,8.2304,8.2304,8.0664,7.9687,7.9687,7.8086,7.6367,7.4648,7.4609,7.3359,7.082,6.9922,6.9101,6.8281,6.7344,6.6914,11.4412,11.691,11.8407,11.7484,11.1717,10.4715,9.925,0.0,8.3714,7.879,7.7521,7.7559,7.8367,7.9748,0.0,0.0,0.0,0.0,0.0,0.0,0.0,0.0,0.0,0.0,0.0,0.0,0.0,0.0,0.0,0.0,12.5992,12.5412,12.4793,12.4098,12.2793,12.1991,12.1606,11.9911,11.91,11.91,11.7295,11.6492,11.6413,11.4794,11.3984,11.3907,11.1714,11.0714,0.0,10.8906,10.8213,10.7905,10.541,10.4217,10.3484,10.0488,9.9101,9.856,9.6863,9.6285,9.6285,9.6285,9.6285,9.6285,9.6285,9.6285,9.6285,9.6285,9.6285,9.6285,9.6285,9.5903,9.5213,9.3984,9.3097,9.2251,9.14,9.1208,9.1208,9.1208,9.1208,9.1362,9.19,9.1554,9.1515,9.2366,9.1746,9.0823,8.9829,8.8838,8.7327,8.4985,8.467,8.4118,8.2925,8.25,8.2304,8.2304,8.1172,8.0234,7.9726,7.8594,7.6914,7.4648,7.4609,7.3555,7.1484,7.0156,6.9297,6.8906,6.7539,6.6914,11.2219,11.5794,11.81,11.7292,11.0909,10.341,0.0,0.0,8.2406,7.8175,7.7096,7.7251,7.829,7.9017,8.0437,0.0,0.0,0.0,0.0,0.0,0.0,0.0,0.0,0.0,0.0,0.0,0.0,0.0,0.0,0.0,12.5409,12.429,12.371,12.371,12.2296,12.1494,12.1183,11.9795,11.8985,11.8712,11.7182,11.6415,11.6108,11.472,11.3907,11.3483,11.1216,11.0219,0.0,10.8406,10.7516,10.7095,10.4792,10.3712,10.3099,9.9983,9.8793,9.856,9.6863,9.6285,9.6285,9.6285,9.6285,9.6285,9.6285,9.6285,9.6285,9.6285,9.6285,9.6285,9.6285,9.5636,9.4794,9.3907,9.3097,9.2251,9.14,9.1208,9.1208,9.1208,9.1208,9.14,9.2018,9.1592,9.14,9.2018,9.1592,9.0592,8.8908,8.8121,8.6803,8.4438,8.4215,8.37,8.2419,8.2304,8.2304,8.2304,8.1484,8.0625,7.9726,7.8945,7.7265,7.4648,7.4609,7.3633,7.1601,7.043,6.957,6.9023,6.7812,6.6992,10.81,11.2681,11.6297,11.5489,10.9603,10.2599,0.0,0.0,8.2406,7.8175,7.6595,7.6517,7.8175,7.8523,7.9367,8.1902,0.0,0.0,0.0,0.0,0.0,0.0,0.0,0.0,0.0,0.0,0.0,0.0,0.0,0.0,12.5412,12.379,12.2902,12.2902,12.2103,12.1183,12.0295,11.9485,11.8715,11.7786,11.691,11.6108,11.5297,11.4409,11.3481,11.2593,11.0906,11.0219,0.0,10.8406,10.721,10.6205,10.46,10.3407,10.2287,9.9752,9.8793,9.856,9.6863,9.6285,9.6285,9.6285,9.6285,9.6285,9.6285,9.6285,9.6285,9.6285,9.6285,9.6285,9.6285,9.5636,9.4794,9.3907,9.3097,9.2251,9.14,9.1208,9.1208,9.1208,9.1208,9.1208,9.1208,9.1208,9.1208,9.1208,9.1208,9.0592,8.8908,8.8121,8.6791,8.4439,8.3656,8.3047,8.2344,8.2304,8.2304,8.2304,8.1484,8.0625,7.9726,7.8945,7.7265,7.4648,7.4609,7.332,7.0703,7.0703,6.9844,6.8203,6.8203,6.7265,10.0212,10.4407,10.741,10.541,10.0486,9.5059,9.1135,0.0,8.0131,7.7055,7.6207,7.6517,7.8175,7.8484,7.9906,8.4209,8.5553,0.0,0.0,0.0,0.0,0.0,0.0,0.0,0.0,0.0,0.0,0.0,0.0,0.0,12.3713,12.2601,12.2293,12.2902,12.1485,12.0603,12.0295,11.8905,11.8097,11.7786,11.691,11.6108,11.5297,11.4409,11.3211,11.1785,11.0098,10.8985,10.8406,10.7287,10.6287,10.5405,10.4292,10.2981,10.1515,9.9522,9.8406,9.775,9.667,9.6285,9.6285,9.6285,9.6285,9.6285,9.6285,9.6285,9.6285,9.6285,9.6285,9.6285,9.6285,9.5636,9.4794,9.3907,9.3097,9.2251,9.14,9.1208,9.1208,9.1208,9.1208,9.1208,9.1208,9.1208,9.1208,9.1208,9.1208,9.0592,8.8908,8.7989,8.6651,8.4425,8.3523,8.2893,8.2343,8.2304,8.2304,8.2304,8.1484,8.0625,7.9726,7.8945,7.7265,7.4648,7.4609,7.3594,7.1601,7.0976,6.9844,6.8203,6.7578,6.7031,0.0,9.825,10.1099,9.9524,9.5521,0.0,0.0,0.0,7.8592,7.6013,7.5513,7.6015,7.7711,7.8061,7.9288,8.3091,8.4012,0.0,0.0,0.0,0.0,0.0,0.0,0.0,0.0,0.0,0.0,0.0,0.0,0.0,12.2408,12.1603,12.1414,12.1905,12.0908,11.9988,11.9408,11.8289,11.7597,11.7292,11.649,11.5605,11.4794,11.3907,11.2599,11.0903,10.9483,10.8406,0.0,10.6403,10.5405,10.4484,10.3407,10.2097,10.0594,9.8942,9.798,9.7363,9.6593,9.6285,9.6285,9.6285,9.6285,9.6285,9.6285,9.6285,9.6285,9.6285,9.6285,9.6209,9.5903,9.5408,9.472,9.3523,9.2866,9.2251,9.14,9.1208,9.1208,9.1208,9.1208,9.1208,9.1208,9.1208,9.1208,9.1208,9.0936,9.0208,8.8868,8.7634,8.6326,8.483,8.3675,8.2924,8.2811,8.25,8.2304,8.2304,8.1484,8.0625,7.9726,7.8594,7.6914,7.4648,7.4297,7.3398,7.1992,7.082,6.9375,6.7695,6.6836,6.6055,0.0,9.3054,9.6247,9.6172,9.317,8.9169,0.0,0.0,0.0,0.0,0.0,7.5243,7.7057,7.7326,7.7942,7.9858,0.0,0.0,0.0,0.0,0.0,0.0,0.0,0.0,0.0,0.0,0.0,0.0,0.0,0.0,12.1494,12.0683,12.0218,12.01,12.01,11.9408,11.7786,11.7709,11.7292,11.6415,11.5685,11.4794,11.3907,11.3096,11.1791,0.0,10.9293,10.8406,10.7405,10.5795,10.4602,10.3599,10.2017,10.0789,9.9796,9.8134,9.7442,9.7324,9.6555,9.6285,9.6285,9.6285,9.6285,9.6285,9.6285,9.6285,9.6285,9.6285,9.6285,9.6095,9.5218,9.4951,9.4487,9.2866,9.2443,9.2172,9.1362,9.1208,9.1208,9.1208,9.1208,9.1208,9.1208,9.1208,9.1208,9.1208,9.0472,8.9628,8.8791,8.7211,8.6008,8.5455,8.4012,8.3197,8.3475,8.2773,8.2304,8.2304,8.1484,8.0625,7.9726,7.8086,7.6367,7.4648,7.3633,7.2734,7.1914,7.0234,6.8594,6.6953,6.6015,6.4726,7.7817,0.0,8.3783,8.3135,8.175,8.0133,0.0,0.0,0.0,0.0,0.0,0.0,0.0,0.0,0.0,0.0,0.0,0.0,0.0,0.0,0.0,0.0,0.0,0.0,0.0,0.0,0.0,0.0,0.0,12.0603,11.9715,11.9487,11.91,11.8405,11.8405,11.8212,11.7786,11.71,11.641,11.5605,11.5412,11.4486,11.3016,11.2788,11.1403,10.9213,10.8985,10.7716,10.5718,10.5297,10.4215,10.2789,10.1707,10.0404,9.8985,9.7904,9.7093,9.6555,9.6362,9.6285,9.6285,9.6285,9.6285,9.6285,9.6285,9.6285,9.6285,9.6285,9.6285,9.6095,9.5218,9.4525,9.3753,9.2751,9.1979,9.1439,9.1244,9.1208,9.1208,9.1208,9.1208,9.1208,9.1208,9.1208,9.1208,9.1208,9.0472,8.9628,8.8791,8.775,8.6427,8.47,8.4144,8.3572,8.2694,8.2422,8.2304,8.2304,8.1484,8.0625,7.9726,7.8086,7.6367,7.4648,7.2422,7.1211,7.1015,6.9336,6.8281,6.7851,6.6328,6.539,7.3243,7.6322,7.9094,7.8636,7.8175,7.7521,7.6286,0.0,0.0,0.0,0.0,0.0,0.0,0.0,0.0,0.0,0.0,0.0,0.0,0.0,0.0,0.0,0.0,0.0,0.0,0.0,0.0,0.0,0.0,11.9603,11.91,11.8712,11.8289,11.7786,11.7404,11.7215,11.7215,11.6413,11.5682,11.5297,11.4486,11.3404,11.209,11.1711,11.0406,10.8288,10.8288,10.7098,10.5102,10.4718,10.3482,10.1899,10.0591,9.9365,9.8098,9.7247,9.667,9.6285,9.6285,9.6285,9.6285,9.6285,9.6285,9.6285,9.6285,9.6285,9.6285,9.6285,9.6019,9.5482,9.464,9.3792,9.2943,9.2095,9.1554,9.1092,9.0705,9.0936,9.0977,9.021,9.0671,9.1052,9.0665,9.0936,9.1208,9.1208,9.0131,8.9173,8.8754,8.7288,8.5854,8.4765,8.4062,8.341,8.2811,8.2461,8.2304,8.2304,8.1094,8.0195,7.9726,7.7305,7.5,7.2851,7.1406,7.0312,6.9531,6.8633,6.7578,6.6406,6.543,6.457,7.1748,7.5289,7.8369,7.7867,7.7828,7.748,7.5786,0.0,0.0,0.0,0.0,0.0,0.0,0.0,0.0,0.0,0.0,0.0,0.0,0.0,0.0,0.0,0.0,0.0,0.0,0.0,0.0,0.0,0.0,11.8789,11.8715,11.7981,11.7597,11.7597,11.6797,11.6297,11.6297,11.5602,11.5182,11.491,11.3288,11.2093,11.1285,11.0406,10.9101,10.7518,0.0,0.0,10.4718,10.3792,10.2597,10.0899,9.925,9.8134,9.7403,9.6593,9.6285,9.6285,9.6285,9.6285,9.6285,9.6285,9.6285,9.6285,9.6285,9.6285,9.6285,9.6132,9.5561,9.4794,9.3946,9.2982,9.2095,9.1208,9.0898,9.0631,8.9895,9.0284,9.0402,8.8983,8.9943,9.0744,8.9857,9.0436,9.0975,9.0823,8.9483,8.8447,8.8331,8.6324,8.4865,8.4802,8.3675,8.2963,8.3084,8.2578,8.2185,8.2047,8.0699,7.9648,7.914,7.6094,7.3242,7.0742,7.0586,6.9765,6.8203,6.793,6.664,6.4492,6.4219,6.332,7.1748,7.5289,7.7828,7.4972,7.478,7.4859,0.0,0.0,0.0,0.0,0.0,0.0,0.0,0.0,0.0,0.0,0.0,0.0,0.0,0.0,0.0,0.0,0.0,0.0,0.0,0.0,0.0,0.0,0.0,11.7715,11.691,11.6797,11.6682,11.6682,11.5913,11.5489,11.5489,11.5412,11.4602,11.3096,11.2093,11.1211,11.0411,10.9485,10.8213,10.6592,0.0,10.5208,10.2904,10.2094,10.1094,10.0101,9.8368,9.7632,9.7403,9.6593,9.6285,9.6285,9.6285,9.6285,9.6285,9.6285,9.6285,9.6285,9.6285,9.6285,9.6134,9.5408,9.5104,9.4794,9.3946,9.2556,9.1167,9.0319,8.9594,8.9062,8.8906,8.8985,8.9024,8.8754,8.9479,8.9859,8.9019,8.9554,8.9859,8.9175,8.8252,8.7327,8.6592,8.5551,8.4397,8.3129,8.2813,8.2539,8.2223,8.2109,8.1732,8.0993,8.0867,7.9492,7.6601,7.457,7.2617,7.0742,7.0039,6.918,6.8203,6.6719,6.5781,6.5351,6.3906,6.3047,7.0361,7.2941,7.4828,7.378,7.5857,7.7705,0.0,0.0,0.0,0.0,0.0,0.0,0.0,0.0,0.0,0.0,0.0,0.0,0.0,0.0,0.0,0.0,0.0,0.0,0.0,0.0,0.0,0.0,11.7407,11.691,11.6492,11.6492,11.6297,11.5915,11.5489,11.4794,11.3907,11.3483,11.2788,11.2014,11.1211,11.0098,10.879,10.8406,10.7287,10.5713,0.0,10.4482,10.2517,10.1707,10.0517,9.9255,9.8019,9.7247,9.6824,9.6439,9.6285,9.6285,9.6285,9.6285,9.6285,9.6285,9.6285,9.6285,9.6285,9.598,9.5523,9.5102,9.464,9.3986,9.2672,9.1439,9.0282,8.9438,8.8981,8.8562,8.8098,8.837,8.8406,8.7481,8.8363,8.8979,8.8137,8.8673,8.9133,8.8754,8.7944,8.7096,8.6205,8.4978,8.3749,8.2552,8.2131,8.1884,8.1707,8.1779,8.136,8.024,7.9303,7.7695,7.5312,7.3515,7.1797,7.0078,6.9219,6.8359,6.75,6.668,6.6055,6.5586,6.4297,6.3437,6.9513,7.136,7.2899,7.3393,0.0,7.9169,0.0,0.0,0.0,0.0,0.0,0.0,0.0,0.0,0.0,0.0,0.0,0.0,0.0,0.0,0.0,0.0,0.0,0.0,0.0,0.0,11.7481,11.7481,11.691,11.6413,11.6182,11.6182,11.5797,11.4986,11.4794,11.4102,11.2709,11.1708,11.1211,11.1211,11.0098,10.879,10.7403,10.7213,10.6097,10.4484,10.4484,10.3599,10.1904,10.1094,9.9827,9.8406,9.7555,9.6824,9.6285,9.6285,9.6285,9.6285,9.6285,9.6285,9.6285,9.6055,9.6132,9.6206,9.5824,9.5367,9.4912,9.4525,9.3792,9.2828,9.1515,9.0244,8.9169,8.8521,8.8252,8.7906,8.7248,8.7637,8.7711,8.6361,8.7327,8.8137,8.7248,8.7829,8.8254,8.7867,8.725,8.644,8.5361,8.4095,8.2984,8.2095,8.1599,8.1254,8.1104,8.1079,8.0509,7.9147,7.7491,7.6015,7.4648,7.293,7.1211,6.9531,6.8828,6.7969,6.6914,6.6719,6.6133,6.5273,6.4609,6.3828,7.036,7.2628,7.4355,7.3661,0.0,0.0,0.0,0.0,0.0,0.0,0.0,0.0,0.0,0.0,0.0,0.0,0.0,0.0,0.0,0.0,0.0,0.0,0.0,0.0,0.0,11.71,11.6605,11.6605,11.649,11.6182,11.5412,11.5412,11.4989,11.4099,11.3288,11.2786,11.2709,11.1101,11.0296,11.0296,10.8716,10.7403,10.6515,10.5715,10.4407,10.2789,10.2789,10.1791,10.0219,9.9332,9.8442,9.7519,9.6709,9.636,9.6285,9.6285,9.6285,9.6285,9.6285,9.6285,9.617,9.5371,9.5636,9.6016,9.4367,9.441,9.4679,9.3136,9.2056,9.1362,9.1244,8.94,8.7557,8.7519,8.6863,8.6282,8.6205,8.6245,8.6245,8.613,8.6863,8.7211,8.6322,8.6901,8.6978,8.5397,8.5128,8.4476,8.2787,8.2479,8.2095,8.1285,8.1131,8.0868,8.0265,7.9629,7.8647,7.7201,7.6228,7.5351,7.4648,7.293,7.1211,6.9531,6.9453,6.8594,6.6914,6.6094,6.5234,6.4375,6.4336,6.3828,6.9048,7.082,7.2512,7.3317,0.0,0.0,0.0,0.0,0.0,0.0,0.0,0.0,0.0,0.0,0.0,0.0,0.0,0.0,0.0,0.0,0.0,0.0,0.0,0.0,0.0,11.6682,11.6492,11.6492,11.5989,11.5605,11.5297,11.4794,11.4102,11.3211,11.2401,11.1708,11.1216,10.8903,10.7787,10.7787,10.721,10.6403,10.56,10.4715,10.3715,10.2594,10.2015,10.1096,9.999,9.856,9.7788,9.7401,9.6593,9.6285,9.6285,9.6285,9.6285,9.6285,9.6285,9.5942,9.5523,9.5752,9.5288,9.4674,9.4523,9.4025,9.3215,9.2018,9.071,8.9635,8.9635,8.8519,8.7132,8.6091,8.5974,8.5974,8.5474,8.5743,8.6089,8.6089,8.6361,8.6476,8.6168,8.5976,8.5628,8.501,8.4439,8.3672,8.2441,8.2287,8.1979,8.121,8.1093,8.0785,7.9981,7.9285,7.8281,7.6816,7.5509,7.4498,7.3828,7.2109,7.0664,6.9531,6.8984,6.8086,6.6914,6.6562,6.625,6.5898,6.4805,6.4101,6.8702,6.9818,7.1243,7.2703,0.0,0.0,0.0,0.0,0.0,0.0,0.0,0.0,0.0,0.0,0.0,0.0,0.0,0.0,0.0,0.0,0.0,0.0,0.0,0.0,11.6492,11.63,11.6105,11.6105,11.5605,11.5105,11.4486,11.3714,11.2788,11.1904,11.0903,11.0019,10.9408,10.7095,10.6018,10.6018,10.5518,10.4902,10.4292,10.3712,10.2981,10.2092,10.1286,10.0483,9.9565,9.8098,9.7363,9.7055,9.6514,9.6285,9.6285,9.598,9.5903,9.5865,9.5555,9.5098,9.464,9.498,9.4482,9.3715,9.3792,9.3176,9.2251,9.1129,8.9787,8.8562,8.8021,8.7442,8.6709,8.5551,8.5705,8.5938,8.5397,8.5705,8.6089,8.6089,8.5897,8.5782,8.6053,8.5207,8.4476,8.4476,8.3749,8.2866,8.2018,8.19,8.171,8.117,8.0862,8.0323,7.9475,7.8813,7.7721,7.5903,7.4897,7.4058,7.3319,7.1875,7.0586,6.9492,6.8906,6.8047,6.6914,6.6914,6.6758,6.6484,6.5547,6.4844,6.9898,7.0281,7.1092,7.2019,0.0,0.0,0.0,0.0,0.0,0.0,0.0,0.0,0.0,0.0,0.0,0.0,0.0,0.0,0.0,0.0,11.6182,11.5412,11.5297,11.5605,11.6415,11.5797,11.5297,11.5297,11.5297,11.4486,11.2788,11.1901,11.1096,11.0219,10.848,10.7711,10.7711,10.5908,10.5105,10.4987,10.3407,10.2597,10.2594,10.2594,10.2094,10.1205,10.0409,9.9603,9.8714,9.7865,9.7016,9.6285,9.6285,9.6283,9.617,9.5333,9.4989,9.4871,9.3984,9.3676,9.3559,9.2751,9.302,9.3366,9.1708,9.1787,9.2095,9.0357,8.9286,8.8293,8.6553,8.6089,8.6089,8.6089,8.6089,8.6089,8.6089,8.6089,8.6089,8.6089,8.5435,8.5166,8.5938,8.4711,8.3599,8.3599,8.2866,8.2018,8.1208,8.1093,8.1093,8.1093,8.0321,7.9475,7.8559,7.8086,7.672,7.4163,7.4372,7.4227,7.3319,7.2461,7.1172,6.9414,6.9453,6.8633,6.6914,6.6914,6.6445,6.5625,6.6484,6.5937,6.8438,0.0,0.0,0.0,0.0,0.0,0.0,0.0,0.0,0.0,0.0,0.0,0.0,0.0,0.0,0.0,0.0,0.0,0.0,11.4602,11.5294,11.4486,11.4409,11.4486,11.4717,11.4486,11.4409,11.4409,11.3291,11.2404,11.1901,10.9901,10.8711,10.8406,10.6792,10.591,10.591,10.3597,10.2399,10.2402,10.0712,10.0517,10.1709,10.1099,10.0409,9.9481,9.8634,9.8134,9.7827,9.7019,9.6514,9.6285,9.6285,9.5942,9.5331,9.5104,9.4602,9.4063,9.3792,9.3328,9.2905,9.3253,9.2712,9.1864,9.1362,9.0936,9.0321,8.863,8.7517,8.663,8.5553,8.4786,8.4328,8.4328,8.5247,8.5938,8.5397,8.5705,8.5936,8.5359,8.5512,8.5438,8.4482,8.3943,8.3407,8.2789,8.1977,8.1364,8.1131,8.1093,8.1093,8.1093,8.0862,8.0092,7.8636,7.8642,7.7352,7.4201,7.4364,7.3932,7.2461,7.2148,7.1172,6.9414,6.9453,6.8633,6.6914,6.6914,6.6758,6.6484,6.5508,6.4805,7.0594,0.0,0.0,0.0,0.0,0.0,0.0,0.0,0.0,0.0,0.0,0.0,0.0,0.0,0.0,0.0,0.0,0.0,0.0,11.3714,11.4486,11.3596,11.3483,11.3596,11.3986,11.3714,11.3407,11.3016,11.2093,11.1093,11.0016,10.8211,10.6903,10.6213,10.4482,10.3407,10.3104,10.1212,10.0286,10.0286,9.9288,9.9135,9.9784,9.9637,9.9293,9.8755,9.7865,9.7324,9.6978,9.6134,9.579,9.5749,9.5403,9.4944,9.4448,9.4102,9.3676,9.3174,9.2828,9.2172,9.1554,9.2016,9.1287,9.0212,9.0212,8.9825,8.913,8.7788,8.6786,8.5822,8.4668,8.3982,8.3599,8.3599,8.4366,8.4978,8.4478,8.5053,8.5474,8.4972,8.5014,8.4903,8.4211,8.3289,8.2558,8.2326,8.1631,8.1093,8.1093,8.1093,8.1093,8.1093,8.0479,7.9635,7.8598,7.8263,7.6934,7.4163,7.4372,7.3828,7.207,7.1992,7.1172,6.9414,6.9453,6.8633,6.6914,6.6914,6.6719,6.6367,6.5312,6.4453,0.0,0.0,0.0,0.0,0.0,0.0,0.0,0.0,0.0,0.0,0.0,0.0,0.0,0.0,0.0,0.0,0.0,0.0,0.0,0.0,11.3404,11.2481,11.2404,11.2711,11.3483,11.2788,11.2016,11.1206,11.1093,11.0016,10.7598,10.6592,10.5284,10.3715,10.2097,10.0789,9.999,9.9101,9.8675,9.8675,9.8598,9.8175,9.7401,9.8291,9.8637,9.8521,9.7634,9.6863,9.6093,9.5254,9.4874,9.4794,9.4023,9.3676,9.3482,9.2751,9.2443,9.2251,9.1362,9.0549,8.9893,8.9819,8.9286,8.8677,8.8523,8.8447,8.8254,8.7327,8.644,8.5399,8.3868,8.3445,8.3368,8.3368,8.3486,8.3599,8.3599,8.4211,8.4743,8.4666,8.4095,8.3789,8.4435,8.2706,8.1439,8.2093,8.1554,8.1093,8.1093,8.1093,8.1054,8.0977,7.9558,7.8561,7.8407,7.7372,7.593,7.4125,7.4372,7.3828,7.207,7.1992,7.1172,6.9414,6.9453,6.8633,6.6914,6.6836,6.6367,6.5586,6.543,6.4492,0.0,0.0,0.0,0.0,0.0,0.0,0.0,0.0,0.0,0.0,0.0,0.0,0.0,0.0,0.0,0.0,0.0,0.0,0.0,0.0,11.1519,10.9903,10.9713,10.979,10.9983,10.9788,10.9406,10.8595,10.79,10.7018,10.5715,10.4212,10.29,10.1899,10.0907,9.9947,9.9101,9.8214,9.7788,9.7788,9.7132,9.6747,9.6593,9.7403,9.744,9.6786,9.5908,9.5448,9.5218,9.4333,9.3984,9.3946,9.3753,9.3328,9.2751,9.2559,9.2056,9.1362,9.0472,9.0049,8.9819,8.9171,8.8829,8.8447,8.7055,8.6668,8.6363,8.4828,8.3789,8.3018,8.2672,8.2097,8.1631,8.1631,8.2635,8.3599,8.3599,8.3753,8.3674,8.2978,8.3251,8.3251,8.2093,8.1979,8.1902,8.1441,8.1208,8.1093,8.1093,8.1093,8.0821,8.0165,7.9742,7.8977,7.7673,7.7552,7.653,7.4163,7.4372,7.3828,7.207,7.1992,7.1172,6.9414,6.9414,6.8594,6.6914,6.6211,6.5781,6.5586,6.4219,6.3359,0.0,0.0,0.0,0.0,0.0,0.0,0.0,0.0,0.0,0.0,0.0,0.0,0.0,0.0,0.0,0.0,0.0,11.0598,10.9716,10.9595,10.9285,10.8403,10.7982,10.7711,10.7711,10.7711,10.7405,10.6485,10.5713,10.4595,10.3287,10.2099,10.0789,9.9514,9.906,9.8444,9.7596,9.7132,9.6939,9.6901,9.6516,9.6093,9.5675,9.6098,9.6059,9.5636,9.4754,9.4371,9.4294,9.3484,9.3138,9.302,9.221,9.1862,9.1823,9.14,9.0975,9.0513,9.0049,8.9357,8.8553,8.7711,8.7171,8.6632,8.5326,8.4903,8.4713,8.3868,8.2984,8.2404,8.2828,8.2018,8.1208,8.1593,8.2058,8.2404,8.2404,8.2712,8.2828,8.2404,8.2672,8.2712,8.1825,8.171,8.1593,8.117,8.1093,8.1093,8.1093,8.1093,8.0783,7.9896,7.9438,7.8671,7.7405,7.7248,7.6307,7.4124,7.4372,7.3633,7.1484,7.1367,7.0742,6.9414,6.9414,6.8398,6.6289,6.582,6.5156,6.4336,6.3437,6.2773,0.0,0.0,0.0,0.0,0.0,0.0,0.0,0.0,0.0,0.0,0.0,0.0,0.0,0.0,10.8482,10.8482,10.8482,10.8406,10.8293,10.7716,10.721,10.7098,10.6403,10.6018,10.6018,10.5785,10.5402,10.4484,10.3717,10.2481,10.1017,10.0214,9.9139,9.7555,9.7363,9.6901,9.6093,9.5939,9.5862,9.5862,9.5862,9.548,9.4758,9.464,9.4643,9.4717,9.3869,9.3407,9.3213,9.2402,9.1982,9.1712,9.0246,9.0128,9.0708,9.0126,8.9819,8.9703,8.9703,8.859,8.7017,8.6168,8.5359,8.4514,8.3636,8.3368,8.3368,8.3214,8.2635,8.2249,8.2984,8.2133,8.1285,8.1941,8.1593,8.1093,8.1093,8.1631,8.2093,8.2093,8.2093,8.2093,8.2093,8.1556,8.1093,8.1093,8.1093,8.1093,8.1093,8.1093,8.0706,7.9665,7.8942,7.8136,7.7213,7.6799,7.5882,7.4169,7.4396,7.3437,7.082,7.0703,7.0156,6.8984,6.9023,6.789,6.5586,6.5312,6.4414,6.3008,6.2851,6.2383,0.0,0.0,0.0,0.0,0.0,0.0,0.0,0.0,0.0,0.0,0.0,0.0,10.5602,10.621,10.6708,10.6708,10.6708,10.6518,10.5715,10.5487,10.5218,10.4484,10.4292,10.4212,10.4212,10.3599,10.271,10.1899,10.1101,10.0219,9.9175,9.9024,9.8521,9.7519,9.6824,9.6057,9.5179,9.4407,9.4059,9.4059,9.4059,9.3984,9.383,9.3136,9.3213,9.383,9.3022,9.221,9.1477,9.0588,8.9823,8.9177,8.8947,8.8945,8.9098,8.9705,8.9477,8.8868,8.8868,8.7711,8.613,8.532,8.4478,8.3599,8.2751,8.2479,8.2326,8.1631,8.1362,8.1285,8.14,8.1285,8.1131,8.1246,8.117,8.1093,8.1093,8.117,8.1246,8.1246,8.1246,8.1246,8.1246,8.117,8.1093,8.1093,8.1093,8.1093,8.1093,8.1093,8.0479,7.8867,7.8559,7.7946,7.6561,7.6529,7.5941,7.4341,7.4465,7.3437,7.082,7.0703,6.9609,6.7265,6.7226,6.6719,6.5586,6.4062,6.3242,6.2969,6.2226,6.1797,0.0,0.0,0.0,0.0,0.0,0.0,0.0,0.0,0.0,0.0,10.1101,10.2217,10.4102,10.4713,10.4982,10.4982,10.4982,10.4905,10.4487,10.3984,10.3405,10.2517,10.1981,10.1601,10.1101,10.0714,10.0289,9.9942,9.9137,9.8483,9.8096,9.7634,9.698,9.6139,9.5754,9.5138,9.4294,9.3907,9.3715,9.3715,9.3715,9.3213,9.2287,9.1941,9.221,9.2982,9.2133,9.1285,9.0434,9.0049,8.9438,8.8639,8.8175,8.8254,8.8677,8.8556,8.8286,8.7906,8.7404,8.6438,8.5205,8.386,8.3172,8.2712,8.1864,8.1631,8.1554,8.1208,8.1093,8.1208,8.1672,8.1439,8.1208,8.1672,8.1441,8.1093,8.1093,8.1093,8.1093,8.1093,8.1093,8.1093,8.1093,8.1093,8.1093,8.1093,8.1093,8.1093,8.1093,8.1093,8.0441,7.8675,7.859,7.7815,7.5733,7.5857,7.5341,7.3675,7.3308,7.2226,7.0117,6.957,6.832,6.6211,6.664,6.5976,6.414,6.3359,6.2734,6.2265,6.1875,6.1719,0.0,0.0,0.0,0.0,0.0,0.0,0.0,0.0,0.0,0.0,9.8793,9.956,10.2099,10.2794,10.2909,10.2599,10.2794,10.2909,10.2599,10.202,10.1404,10.0707,10.0099,9.9526,9.887,9.8598,9.8483,9.8483,9.7673,9.7209,9.7209,9.6401,9.5675,9.5027,9.4604,9.4063,9.3405,9.3174,9.2943,9.2749,9.2749,9.1864,9.0246,9.0246,9.0477,9.0864,9.0633,9.0054,8.9242,8.9049,8.8476,8.7637,8.6752,8.6829,8.7369,8.7134,8.6786,8.6403,8.6168,8.5282,8.4014,8.2708,8.2172,8.1864,8.1285,8.1093,8.1093,8.1093,8.1093,8.1246,8.1825,8.1556,8.1246,8.1862,8.1556,8.1093,8.1093,8.1093,8.1093,8.1093,8.1093,8.1093,8.1093,8.1093,8.1093,8.1093,8.1093,8.1093,8.1093,8.09,8.0206,7.8746,7.8348,7.7337,7.5335,7.5222,7.4556,7.2853,7.2288,7.1133,6.9258,6.832,6.7031,6.5312,6.5703,6.4961,6.3008,6.2773,6.2344,6.1719,6.1719,6.1719,0.0,0.0,0.0,0.0,0.0,0.0,0.0,0.0,0.0,9.8793,9.8793,9.8868,9.9024,9.9757,9.9988,9.9216,9.9757,9.9988,9.9178,9.9024,9.8985,9.8945,9.8906,9.8868,9.8793,9.8057,9.7557,9.7557,9.6824,9.6362,9.6362,9.5523,9.5066,9.4989,9.3446,9.2597,9.2559,9.1748,9.0936,9.0088,9.0088,8.9205,8.7596,8.7596,8.7171,8.6515,8.8137,8.8329,8.7478,8.663,8.582,8.5012,8.4136,8.3832,8.4061,8.5591,8.5172,8.4022,8.5555,8.4478,8.2402,8.2326,8.1787,8.1131,8.1093,8.1093,8.1093,8.1093,8.1093,8.1093,8.1131,8.1131,8.1093,8.1131,8.1131,8.1093,8.1093,8.1093,8.1093,8.1093,8.1093,8.1093,8.1093,8.1093,8.1093,8.1093,8.1093,8.1093,8.1093,8.0398,7.9585,7.8844,7.7368,7.6212,7.5615,7.4824,7.3692,7.2138,7.2031,7.0898,6.8359,6.7422,6.6133,6.4414,6.3594,6.3125,6.3008,6.2187,6.1758,6.1719,6.1719,6.1719,0.0,0.0,0.0,0.0,0.0,8.9554,9.2398,9.4751,9.6372,9.6372,9.679,9.7211,9.7211,9.8329,9.9178,9.8868,9.9062,9.9178,9.8829,9.8793,9.8598,9.8019,9.798,9.775,9.725,9.6901,9.6747,9.6747,9.6476,9.6057,9.5485,9.5179,9.4525,9.3446,9.2828,9.1979,9.0821,9.0017,8.9173,8.8284,8.8284,8.7438,8.5784,8.5784,8.5324,8.452,8.5176,8.5559,8.5784,8.5474,8.4822,8.4018,8.3714,8.3599,8.3678,8.4251,8.4138,8.3601,8.3634,8.3054,8.221,8.171,8.1323,8.1093,8.1093,8.1093,8.1093,8.1093,8.1093,8.1093,8.1093,8.1093,8.1093,8.1093,8.1093,8.1093,8.1093,8.1093,8.1093,8.1093,8.1093,8.1093,8.1093,8.1093,8.1093,8.1093,8.1093,8.1093,8.1093,8.0463,7.9488,7.8127,7.7209,7.5925,7.4103,7.3773,7.2966,7.1289,7.0625,6.9687,6.8242,6.6836,6.5508,6.4336,6.3437,6.2734,6.2148,6.1836,6.1719,6.1719,6.1719,6.1719,0.0,0.0,0.0,0.0,0.0,8.413,8.9513,0.0,9.2832,9.4256,9.5254,9.5942,9.6247,9.7209,9.7942,9.7942,9.8175,9.8252,9.7983,9.7942,9.775,9.7173,9.7093,9.6786,9.5944,9.5865,9.5865,9.5865,9.5865,9.5598,9.5025,9.4717,9.3676,9.1708,9.1631,9.0782,8.9088,8.8829,8.7983,8.6553,8.6824,8.5938,8.4014,8.4014,8.3555,8.2751,8.2751,8.3403,8.4437,8.4168,8.3672,8.3137,8.2868,8.2751,8.2789,8.3058,8.2984,8.2712,8.2402,8.2133,8.1823,8.1285,8.1093,8.1093,8.1093,8.1093,8.1093,8.1093,8.1093,8.1093,8.1093,8.1093,8.1093,8.1093,8.1093,8.1093,8.1093,8.1093,8.1093,8.1093,8.1093,8.1093,8.1093,8.1093,8.1093,8.1093,8.1093,8.1014,8.0775,7.9873,7.8735,7.7435,7.6258,7.4922,7.3253,7.2692,7.1797,7.0351,6.9453,6.8633,6.7812,6.6094,6.4883,6.4297,6.3164,6.2265,6.1719,6.1719,6.1719,6.1719,6.1719,6.1719,0.0,0.0,0.0,0.0,0.0,0.0,8.7355,8.8244,8.8365,9.2638,9.4179,9.5061,9.6055,9.6245,9.6247,9.6245,9.6901,9.7209,9.6401,9.6285,9.6247,9.6247,9.6245,9.5903,9.5027,9.4951,9.4951,9.4951,9.4951,9.4951,9.4912,9.4061,9.2441,8.9972,8.9816,8.9013,8.7365,8.8139,8.7288,8.4818,8.5628,8.4668,8.2249,8.2249,8.1825,8.1093,8.1093,8.2018,8.3445,8.2595,8.2249,8.2172,8.14,8.1093,8.1208,8.1977,8.1787,8.1208,8.1979,8.1747,8.1093,8.1093,8.1093,8.1093,8.1093,8.1093,8.1093,8.1093,8.1093,8.1093,8.1093,8.1093,8.1093,8.1093,8.1093,8.1093,8.1093,8.1093,8.1093,8.1093,8.1093,8.1131,8.1131,8.1131,8.1131,8.1131,8.1093,8.0854,8.0181,7.8583,7.7322,7.6928,7.4564,7.306,7.3199,7.168,7.0312,6.9414,6.8633,6.7812,6.6953,6.5234,6.4336,6.4297,6.2617,6.1719,6.1719,6.1719,6.1719,6.1719,6.1719,6.1719,6.1093,0.0,0.0,0.0,0.0,0.0,7.774,7.9977,8.2522,8.8019,8.9329,9.0522,9.3828,9.4944,9.5138,9.4521,9.5672,9.6555,9.6322,9.5752,9.5371,9.5371,9.479,9.4328,9.4061,9.4061,9.4061,9.4061,9.4061,9.3792,9.3213,9.1785,9.0629,8.9932,8.8126,8.6936,8.6476,8.5482,8.433,8.3016,8.3247,8.2672,8.1439,8.1439,8.1323,8.1093,8.1093,8.1364,8.1787,8.1518,8.1439,8.14,8.121,8.1093,8.1131,8.1362,8.1285,8.1131,8.1362,8.1285,8.1093,8.1093,8.1093,8.1093,8.1093,8.1212,8.1329,8.1329,8.1329,8.1291,8.1133,8.1093,8.1093,8.1093,8.1093,8.1133,8.1291,8.1329,8.1329,8.1329,8.1449,8.1529,8.1529,8.1529,8.1529,8.1529,8.1012,8.0537,8.0338,7.8404,7.6776,7.6052,7.4303,7.2723,7.1523,7.0976,7.0078,6.8633,6.832,6.7812,6.6953,6.582,6.4922,6.4297,6.3203,6.2344,6.1719,6.1719,6.1719,6.1719,6.1719,6.1719,0.0,0.0,0.0,0.0,0.0,0.0,7.4437,7.6092,7.8325,8.4978,8.663,8.7827,9.1022,9.2599,9.3369,9.3213,9.4326,9.5326,9.5711,9.5333,9.4989,9.4989,9.4217,9.3559,9.3213,9.3213,9.3213,9.3213,9.3213,9.2828,9.2018,9.0665,8.9393,8.8357,8.6859,8.5589,8.4516,8.3905,8.2984,8.1785,8.2133,8.1864,8.1093,8.1093,8.1093,8.1093,8.1093,8.1093,8.1093,8.1093,8.1093,8.1093,8.1093,8.1093,8.1093,8.1093,8.1093,8.1093,8.1093,8.1093,8.1093,8.1093,8.1093,8.1093,8.1093,8.1171,8.1252,8.1252,8.1252,8.125,8.1131,8.1093,8.1093,8.1093,8.1171,8.125,8.137,8.1529,8.1632,8.1549,8.1604,8.1683,8.1683,8.1683,8.1683,8.1683,8.0973,8.0159,7.9512,7.7639,7.5926,7.4761,7.3205,7.1797,7.0781,7.0078,6.9258,6.8242,6.7851,6.7422,6.6914,6.6055,6.5195,6.4336,6.3437,6.2578,6.1719,6.1719,6.1719,6.1719,6.1719,6.1719,0.0,0.0,0.0,0.0,0.0,0.0,7.4056,7.4207,7.4701,8.1973,8.3974,8.5055,8.7177,8.9019,9.04,9.0979,9.2328,9.3674,9.4835,9.4835,9.4717,9.4717,9.3946,9.3097,9.2287,9.221,9.2172,9.2097,9.2097,9.1712,9.0823,8.9934,8.8395,8.6051,8.5784,8.4593,8.2326,8.2984,8.2558,8.1093,8.1825,8.1785,8.1093,8.1093,8.1093,8.1093,8.1093,8.1093,8.1093,8.1093,8.1093,8.1093,8.1093,8.1093,8.1093,8.1093,8.1093,8.1093,8.1093,8.1093,8.1093,8.1093,8.1093,8.1093,8.1093,8.1131,8.1131,8.1131,8.1133,8.1171,8.1093,8.1093,8.1093,8.1131,8.1252,8.141,8.1451,8.1766,8.194,8.1801,8.1767,8.1788,8.1788,8.1788,8.1749,8.1631,8.0808,7.9652,7.8201,7.6451,7.4795,7.3314,7.168,7.0625,7.043,6.9062,6.8164,6.8047,6.7344,6.6914,6.6914,6.6172,6.5312,6.4453,6.3594,6.2734,6.1836,6.1758,6.1719,6.1719,6.1719,6.1719,0.0,0.0,0.0,0.0,0.0,0.0,6.7128,6.7245,6.8784,7.3672,7.4247,7.5207,7.9675,8.2443,8.3632,8.2473,8.6972,9.1669,9.4602,9.3833,9.2982,9.2982,9.221,9.1359,9.0472,9.0396,9.0131,8.9483,8.9445,8.906,8.8173,8.7322,8.632,8.5164,8.3783,8.2787,8.2287,8.1825,8.1402,8.1093,8.1246,8.1246,8.1093,8.1093,8.1093,8.1093,8.1093,8.1093,8.1093,8.1093,8.1093,8.1093,8.1093,8.1093,8.1093,8.1093,8.1093,8.1093,8.1093,8.1093,8.1093,8.1093,8.1093,8.1093,8.1093,8.1212,8.1331,8.1331,8.1451,8.1527,8.1171,8.1093,8.1133,8.1291,8.137,8.1489,8.1807,8.1926,8.2053,8.2168,8.2191,8.2176,8.2176,8.2176,8.1941,8.1238,7.9832,7.8497,7.7493,7.5261,7.3369,7.2343,7.1328,7.0156,6.8789,6.8398,6.789,6.7187,6.6992,6.6914,6.6914,6.6758,6.625,6.5351,6.4492,6.3633,6.2734,6.2031,6.1719,6.1719,6.1719,6.1719,0.0,0.0,0.0,6.5205,0.0,0.0,0.0,6.6514,6.7093,7.1327,7.1208,7.1474,7.5284,7.7748,7.9438,8.0321,8.4014,8.7632,9.0212,9.1325,9.1864,9.1864,9.0712,8.9789,8.9323,8.89,8.8476,8.8098,8.7634,8.7211,8.6786,8.5976,8.4937,8.363,8.2747,8.2095,8.171,8.1285,8.1093,8.1093,8.0667,8.0667,8.1093,8.0667,8.0706,8.1093,8.1093,8.1093,8.1093,8.1093,8.1093,8.1093,8.1093,8.1093,8.1093,8.1093,8.1093,8.1093,8.1093,8.1093,8.1093,8.1093,8.1093,8.1093,8.1093,8.125,8.1387,8.1411,8.1538,8.1647,8.1331,8.1329,8.141,8.1529,8.1647,8.1766,8.1964,8.2084,8.204,8.1709,8.1652,8.164,8.164,8.164,8.1211,7.9922,7.8672,7.7383,7.6055,7.4375,7.2812,7.1484,7.05,6.9482,6.8319,6.7695,6.7265,6.6914,6.6914,6.6914,6.6914,6.6914,6.6484,6.5625,6.4726,6.3867,6.3008,6.3008,6.2539,6.1719,6.1719,6.1719,0.0,0.0,0.0,0.0,0.0,6.6934,0.0,0.0,0.0,6.9863,6.9552,6.9358,0.0,7.328,7.5397,7.7977,8.0481,8.2556,8.3745,8.6707,8.9054,8.9898,8.8942,8.8139,8.7983,8.6906,8.6326,8.6634,8.5709,8.5207,8.5361,8.4745,8.3668,8.2133,8.2056,8.1749,8.1093,8.1093,8.1093,8.1093,8.0398,8.0435,8.1093,8.0358,8.0435,8.1093,8.1093,8.1093,8.1093,8.1093,8.1093,8.1093,8.1093,8.1093,8.1093,8.1093,8.1093,8.1093,8.1093,8.1093,8.1093,8.1093,8.1131,8.1171,8.1171,8.1291,8.1457,8.1456,8.1565,8.1645,8.1485,8.1563,8.1722,8.1764,8.1766,8.1775,8.1789,8.1805,8.1585,8.0884,8.0742,8.0742,8.0742,8.0625,8.0,7.8476,7.7344,7.6133,7.4531,7.3437,7.2185,7.0594,6.9519,6.8663,6.7912,6.7065,6.668,6.6836,6.6875,6.6914,6.6914,6.6914,6.6562,6.5859,6.5156,6.4297,6.3242,6.414,6.3555,6.1719,6.1875,6.1875,0.0,0.0,0.0,0.0,7.0933,0.0,0.0,0.0,6.6478,6.4662,0.0,6.528,0.0,0.0,0.0,6.8747,7.3285,7.6669,7.6088,7.8286,8.1364,8.5166,8.6089,8.613,8.5397,8.3206,8.2441,8.3907,8.2556,8.1977,8.2672,8.2631,8.2172,8.1285,8.1246,8.1208,8.1093,8.1093,8.1093,8.1093,8.1016,8.1014,8.1093,8.1016,8.1014,8.1093,8.1093,8.1093,8.1093,8.1093,8.1093,8.1093,8.1093,8.1093,8.1093,8.1093,8.1093,8.1093,8.1093,8.1093,8.1093,8.1093,8.1212,8.137,8.137,8.1527,8.1653,8.1688,8.1682,8.1695,8.165,8.1687,8.1733,8.1937,8.137,8.0916,8.1098,8.053,7.9989,7.9882,7.9844,7.9844,7.9844,7.9258,7.8476,7.75,7.5937,7.4531,7.3555,7.1992,7.0576,6.9504,6.8565,6.7667,6.67,6.6601,6.6601,6.664,6.6797,6.6914,6.6914,6.6914,6.6836,6.6758,6.664,6.5781,6.414,6.5039,6.414,6.1719,6.25,6.2422,0.0,0.0,0.0,0.0,0.0,0.0,6.7585,0.0,6.5476,0.0,0.0,0.0,0.0,0.0,0.0,0.0,7.0706,7.2397,7.2474,7.3439,7.5864,8.0633,8.0631,8.0477,8.1133,8.0669,8.0862,8.2058,8.0558,8.0173,8.1518,8.1595,8.1439,8.1093,8.1093,8.1093,8.1093,8.1093,8.1093,8.1093,8.0591,8.0591,8.1093,8.0591,8.0629,8.1093,8.1093,8.1093,8.1093,8.1093,8.1093,8.1093,8.1093,8.1093,8.1093,8.1093,8.1093,8.1093,8.1093,8.1093,8.1093,8.1093,8.125,8.1391,8.1414,8.1616,8.1839,8.1723,8.1879,8.1904,8.1295,8.1209,8.1175,8.0788,8.0401,8.0124,8.023,7.9961,7.9414,7.8437,7.8242,7.793,7.6914,7.7305,7.7109,7.5234,7.4297,7.3359,7.1953,7.1133,7.0184,6.8758,6.817,6.7566,6.6772,6.6634,6.6663,6.6757,6.6836,6.6914,6.6914,6.6914,6.6914,6.6914,6.6914,6.6289,6.5078,6.5937,6.5,6.2461,6.2812,6.2539,7.2474,0.0,0.0,0.0,0.0,0.0,0.0,0.0,0.0,0.0,0.0,0.0,0.0,0.0,0.0,0.0,0.0,6.8783,6.9129,6.9167,7.09,7.5558,7.5824,7.6207,7.7673,7.7975,7.8511,7.9631,7.7865,7.7828,8.0248,8.0402,8.0592,8.1093,8.1093,8.1093,8.1093,8.1093,8.0977,8.0746,8.0321,8.0358,8.0746,8.0321,8.0514,8.1093,8.1093,8.1093,8.1093,8.1093,8.1093,8.1093,8.1093,8.1093,8.1093,8.1093,8.1093,8.1093,8.1093,8.1093,8.1093,8.1093,8.125,8.1394,8.1398,8.1659,8.186,8.1511,8.163,8.1649,8.0681,8.0534,8.0469,7.9844,7.9336,7.9062,7.9336,7.8828,7.8008,7.7031,7.664,7.6015,7.4492,7.5273,7.5508,7.3594,7.289,7.2148,7.0859,7.0312,6.9531,6.8242,6.7781,6.7346,6.6793,6.6678,6.6675,6.6873,6.6914,6.6914,6.6914,6.6914,6.6914,6.6914,6.6914,6.6484,6.5586,6.625,6.5312,6.3008,6.3242,6.2773,0.0,0.0,0.0,7.2131,0.0,0.0,0.0,0.0,6.8821,0.0,0.0,0.0,0.0,0.0,0.0,0.0,0.0,0.0,0.0,6.4817,6.6088,6.9589,7.2818,7.5088,7.5976,7.4626,7.4395,7.6053,7.3825,7.4212,7.8367,7.8598,7.9367,8.1054,8.1093,8.1093,8.1093,8.1093,8.0669,7.9856,8.0667,8.0629,7.9858,8.0706,8.1054,8.1093,8.1093,8.1093,8.1093,8.1093,8.1093,8.1093,8.1093,8.1093,8.1093,8.1093,8.1093,8.1093,8.1093,8.1093,8.1093,8.1093,8.125,8.1394,8.1398,8.154,8.1567,8.0918,8.0758,8.0589,7.9912,7.9726,7.9726,7.9726,7.8476,7.75,7.8359,7.6562,7.5,7.5781,7.5273,7.4414,7.3515,7.3398,7.3398,7.332,7.1875,7.0742,7.0703,6.9297,6.8203,6.793,6.713,6.6567,6.6411,6.6522,6.6675,6.6873,6.6914,6.6914,6.6914,6.6914,6.6914,6.6914,6.6914,6.6484,6.5586,6.5625,6.4726,6.3008,6.3867,6.3359,0.0,0.0,7.8282,7.3741,0.0,0.0,0.0,0.0,0.0,0.0,0.0,0.0,0.0,0.0,0.0,0.0,0.0,0.0,0.0,6.2438,6.2937,6.52,6.8972,0.0,7.101,7.1472,7.2245,7.3402,7.2131,7.2708,7.5822,7.7596,7.8754,7.9365,8.0517,8.1093,8.1093,8.1093,8.0937,8.0667,8.0977,8.0937,8.0667,8.0977,8.1093,8.1093,8.1093,8.1093,8.1093,8.1093,8.1093,8.1093,8.1093,8.1093,8.1093,8.1093,8.1093,8.1093,8.1093,8.1093,8.1093,8.1093,8.1331,8.1483,8.0754,8.1279,8.1765,8.0269,8.0339,8.0599,7.9253,7.8476,7.789,7.7305,7.6328,7.5547,7.5859,7.5234,7.4531,7.4219,7.3945,7.3476,7.2578,7.2422,7.2422,7.2422,7.1953,7.1133,7.0,6.9336,6.875,6.8164,6.7333,6.7002,6.7549,6.7113,6.6816,6.6914,6.6914,6.6914,6.6914,6.6914,6.6914,6.6914,6.6914,6.6484,6.5586,6.5586,6.4687,6.3008,6.3281,6.2812,7.8252,7.8902,0.0,7.5319,7.4395,0.0,6.9361,0.0,7.0975,0.0,0.0,0.0,0.0,0.0,0.0,0.0,0.0,0.0,0.0,6.1133,6.1321,6.2704,0.0,0.0,0.0,6.8744,6.9669,6.994,6.9438,7.0244,7.2782,7.5322,7.7134,7.8023,7.9748,8.0785,8.1093,8.1093,8.0937,8.0629,8.0937,8.0937,8.0667,8.0977,8.1093,8.1093,8.1093,8.1093,8.1093,8.1093,8.1093,8.1093,8.1093,8.1093,8.1093,8.1093,8.1093,8.1093,8.1093,8.1133,8.1212,8.1212,8.1212,8.1108,8.0437,8.0688,8.1014,7.9744,7.9501,7.9414,7.832,7.7148,7.6133,7.5586,7.4765,7.4219,7.4531,7.4101,7.3594,7.3359,7.3047,7.2656,7.2109,7.1758,7.164,7.1953,7.1758,7.1015,6.9609,6.9414,6.9101,6.8281,6.7969,6.789,6.8164,6.7383,6.6914,6.6914,6.6914,6.6914,6.6914,6.6914,6.7031,6.7344,6.6758,6.6328,6.6055,6.5117,6.4088,6.2935,6.2645,6.2226]},{"header":{"parameterUnit":"m.s-1","parameterCategory":1,"la1":30.6,"la2":29.2853,"lo1":-89.7004,"lo2":-87.6739,"dy":0.0162,"dx":0.0183,"nx":112,"ny":82,"refTime":"2024-02-17T06:00:00:Z","depth":0,"parameterNumber":3,"parameterNumberName":"V-component_of_WINDS"},"data":[0.0,0.0,0.0,0.0,0.0,0.0,0.0,0.0,0.0,0.0,0.0,0.0,0.0,0.0,0.0,0.0,0.0,0.0,0.0,0.0,0.0,0.0,0.0,0.0,0.0,0.0,0.0,0.0,0.0,0.0,0.0,0.0,0.0,0.0,0.0,0.0,0.0,0.0,0.0,0.0,0.0,0.0,0.0,0.0,0.0,0.0,0.0,0.0,0.0,0.0,0.0,0.0,0.0,0.0,0.0,0.0,0.0,0.0,0.0,0.0,0.0,0.0,0.0,0.0,0.0,0.0,0.0,0.0,0.0,0.0,0.0,0.0,0.0,0.0,0.0,0.0,0.0,0.0,0.0,0.0,0.0,0.0,0.0,0.0,0.0,0.0,0.0,0.0,0.0,0.0,0.0,0.0,0.0,0.0,0.0,0.0,0.0,0.0,0.0,0.0,0.0,0.0,0.0,0.0,0.0,0.0,0.0,0.0,0.0,0.0,0.0,0.0,0.0,0.0,0.0,0.0,0.0,0.0,0.0,0.0,0.0,0.0,0.0,0.0,0.0,0.0,0.0,0.0,0.0,0.0,0.0,0.0,0.0,0.0,0.0,0.0,0.0,0.0,0.0,0.0,0.0,0.0,0.0,0.0,0.0,0.0,0.0,0.0,0.0,0.0,0.0,0.0,0.0,0.0,0.0,0.0,0.0,0.0,0.0,0.0,0.0,0.0,0.0,0.0,0.0,0.0,0.0,0.0,0.0,0.0,0.0,0.0,0.0,0.0,0.0,0.0,0.0,0.0,0.0,0.0,0.0,0.0,0.0,0.0,0.0,0.0,0.0,0.0,0.0,0.0,0.0,0.0,0.0,0.0,0.0,0.0,0.0,0.0,0.0,0.0,0.0,0.0,0.0,0.0,0.0,0.0,0.0,0.0,0.0,0.0,0.0,0.0,0.0,0.0,0.0,0.0,0.0,0.0,0.0,0.0,0.0,0.0,0.0,0.0,0.0,0.0,0.0,0.0,0.0,0.0,0.0,0.0,0.0,0.0,0.0,0.0,0.0,0.0,0.0,0.0,0.0,0.0,0.0,0.0,0.0,0.0,0.0,0.0,0.0,0.0,0.0,0.0,0.0,0.0,0.0,0.0,0.0,0.0,0.0,0.0,0.0,0.0,0.0,0.0,0.0,0.0,0.0,0.0,0.0,0.0,0.0,0.0,0.0,0.0,0.0,0.0,0.0,0.0,0.0,0.0,0.0,0.0,0.0,0.0,0.0,0.0,0.0,0.0,0.0,0.0,0.0,0.0,0.0,0.0,0.0,0.0,0.0,0.0,0.0,0.0,0.0,0.0,0.0,0.0,0.0,0.0,0.0,0.0,0.0,0.0,0.0,0.0,0.0,0.0,0.0,0.0,0.0,0.0,0.0,0.0,0.0,0.0,0.0,0.0,0.0,0.0,0.0,0.0,0.0,0.0,0.0,0.0,0.0,0.0,0.0,0.0,0.0,0.0,0.0,0.0,0.0,0.0,0.0,0.0,0.0,0.0,0.0,0.0,0.0,0.0,0.0,0.0,0.0,0.0,0.0,0.0,0.0,0.0,0.0,0.0,0.0,0.0,0.0,0.0,0.0,0.0,0.0,0.0,0.0,0.0,0.0,0.0,0.0,0.0,0.0,0.0,0.0,0.0,0.0,0.0,0.0,0.0,0.0,0.0,0.0,0.0,0.0,0.0,0.0,0.0,0.0,0.0,0.0,0.0,0.0,0.0,0.0,0.0,0.0,0.0,0.0,0.0,0.0,0.0,0.0,0.0,0.0,0.0,0.0,0.0,0.0,0.0,0.0,0.0,0.0,0.0,0.0,0.0,0.0,0.0,0.0,0.0,0.0,0.0,0.0,0.0,0.0,0.0,0.0,0.0,0.0,0.0,0.0,0.0,0.0,0.0,0.0,0.0,0.0,0.0,0.0,0.0,0.0,0.0,0.0,0.0,0.0,0.0,0.0,0.0,0.0,0.0,0.0,0.0,0.0,0.0,0.0,0.0,0.0,0.0,0.0,0.0,0.0,0.0,0.0,0.0,0.0,0.0,0.0,0.0,0.0,0.0,0.0,0.0,0.0,0.0,0.0,0.0,0.0,0.0,0.0,0.0,0.0,0.0,0.0,0.0,0.0,0.0,0.0,0.0,0.0,0.0,0.0,0.0,0.0,0.0,0.0,0.0,0.0,0.0,0.0,0.0,0.0,0.0,0.0,0.0,0.0,0.0,0.0,0.0,0.0,0.0,0.0,0.0,0.0,0.0,0.0,0.0,0.0,0.0,0.0,0.0,0.0,0.0,0.0,0.0,0.0,0.0,0.0,0.0,0.0,0.0,0.0,0.0,0.0,0.0,0.0,0.0,0.0,0.0,0.0,0.0,0.0,0.0,0.0,0.0,0.0,0.0,0.0,0.0,0.0,0.0,0.0,0.0,0.0,0.0,0.0,0.0,0.0,0.0,0.0,0.0,0.0,0.0,0.0,0.0,0.0,0.0,0.0,0.0,0.0,0.0,0.0,0.0,0.0,0.0,0.0,0.0,0.0,0.0,0.0,0.0,0.0,0.0,0.0,0.0,0.0,0.0,0.0,0.0,0.0,0.0,0.0,0.0,0.0,0.0,0.0,0.0,0.0,0.0,0.0,0.0,0.0,0.0,0.0,0.0,0.0,0.0,0.0,0.0,0.0,0.0,0.0,0.0,0.0,0.0,0.0,0.0,0.0,0.0,0.0,0.0,0.0,0.0,0.0,0.0,0.0,0.0,0.0,0.0,0.0,0.0,0.0,0.0,0.0,0.0,0.0,0.0,0.0,0.0,0.0,0.0,0.0,0.0,0.0,0.0,0.0,0.0,0.0,0.0,0.0,0.0,0.0,0.0,0.0,0.0,0.0,0.0,0.0,0.0,0.0,0.0,0.0,0.0,0.0,0.0,0.0,0.0,0.0,0.0,0.0,0.0,0.0,0.0,0.0,0.0,0.0,0.0,0.0,0.0,0.0,0.0,0.0,0.0,0.0,0.0,0.0,0.0,0.0,0.0,0.0,0.0,0.0,0.0,0.0,0.0,0.0,0.0,0.0,0.0,0.0,0.0,0.0,0.0,0.0,0.0,0.0,0.0,0.0,0.0,0.0,0.0,0.0,0.0,0.0,0.0,0.0,0.0,0.0,0.0,0.0,0.0,0.0,0.0,0.0,0.0,0.0,0.0,0.0,0.0,0.0,0.0,0.0,0.0,0.0,0.0,0.0,0.0,0.0,0.0,0.0,0.0,0.0,0.0,0.0,0.0,0.0,0.0,0.0,0.0,0.0,0.0,0.0,0.0,0.0,0.0,0.0,0.0,0.0,0.0,0.0,0.0,0.0,0.0,0.0,0.0,0.0,0.0,0.0,0.0,0.0,0.0,0.0,0.0,0.0,0.0,0.0,0.0,0.0,0.0,0.0,0.0,0.0,0.0,0.0,0.0,0.0,0.0,0.0,0.0,0.0,0.0,0.0,0.0,0.0,0.0,0.0,0.0,0.0,0.0,0.0,0.0,0.0,0.0,0.0,0.0,0.0,0.0,0.0,0.0,0.0,0.0,0.0,0.0,0.0,0.0,0.0,0.0,0.0,0.0,0.0,0.0,0.0,0.0,0.0,0.0,0.0,0.0,0.0,0.0,0.0,0.0,0.0,0.0,0.0,0.0,0.0,0.0,0.0,0.0,0.0,0.0,0.0,0.0,0.0,0.0,0.0,0.0,0.0,0.0,0.0,0.0,0.0,0.0,0.0,0.0,0.0,0.0,0.0,0.0,0.0,0.0,0.0,0.0,0.0,0.0,0.0,0.0,0.0,0.0,0.0,0.0,0.0,0.0,0.0,0.0,0.0,0.0,0.0,0.0,0.0,0.0,0.0,0.0,0.0,0.0,0.0,0.0,0.0,0.0,0.0,0.0,0.0,0.0,0.0,0.0,0.0,0.0,0.0,0.0,0.0,0.0,0.0,0.0,0.0,0.0,0.0,0.0,0.0,0.0,0.0,0.0,0.0,0.0,0.0,0.0,0.0,0.0,0.0,0.0,0.0,0.0,0.0,0.0,0.0,0.0,0.0,0.0,0.0,0.0,0.0,0.0,0.0,0.0,0.0,0.0,0.0,0.0,0.0,0.0,0.0,0.0,0.0,0.0,0.0,0.0,0.0,0.0,0.0,0.0,0.0,0.0,0.0,0.0,0.0,0.0,0.0,0.0,0.0,0.0,0.0,0.0,0.0,0.0,0.0,0.0,0.0,0.0,0.0,0.0,0.0,0.0,0.0,0.0,0.0,0.0,0.0,0.0,0.0,0.0,0.0,0.0,0.0,0.0,0.0,0.0,0.0,0.0,0.0,0.0,0.0,0.0,0.0,0.0,0.0,0.0,0.0,0.0,0.0,0.0,0.0,0.0,0.0,0.0,0.0,0.0,0.0,0.0,0.0,0.0,0.0,0.0,0.0,0.0,0.0,0.0,0.0,0.0,0.0,0.0,0.0,0.0,0.0,0.0,0.0,0.0,0.0,0.0,0.0,0.0,0.0,0.0,0.0,0.0,0.0,0.0,0.0,0.0,0.0,0.0,0.0,0.0,0.0,0.0,0.0,0.0,0.0,0.0,0.0,0.0,0.0,0.0,0.0,0.0,0.0,0.0,0.0,0.0,0.0,0.0,0.0,0.0,0.0,0.0,0.0,0.0,0.0,0.0,0.0,0.0,0.0,0.0,0.0,0.0,0.0,0.0,0.0,0.0,0.0,0.0,0.0,0.0,0.0,0.0,0.0,0.0,0.0,0.0,0.0,0.0,0.0,0.0,0.0,0.0,0.0,0.0,0.0,0.0,0.0,0.0,0.0,0.0,0.0,0.0,0.0,0.0,0.0,0.0,0.0,0.0,0.0,0.0,0.0,0.0,0.0,0.0,0.0,0.0,0.0,0.0,0.0,0.0,0.0,0.0,0.0,0.0,0.0,0.0,0.0,0.0,0.0,0.0,0.0,0.0,0.0,0.0,0.0,0.0,0.0,0.0,0.0,0.0,0.0,0.0,0.0,0.0,0.0,0.0,0.0,0.0,0.0,0.0,0.0,0.0,0.0,0.0,0.0,0.0,0.0,0.0,0.0,0.0,0.0,0.0,0.0,0.0,0.0,0.0,0.0,0.0,0.0,0.0,0.0,0.0,0.0,0.0,0.0,0.0,0.0,0.0,0.0,0.0,0.0,0.0,0.0,0.0,0.0,0.0,0.0,0.0,0.0,0.0,0.0,0.0,0.0,0.0,0.0,0.0,0.0,0.0,0.0,0.0,0.0,0.0,0.0,0.0,0.0,0.0,0.0,0.0,0.0,0.0,0.0,0.0,0.0,0.0,0.0,0.0,0.0,0.0,0.0,0.0,0.0,0.0,0.0,0.0,0.0,0.0,0.0,0.0,0.0,0.0,0.0,0.0,0.0,0.0,0.0,0.0,0.0,0.0,0.0,0.0,0.0,0.0,0.0,0.0,0.0,0.0,0.0,0.0,0.0,0.0,0.0,0.0,0.0,0.0,0.0,0.0,0.0,0.0,0.0,0.0,0.0,0.0,0.0,0.0,0.0,0.0,0.0,0.0,0.0,0.0,0.0,0.0,0.0,0.0,0.0,0.0,1.3532,0.0,0.0,0.0,0.0,0.0,0.0,0.0,0.0,0.0,0.0,0.0,0.0,0.0,0.0,0.0,0.0,0.0,0.0,0.0,0.0,0.0,0.0,0.0,0.0,0.0,0.0,0.0,0.0,0.0,0.0,0.0,0.0,0.0,0.0,0.0,0.0,0.0,0.0,0.0,0.0,0.0,0.0,0.0,0.0,0.0,0.0,0.0,0.0,0.0,0.0,0.0,0.0,0.0,0.0,0.0,0.0,0.0,0.0,0.0,0.0,0.0,0.0,0.0,0.0,0.0,0.0,0.0,0.0,0.0,0.0,0.0,0.0,0.0,0.0,0.0,0.0,0.0,0.0,0.0,0.0,0.0,0.0,0.0,0.0,0.0,0.0,0.0,0.0,0.0,0.0,0.0,0.0,0.0,0.0,0.0,0.0,0.0,0.0,0.0,0.0,0.0,0.0,0.0,0.0,0.0,0.0,0.0,0.0,0.0,0.0,0.0,0.0,1.3833,0.0,0.0,0.0,0.0,0.0,0.0,0.0,0.0,0.0,0.0,0.0,0.0,0.0,0.0,0.0,0.0,0.0,0.0,0.0,0.0,0.0,0.0,0.0,0.0,0.0,0.0,0.0,0.0,0.0,0.0,0.0,0.0,0.0,0.0,0.0,0.0,0.0,0.0,0.0,0.0,0.0,0.0,0.0,0.0,0.0,0.0,0.0,0.0,0.0,0.0,0.0,0.0,0.0,0.0,0.0,0.0,0.0,0.0,0.0,0.0,0.0,0.0,0.0,0.0,0.0,0.0,0.0,0.0,0.0,0.0,0.0,0.0,0.0,0.0,0.0,0.0,0.0,0.0,0.0,0.0,0.0,0.0,0.0,0.0,0.0,0.0,0.0,0.0,0.0,0.0,0.0,0.0,0.0,0.0,0.0,0.0,0.0,0.0,0.0,0.0,0.0,0.0,0.0,0.0,1.5238,1.5313,1.5396,1.5513,1.5513,1.5403,1.4903,1.443,1.4015,0.0,0.0,0.0,0.0,0.0,0.0,0.0,0.0,0.0,0.0,0.0,0.0,0.0,0.0,0.0,0.0,0.0,0.0,0.0,0.0,0.0,0.0,0.0,0.0,0.0,1.342,1.3285,0.0,0.0,0.0,0.0,0.0,0.0,0.0,0.0,0.0,0.0,0.0,0.0,0.013,0.0,0.0,0.0,0.0,0.0,0.0,0.0,0.0,0.0,0.0,0.0,0.0,0.0,0.0,0.0,0.0,0.0,0.0,0.0,0.0,0.0,0.0,0.0,0.0,0.0,0.0,0.0,0.0,0.0,0.0,0.0,0.0,0.0,0.0,0.0,0.0,0.0,0.0,0.0,0.0,0.0,0.0,0.0,1.2911,1.3095,0.0,0.0,0.0,0.0,0.0,0.0,0.0,0.0,0.0,0.0,0.0,0.0,0.0,1.4995,1.525,1.5681,1.5905,1.5965,1.6191,1.6247,1.6164,1.6172,1.6233,1.6315,1.6234,0.0,1.4805,1.4448,0.0,0.0,0.0,0.0,0.0,0.0,0.0,0.0,0.0,0.0,0.0,0.0,0.0,0.0,0.0,0.0,0.0,0.0,0.0,0.0,0.0,0.0,1.3571,1.3429,1.3487,1.3518,0.0,1.275,1.2189,1.1948,1.1304,0.0,0.0,0.0,0.0,0.0,0.0,0.0,0.0631,0.0,0.0,0.0,0.0,0.0,0.0,0.0,0.0,0.0,0.0,0.0,0.0,0.0,0.0,0.0,0.0,0.0,0.0,0.0,0.0,0.0,0.0,0.0,0.0,0.0,0.0,0.0,0.0,0.0,0.0,0.0,0.0,0.0,0.0,0.0,0.0,0.0,0.0,0.0,0.0,0.0,0.0,1.2786,1.3271,1.341,1.3538,1.3522,0.0,0.0,0.0,0.0,0.0,0.0,0.0,0.0,0.0,1.5494,1.5799,1.6145,1.6524,1.6796,1.7046,1.7222,1.727,1.7304,1.7311,1.7236,1.7175,1.7115,1.7115,1.6681,1.5914,1.5403,1.5023,1.4738,0.0,0.0,0.0,0.0,1.4198,1.4232,1.4293,1.4182,0.0,1.398,0.0,0.0,0.0,0.0,0.0,0.0,0.0,0.0,0.0,0.0,1.4216,1.4512,1.4474,1.4319,1.4064,1.3527,1.2978,0.0,1.2395,1.222,1.1881,0.0,0.0,0.0,0.0,1.1613,0.9783,0.3958,0.0,0.0,0.0,0.0,0.0,0.0,0.0,0.0,0.0,0.0,0.0,0.0,0.0,0.0,0.0,0.0,0.0,0.0,0.0,0.0,0.0,0.0,0.0,0.0,0.0,0.0,0.0,0.0,0.0,0.0,0.0,0.0,0.0,0.0,0.0,0.0,0.0,0.0,0.0,0.0,0.0,1.3322,1.3804,1.3782,1.4107,1.4152,0.0,0.0,0.0,0.0,0.0,0.0,1.5091,1.5685,1.622,1.6693,1.7006,1.7365,1.7812,1.7941,1.813,1.8375,1.8281,1.8247,1.8281,1.8207,1.8057,1.7839,1.7839,1.7534,1.6993,1.6292,1.5699,1.5184,1.4814,1.4645,1.459,1.4647,1.4742,1.4832,1.4832,1.4742,1.4602,1.4396,0.0,1.3752,1.3584,0.0,0.0,0.0,0.0,1.3862,1.4218,1.4482,1.481,1.5352,1.5309,1.5057,1.4706,1.4356,1.3823,0.0,1.2891,1.2818,1.2014,0.0,0.0,0.0,0.0,1.556,1.6568,0.9467,0.3229,0.0305,0.0,0.0,0.0,0.0,0.0,0.0,0.0,0.0,0.0,0.0,0.0,0.0,0.0,0.0,0.0,0.0,0.0,0.0,0.0,0.0,0.0,0.0,0.0,0.0,0.0,0.0,0.0,0.0,0.0,0.0,0.0,0.0,0.0,0.0,0.0,0.0,0.0,0.0,0.0,0.0,0.0,1.4319,1.517,0.0,0.0,0.0,0.0,1.4905,1.5304,1.574,1.6192,1.6788,1.7337,1.7799,1.8199,1.8571,1.8919,1.9046,1.9128,1.9134,1.9143,1.9007,1.8772,1.89,1.8761,1.8449,1.8449,1.8287,1.7948,1.6755,1.6109,1.5813,1.5347,1.5247,1.5325,1.5213,1.5165,1.5172,1.5172,1.5089,1.4966,1.4964,1.4636,1.4292,1.4396,1.4121,0.0,0.0,1.4013,1.4272,1.4295,1.4726,1.5218,1.5376,1.5494,1.5462,1.5057,1.4964,1.4586,0.0,1.2929,1.2709,1.2656,0.0,1.3084,1.3522,1.4509,1.5363,1.5799,1.6024,1.2,0.1155,0.0,0.0,0.0,0.0,0.0,0.0,0.0,0.0,0.0,0.0,0.0,0.0,0.0,0.0,0.0,0.0,0.0,0.0,0.0,0.0,0.0,0.0,0.0,0.0,0.0,0.0,0.0,0.0,0.0,0.0,0.0,0.0,0.0,0.0,0.0,0.0,0.0,0.0,0.0,0.0,0.0,1.5822,1.645,0.0,1.5916,1.5842,1.5975,1.6271,1.6781,1.7263,1.769,1.8213,1.8654,1.905,1.9287,1.9501,1.9713,1.9761,1.9786,1.9786,1.9693,1.955,1.9375,1.9291,1.91,1.8816,1.8728,1.8478,1.8057,1.7541,1.6917,1.6246,1.5912,1.5676,1.5536,1.5625,1.5712,1.579,1.5885,1.5824,1.5646,1.5247,1.4751,1.4306,1.436,1.4254,1.4125,1.4125,1.4432,1.4785,1.4964,1.523,1.5528,1.5784,1.5817,1.5695,1.533,1.5118,1.481,1.4156,1.3705,1.3352,1.3183,1.3135,1.3336,1.3966,1.4636,1.5286,1.5903,1.6585,1.4039,0.6302,0.2194,0.0,0.0,0.0,0.0,0.0,0.0,0.0,0.0,0.0,0.0,0.0,0.0,0.0,0.0,0.0,0.0,0.0,0.0,0.0,0.0,0.0,0.0,0.0,0.0,0.0,0.0,0.0,0.0,0.0,0.0,0.0,0.0,0.0,0.0,0.0,0.0,0.0,0.0,0.0,1.6667,1.685,1.7534,1.7765,1.7155,1.7142,1.7304,1.7589,1.8064,1.8498,1.8884,1.9291,1.9624,1.989,2.0031,2.0153,2.0225,2.0225,2.0212,2.0173,2.0085,1.9937,1.9763,1.9624,1.9413,1.9128,1.9041,1.8757,1.8315,1.8173,1.7663,1.6937,1.6604,1.6307,1.6091,1.6223,1.6278,1.632,1.6397,1.6348,1.6157,1.5722,1.5194,1.4742,1.4742,1.4679,1.4597,1.4597,1.4889,1.5242,1.5426,1.5623,1.5826,1.6048,1.6026,1.5856,1.5474,1.5255,1.5009,1.4579,1.4209,1.3897,1.3668,1.3638,1.3841,1.4446,1.4921,1.5445,1.6156,1.6612,1.5486,1.1762,0.4545,0.0,0.0,0.0,0.0,0.0,0.0,0.0,0.0,0.0,0.0,0.0,0.0,0.0,0.0,0.0,0.0,0.0,0.0,0.0,0.0,0.0,0.0,0.0,0.0,0.0,0.0,0.0,0.0,0.0,0.0,0.0,0.0,0.0,0.0,0.0,0.0,0.0,1.5258,1.6627,1.7561,1.7317,1.8443,1.8905,1.8065,1.8321,1.8626,1.8825,1.9096,1.9394,1.9723,1.9976,2.0187,2.0318,2.044,2.0508,2.0508,2.0492,2.0424,2.0313,2.0313,2.0173,1.9903,1.9903,1.9732,1.9417,1.9402,1.9183,1.8791,1.8585,1.8267,1.7854,1.7392,1.7127,1.7011,1.7011,1.6877,1.6702,1.6702,1.6621,1.6478,1.6348,1.599,1.5612,1.5612,1.5433,1.5231,1.522,1.5413,1.5626,1.5626,1.586,1.6114,1.6114,1.6095,1.5973,1.5513,1.5399,1.5223,1.4627,1.4414,1.4276,1.4131,1.433,1.4618,1.4964,1.5345,0.0,1.6417,1.6616,1.6776,1.696,0.6956,0.0199,0.0012,0.0,0.0,0.0,0.0,0.0,0.0,0.0,0.0,0.0,0.0,0.0,0.0,0.0,0.0,0.0,0.0,0.0,0.0,0.0,0.0,0.0,0.0,0.0,0.0,0.0,0.0,0.0,0.0,0.0,0.0,0.0,0.0,0.0,0.0,1.6341,1.6482,1.7717,1.8796,1.9257,1.9717,1.9891,1.9663,1.9556,1.9569,1.9727,1.9995,2.0245,2.049,2.0664,2.077,2.0804,2.0756,2.0718,2.0718,2.0562,2.0478,2.0453,2.0453,2.0368,2.0191,2.0191,2.0031,1.9761,1.9659,1.936,1.8933,1.8777,1.8458,1.8002,1.7636,1.7351,1.7147,1.7147,1.7052,1.6917,1.6917,1.6802,1.6621,1.6485,1.6232,1.594,1.5849,1.5824,1.5824,1.5733,1.5973,1.6227,1.6126,1.6172,1.6246,1.6246,1.6177,1.6,1.5624,1.5469,1.5284,1.4928,1.4726,1.4514,1.4278,1.4387,1.4652,1.5089,1.553,0.0,1.6443,1.6619,1.6683,1.6634,1.0351,0.4483,0.0352,0.0,0.0,0.0,0.0,0.0,0.0,0.0,0.0,0.0,0.0,0.0,0.0,0.0,0.0,0.0,0.0,0.0,0.0,0.0,0.0,0.0,0.0,0.0,0.0,0.0,0.0,0.0,0.0,0.0,0.0,0.0,0.0,0.0,1.6688,1.7643,1.8213,1.9027,1.9786,2.0404,2.0629,2.0717,2.0596,2.0451,2.0383,2.0471,2.0612,2.0754,2.0874,2.0892,2.0949,2.1001,2.0874,2.0827,2.0874,2.07,2.0627,2.0612,2.0541,2.0458,2.0386,2.0331,2.0212,2.0066,1.9871,1.955,1.9154,1.8953,1.8614,0.0,0.0,0.0,0.0,0.0,1.7066,1.6991,1.6991,1.6924,1.6796,1.664,1.6443,1.6239,1.6114,1.6116,1.617,1.6094,1.6273,1.6477,1.6335,1.6294,1.6293,1.6232,1.6156,1.6014,1.5666,1.5543,1.5386,1.5061,1.4837,0.0,1.4493,1.4593,1.4855,1.5298,1.5594,1.5947,1.6443,1.6464,1.6465,1.6508,1.1582,0.6042,0.0467,0.0,0.0,0.0,0.0,0.0,0.0,0.0,0.0,0.0,0.0,0.0,0.0,0.0,0.0,0.0,0.0,0.0,0.0,0.0,0.0,0.0,0.0,0.0,0.0,0.0,0.0,0.0,0.0,0.0,0.0,0.0,0.0,0.0,1.7886,1.9066,2.0139,2.0404,2.0632,2.1034,2.1266,2.13,2.1068,2.1021,2.1001,2.1001,2.1021,2.1021,2.1021,0.0,0.0,0.0,0.0,2.0892,2.1021,2.0895,2.0806,2.0802,2.0612,2.0528,2.0492,2.0386,2.0318,2.03,2.0031,1.9747,1.9419,1.9143,1.8742,1.8273,1.8111,1.7778,1.7372,1.712,1.7005,1.6991,1.6991,0.0,0.0,1.6755,1.6606,1.6464,1.6321,1.6294,1.6321,1.6321,1.6436,1.6531,1.6402,1.6348,1.6287,1.6164,1.6116,1.6014,1.5666,1.5606,1.5489,1.5102,1.4882,1.476,1.478,1.4903,1.5131,1.5523,1.5619,1.5861,1.6416,1.6273,1.6219,1.6459,0.0,0.0,0.046,0.0,0.0,0.0,0.0,0.0,0.0,0.0,0.0,0.0,0.0,0.0,0.0,0.0,0.0,0.0,0.0,0.0,0.0,0.0,0.0,0.0,0.0,0.0,0.0,0.0,0.0,0.0,0.0,0.0,0.0,0.0,0.0,1.7832,1.8997,2.0173,2.1244,2.1512,2.158,2.1567,2.1475,2.1371,2.1337,2.1127,2.1001,2.1001,2.1109,2.1161,2.1161,2.1249,2.1303,2.132,2.1194,2.1143,2.1161,2.1034,2.0908,2.0802,0.0,0.0,2.0492,2.0474,2.0406,2.03,2.0139,1.9903,1.962,1.9291,1.8815,1.8259,1.7852,1.7575,1.7385,1.7216,1.7093,1.6991,1.6991,1.6991,1.6951,1.664,1.6518,1.6444,1.6205,1.6293,0.0,1.6457,1.6667,1.6896,1.6869,1.6666,1.6451,1.643,1.6252,1.6014,1.5666,1.5606,1.5504,1.522,1.5131,1.5133,1.525,1.5118,1.5102,1.5393,1.5764,1.6083,1.6308,1.6287,1.6302,1.6407,1.1374,0.5829,0.0456,0.0,0.0,0.0,0.0,0.0,0.0,0.0,0.0,0.0,0.0,0.0,0.0,0.0,0.0,0.0,0.0,0.0,0.0,0.0,0.0,0.0,0.0,0.0,0.0,0.0,0.0,0.0,0.0,1.5271,1.5973,0.0,1.7989,1.9025,2.0015,2.0946,2.1774,2.2025,2.2076,2.2004,2.1794,2.1621,2.1564,2.1337,2.1198,2.1198,2.1262,2.13,2.13,2.1303,2.1337,2.1408,2.1266,2.1228,2.1303,2.1177,2.1034,2.0895,2.0827,2.0682,2.0492,2.0492,2.0458,2.0386,2.0191,1.9992,1.9763,1.9218,1.8728,1.8273,1.7968,1.771,1.748,1.7277,1.7161,1.7086,1.7018,1.6991,1.6957,1.6688,1.6594,1.6553,1.6355,1.6443,1.6594,1.6594,1.6789,1.6978,1.6883,1.668,1.6478,1.6423,1.6246,1.6014,1.5666,1.5606,1.5523,1.5253,1.515,1.5158,1.5371,1.5289,1.5301,1.56,1.5911,1.615,1.628,1.6294,1.6243,1.6108,1.3669,0.8789,0.0685,0.0,0.0,0.0,0.0,0.0,0.0,0.0,0.0,0.0,0.0,0.0,0.0,0.0,0.0,0.0,0.0,0.0,0.0,0.0,0.0,0.0,0.0,0.0,0.0,0.0,1.4663,1.513,1.568,1.6382,1.7324,1.8111,1.8978,2.0083,2.0878,2.155,2.2113,2.2306,2.239,2.239,2.2127,2.1879,2.176,2.1581,2.1493,2.1462,2.1476,2.1493,2.1462,2.1357,2.1333,2.1408,2.1303,2.1286,2.1408,2.1286,2.1177,2.1034,2.0892,2.0736,2.0564,2.0528,2.0492,2.0494,2.0227,2.0012,1.9817,1.9124,1.864,1.8321,1.8158,1.7921,1.7636,1.7372,1.7243,1.7175,1.7073,1.7018,1.6971,1.6776,1.6696,1.6669,1.6539,1.6587,1.6696,1.6696,1.6837,1.6964,1.6803,1.6634,1.6464,1.6369,1.6224,1.6014,1.5666,1.5606,1.5523,1.5253,1.5116,1.5123,1.5364,1.5426,1.5547,1.5848,1.6033,1.617,1.6252,1.628,1.6193,1.5888,1.5932,1.1642,0.091,0.0,0.0,0.0,0.0,0.0,0.0,0.0,0.0,0.0,0.0,0.0,0.0,0.0,0.0,0.0,0.0,0.0,1.4212,1.3949,1.3941,1.4295,1.4403,1.4758,0.0,0.0,1.6247,1.6945,1.748,1.7982,1.8526,1.9218,1.9978,2.077,2.1424,2.1988,2.2484,2.266,2.2748,2.2748,2.2357,2.2025,2.1879,2.1865,2.1791,2.1685,2.1777,2.1791,2.1668,2.1655,2.1564,2.1408,2.1388,2.1371,2.1408,2.1388,2.13,2.1181,2.1034,2.0892,2.0752,2.0582,2.0492,2.0494,2.0227,1.9958,1.9674,1.9184,1.8776,1.8449,1.8199,1.8003,1.784,1.7636,1.7399,1.7202,1.7175,1.71,1.6971,1.6776,1.6696,1.6669,1.6539,1.6587,1.6696,1.6696,1.6837,1.6991,1.6971,1.6728,1.6504,1.6478,1.6286,1.6014,1.5666,1.5606,1.5523,1.5253,1.5191,1.5226,1.5365,1.5496,1.5657,1.5862,1.6121,1.6239,1.6136,1.6225,1.6233,1.6083,1.5769,1.1338,0.089,0.0,0.0,0.0,0.0,0.0,0.0,0.0,0.0,0.0,0.0,0.0,0.0,0.0,0.0,0.0,0.0,0.0,1.4735,1.4683,0.0,0.0,1.5352,1.5937,1.6554,1.6979,1.7365,1.7833,1.8511,1.9144,1.9498,2.0153,2.082,0.0,2.1916,2.2395,2.2677,2.2761,2.2727,2.2536,2.2272,2.2109,2.213,2.2055,2.1991,2.1937,2.1991,2.195,2.1811,2.1811,2.1777,2.1689,2.1689,2.1689,2.1689,2.1618,2.1496,2.13,2.1181,2.1017,2.0802,2.0718,2.0526,2.0259,2.0153,1.9834,1.9394,1.9197,1.883,1.8375,1.8253,1.8091,1.7888,1.7677,1.7487,1.7311,1.7222,1.7113,1.6998,1.6904,1.687,1.6857,1.6809,1.6836,1.687,1.687,1.6944,1.6991,1.6991,1.6754,1.6498,1.6498,1.6293,1.6014,1.5666,1.5606,1.5523,1.5253,1.5204,1.5274,1.5475,1.5558,1.5726,1.6082,1.6287,1.6369,1.6232,1.6328,1.629,1.5961,1.557,1.117,0.0876,0.0,0.0,0.0,0.0,0.0,0.0,0.0,0.0,0.0,0.0,0.0,0.0,0.0,0.0,0.0,0.0,0.0,1.4957,0.0,0.0,1.5588,1.6328,1.7087,1.7291,1.7846,1.8404,1.8673,1.934,1.9942,2.0243,2.079,2.1319,2.1689,2.2235,2.2623,2.2727,2.2745,2.2605,2.2231,2.2021,2.1967,2.2113,2.2109,2.2109,2.2143,2.2215,2.2167,2.2025,2.2004,2.1988,2.1899,2.1899,2.1899,2.1899,2.1774,2.1635,2.1479,2.1283,2.1109,2.0908,2.0827,2.0555,2.0153,2.0119,1.9815,1.9325,1.9237,1.887,1.8347,1.8306,1.8139,1.7888,1.7738,1.7561,1.7392,1.7297,1.7134,1.6991,1.6991,1.6991,1.6991,1.6991,1.6991,1.6991,1.6991,1.6991,1.6998,1.6931,1.6707,1.6485,1.6444,1.6266,1.6014,1.5666,1.5606,1.5523,1.5253,1.5204,1.5269,1.5509,1.5572,1.5727,1.613,1.6341,1.6416,1.6308,1.6327,1.6173,1.5798,1.5479,1.1718,0.2853,0.0807,0.0,0.0,0.0,0.0,0.0,0.0,0.0,0.0,0.0,0.0,0.0,0.0,0.0,0.0,0.0,0.0,0.0,0.0,1.5756,1.6485,1.7256,1.8051,1.8777,1.9154,1.9452,1.9781,2.0085,2.0388,2.0718,2.1017,2.1353,2.1815,2.229,2.2606,2.2606,2.2606,2.2432,2.1967,2.1621,2.1496,0.0,2.195,2.2146,2.2289,2.2466,2.2497,2.2302,2.2289,2.2164,2.192,2.1899,2.1899,2.1899,2.1774,2.1706,2.1685,2.1353,2.1194,2.1181,2.0931,2.0614,2.03,2.0157,1.9937,1.9654,1.9325,1.8924,1.8482,1.8347,1.8139,1.7901,1.7888,1.7684,1.7392,1.7399,1.7222,1.6991,1.6991,1.6991,1.6991,1.6991,1.6991,1.6991,1.6991,1.6991,1.6957,1.6756,1.6613,1.647,1.6335,1.6198,1.6014,1.5666,1.5606,1.5523,1.5253,1.5204,1.5247,1.5379,1.5504,1.5665,1.5882,1.6136,1.6301,1.6294,1.608,1.5836,1.5624,1.5605,1.3364,0.7834,0.2842,0.0,0.0,0.0,0.0,0.0,0.0,0.0,0.0,0.0,0.0,0.0,0.0,0.0,0.0,0.0,0.0,0.0,0.0,1.6952,1.7602,1.8327,1.9027,1.9498,1.98,2.0035,2.0137,2.0098,2.0066,2.0184,2.0417,2.0686,2.093,2.1777,2.2378,2.2286,2.2466,2.2303,2.153,2.1408,0.0,0.0,0.0,0.0,2.2289,2.2483,2.2514,2.2302,2.2432,2.2391,2.2167,2.2164,2.2109,2.2021,2.1899,2.1794,2.1689,2.1265,2.1068,2.1055,2.074,2.0435,2.0157,2.0119,1.982,1.936,1.9252,1.8924,1.8503,1.8449,1.8273,1.8037,1.8037,1.7758,1.7392,1.7392,1.7216,1.6991,1.6991,1.6991,1.6991,1.6991,1.6991,1.6991,1.6991,1.6991,1.6984,1.6917,1.6701,1.6497,1.6437,1.6259,1.6014,1.5666,1.5606,1.5523,1.5253,1.5204,1.5274,1.5496,1.5572,1.5733,1.6103,1.617,1.6198,1.6287,1.6067,1.5822,1.5619,1.5594,1.3428,0.8056,0.2934,0.0,0.0,0.0,0.0,0.0,0.0,0.0,0.0,0.0,0.0,0.0,0.0,0.0,0.0,0.0,0.0,0.0,1.7006,1.7955,1.8626,1.9256,1.979,2.0051,2.0245,2.0331,2.0191,1.9888,1.9625,1.9517,1.9644,1.9859,2.0173,2.1039,2.174,2.1987,2.2021,2.1845,2.1337,2.1158,2.1002,0.0,0.0,0.0,2.2109,2.232,2.2408,2.2411,2.2534,2.2537,2.2411,2.2286,2.218,2.2096,2.1916,2.1723,2.1509,2.1211,2.1021,2.0912,2.0629,2.0352,2.0098,2.0051,1.9712,1.9203,1.9203,1.8905,1.8435,1.8482,1.8341,1.8105,1.8105,1.7833,1.7453,1.7426,1.7216,1.6991,1.6991,1.6991,1.6991,1.6991,1.6991,1.6991,1.6991,1.6991,1.6984,1.691,1.6722,1.6552,1.6444,1.63,1.6069,1.568,1.5606,1.5523,1.5253,1.5204,1.5294,1.5551,1.5734,1.595,1.6253,1.6225,1.6198,1.6287,1.6114,1.5883,1.5626,1.5511,1.3318,0.8044,0.2934,0.0,0.0,0.0,0.0,0.0,0.0,0.0,0.0,0.0,0.0,0.0,0.0,0.0,0.0,0.0,0.0,1.7128,1.8009,1.8761,1.9537,2.001,2.0336,2.0458,2.0474,2.0331,1.9924,1.9449,1.9006,0.0,0.0,1.8948,1.9532,2.0157,2.0876,2.1777,2.1421,2.1161,0.0,0.0,0.0,0.0,0.0,0.0,2.1845,0.0,2.2235,2.2568,2.2606,2.2606,2.2586,2.2269,2.2096,2.2093,2.1815,2.1509,2.1194,2.1194,2.1055,2.0786,2.0582,2.0347,2.0083,1.9958,1.9624,1.9203,1.9203,1.8849,1.8341,1.8469,1.8347,1.8125,1.8111,1.7887,1.7588,1.7446,1.7216,1.6991,1.6991,1.6991,1.6991,1.6991,1.6991,1.6991,1.6991,1.6991,1.6957,1.6763,1.6715,1.6628,1.6375,1.6301,1.6179,1.5707,1.5606,1.5518,1.5274,1.5238,1.5321,1.5565,1.6003,1.6294,1.6287,1.6301,1.6308,1.6301,1.6177,1.5947,1.5633,1.5355,1.3143,0.8033,0.2934,0.0,0.0,0.0,0.0,0.0,0.0,0.0,0.0,0.0,0.0,0.0,0.0,0.0,0.0,0.0,0.0,1.7954,1.887,1.9639,2.0051,2.0298,2.0424,2.0365,2.0119,1.9747,1.9199,1.8356,1.7582,0.0,0.0,0.0,1.8727,2.0261,0.0,2.1845,2.2072,0.0,0.0,0.0,2.1282,2.0983,2.1034,0.0,0.0,2.2025,2.2184,2.2378,2.2608,2.2622,2.2374,2.2198,2.2059,2.1954,2.1635,2.1374,2.1194,2.1109,2.0962,2.0786,2.049,2.0259,2.0083,1.9958,1.9624,1.9203,1.9203,1.8993,1.8682,1.8709,1.8586,1.8395,1.8287,1.7975,1.7588,1.7446,1.7216,1.6991,1.6991,1.6991,1.6991,1.6991,1.6991,1.6991,1.6991,1.6991,1.6984,1.6944,1.681,1.6661,1.6485,1.6375,1.6206,1.5885,1.5716,1.5579,1.5516,1.562,1.5746,1.5809,1.6095,1.6273,1.617,1.6327,1.6403,1.6314,1.5956,1.5687,1.5612,1.5354,1.314,0.8029,0.2934,0.0,0.0,0.0,0.0,0.0,0.0,0.0,0.0,0.0,0.0,0.0,0.0,0.0,0.0,0.0,0.0,1.887,1.9574,2.0139,2.0331,2.0406,2.0298,1.9823,1.9517,1.9022,1.8003,1.7222,0.0,0.0,0.0,0.0,0.0,0.0,0.0,2.1811,2.2079,2.2096,0.0,2.1794,0.0,2.1336,2.1421,2.1672,0.0,2.2038,2.2127,2.2411,2.2605,2.2585,2.2302,2.2109,2.192,2.1686,2.1438,2.1249,2.1106,2.0983,2.0824,2.0668,2.0347,2.0171,2.0085,0.0,1.9586,1.9203,1.9203,1.8993,1.8674,1.8771,1.864,1.8394,1.8327,1.7994,1.7588,1.7446,1.7216,1.6991,1.6991,1.6991,1.6991,1.6991,1.6991,1.6991,1.6991,1.6991,1.6991,1.6991,1.6917,1.6782,1.6546,1.6437,1.63,1.5971,1.5816,1.5716,1.5612,1.5757,1.5901,1.5901,1.617,1.6362,1.6286,1.6402,1.6464,1.6402,1.6057,1.576,1.5619,1.547,1.3262,0.8041,0.2934,0.0,0.0,0.0,0.0,0.0,0.0,0.0,0.0,0.0,0.0,0.0,0.0,0.0,0.0,0.0,0.0,1.9712,2.0139,2.0352,2.0474,2.0365,2.0013,1.9169,1.8771,1.8159,1.666,0.0,1.5735,1.5163,1.5818,1.6714,1.7507,0.0,2.0399,2.176,2.1845,2.1933,2.232,2.2147,2.1933,2.1791,2.1916,2.2093,2.236,2.2127,2.2181,2.2606,2.2609,2.2483,2.2255,2.2025,2.174,2.1408,2.1269,2.1127,2.1001,2.0861,2.0682,2.0494,2.0225,2.0098,2.0085,1.9817,1.9517,1.9237,1.9218,1.8952,1.8571,1.8737,1.8614,1.8321,1.8287,1.7995,1.7582,1.7426,1.7209,1.6991,1.6991,1.6991,1.6991,1.6991,1.6991,1.6991,1.6991,1.6991,1.6991,1.6991,1.6991,1.6923,1.6593,1.6512,1.6396,1.6026,1.5937,1.5863,1.5684,1.5797,1.5935,1.5935,1.6238,1.6464,1.6464,1.6464,1.6464,1.6464,1.6218,1.5927,1.5664,1.558,1.366,0.9002,0.332,0.0,0.0,0.0,0.0,0.0,0.0,0.0,0.0,0.0,0.0,0.0,0.0,0.0,0.0,0.0,0.0,2.0098,2.0352,2.0474,2.0492,2.0225,1.9768,1.9002,1.8125,0.0,0.0,0.0,1.4816,1.4375,1.5326,0.0,1.7663,0.0,0.0,0.0,0.0,2.232,0.0,0.0,0.0,0.0,0.0,0.0,0.0,0.0,2.2555,2.2765,2.2657,2.2412,2.1988,2.1916,2.174,2.1408,2.1269,2.1127,2.1001,2.0861,2.0682,2.0494,2.0225,2.0098,2.0085,1.9817,0.0,1.9364,1.9257,1.9096,1.8919,1.8825,1.8654,1.8449,1.8213,1.7907,1.7554,1.7317,1.7134,1.6991,1.6991,1.6991,1.6991,1.6991,1.6991,1.6991,1.6991,1.6991,1.6991,1.6991,1.6991,1.6937,1.6715,1.6573,1.6457,1.6273,1.6143,1.6019,1.5882,1.5977,1.6067,1.6067,1.6224,1.6335,1.6335,1.6335,1.6335,1.6335,1.5969,1.571,1.5762,1.5473,1.4889,1.3954,0.5347,0.0,0.0,0.0,0.0,0.0,0.0,0.0,0.0,0.0,0.0,0.0,0.0,0.0,0.0,0.0,0.0,2.0318,2.0453,2.0492,2.0492,2.0069,1.9359,1.8301,0.0,0.0,0.0,0.0,1.4299,1.3996,0.0,0.0,0.0,0.0,0.0,0.0,0.0,0.0,0.0,0.0,0.0,0.0,0.0,0.0,0.0,0.0,2.2657,2.2784,2.2446,2.213,2.1916,2.1723,2.1567,2.1408,2.1194,2.1052,2.1001,2.0754,2.0598,2.0494,2.0225,2.0098,2.0085,1.9817,1.9591,1.9383,1.9256,1.9115,1.8972,1.8743,1.8537,1.8361,1.8091,1.7778,1.7473,1.727,1.7113,1.6991,1.6991,1.6991,1.6991,1.6991,1.6991,1.6991,1.6991,1.6991,1.6991,1.6991,1.6991,1.6937,1.6661,1.6443,1.6273,1.6205,1.615,1.6087,1.6025,1.6053,1.6116,1.6185,1.6259,1.6321,1.6396,1.6341,1.6267,1.6198,1.5911,1.5733,1.5792,1.3069,1.2323,1.4968,0.5855,0.0,0.0,0.0,0.0,0.0,0.0,0.0,0.0,0.0,0.0,0.0,0.0,0.0,0.0,0.0,0.0,2.0386,2.0508,2.0541,2.0508,1.9896,1.8977,1.769,1.6653,0.0,0.0,1.3901,1.3946,1.3826,0.0,0.0,0.0,0.0,0.0,0.0,0.0,0.0,0.0,0.0,0.0,0.0,0.0,0.0,0.0,0.0,0.0,2.2693,2.2235,2.195,2.1899,2.1621,2.1442,2.1408,2.1127,2.1001,2.1001,2.0666,2.0492,2.0494,2.0225,2.0098,2.0085,1.9817,1.9605,1.9452,1.9271,1.9143,1.9006,1.8639,1.8415,1.8259,1.7948,1.765,1.7378,1.7209,1.7086,1.6991,1.6991,1.6991,1.6991,1.6991,1.6991,1.6991,1.6991,1.6991,1.6991,1.6991,1.6991,1.6917,1.6579,1.632,1.6136,1.6114,1.6095,1.6095,1.6095,1.6095,1.6136,1.6239,1.6259,1.6294,1.6443,1.6341,1.6218,1.6109,1.5913,1.5366,1.4252,1.1189,0.9968,1.1795,0.4607,0.0,0.0,0.0,0.0,0.0,0.0,0.0,0.0,0.0,0.0,0.0,0.0,0.0,0.0,0.0,0.0,2.0277,2.0539,2.0732,2.0541,1.9756,1.8742,1.7656,0.0,0.0,1.4036,1.3717,1.3681,1.3774,0.0,0.0,0.0,0.0,0.0,0.0,0.0,0.0,0.0,0.0,0.0,0.0,0.0,0.0,0.0,0.0,0.0,2.2356,2.2289,2.2143,2.1916,2.176,2.1584,2.1408,2.1127,2.1001,2.1001,2.0666,2.0492,2.0494,2.0225,2.0098,2.0085,1.9817,1.9695,0.0,1.9325,1.9188,1.9143,1.8679,1.8415,1.8253,1.7785,1.7534,1.7365,1.7113,1.7005,1.6991,1.6991,1.6991,1.6991,1.6991,1.6991,1.6991,1.6991,1.6991,1.6991,1.6991,1.6991,1.6917,1.6579,1.6389,1.6252,1.6122,1.6095,1.6095,1.6095,1.6095,1.6102,1.6128,1.6116,1.6163,1.6294,1.6198,1.6109,1.6095,1.5913,1.3975,0.9224,1.2187,1.0945,0.2145,0.0542,0.0,0.0,0.0,0.0,0.0,0.0,0.0,0.0,0.0,0.0,0.0,0.0,0.0,0.0,0.0,0.0,2.0142,2.0598,2.0878,2.0716,1.9683,1.8449,1.75,0.0,1.4726,1.386,1.3636,1.3643,1.3785,1.4051,0.0,0.0,0.0,0.0,0.0,0.0,0.0,0.0,0.0,0.0,0.0,0.0,0.0,0.0,0.0,0.0,2.218,2.2096,2.2004,2.1899,2.1652,2.1476,2.1408,2.1127,2.1001,2.1001,2.0666,2.0492,2.0494,2.0225,2.0098,2.0085,1.9698,1.9522,0.0,1.9203,1.9081,1.9027,1.8557,1.8347,1.8232,1.7676,1.7446,1.7365,1.7093,1.6991,1.6991,1.6991,1.6991,1.6991,1.6991,1.6991,1.6991,1.6991,1.6991,1.6991,1.6991,1.691,1.6775,1.6546,1.6402,1.6253,1.6129,1.6095,1.6095,1.6095,1.6095,1.6122,1.6217,1.6156,1.615,1.6274,1.619,1.6027,1.5814,1.559,1.3465,0.8312,1.2218,1.1074,0.0871,0.0,0.0,0.0,0.0,0.0,0.0,0.0,0.0,0.0,0.0,0.0,0.0,0.0,0.0,0.0,0.0,0.0,1.9756,2.0401,2.0824,2.0682,1.9541,1.8205,0.0,0.0,1.4496,1.3751,1.3572,1.3589,1.3772,1.3922,1.4194,0.0,0.0,0.0,0.0,0.0,0.0,0.0,0.0,0.0,0.0,0.0,0.0,0.0,0.0,0.0,2.2113,2.1933,2.1848,2.1848,2.1547,2.1371,2.1334,2.1106,2.098,2.0949,2.0629,2.0478,2.0424,2.0196,2.0085,2.001,1.9595,1.9404,0.0,1.9115,1.8988,1.8899,1.8463,1.8287,1.8165,1.7616,1.7392,1.7365,1.7093,1.6991,1.6991,1.6991,1.6991,1.6991,1.6991,1.6991,1.6991,1.6991,1.6991,1.6991,1.6991,1.685,1.6675,1.6532,1.6402,1.6253,1.6129,1.6095,1.6095,1.6095,1.6095,1.6129,1.6225,1.6163,1.6129,1.6225,1.6163,1.5987,1.5639,1.5377,1.3785,1.0087,1.0305,0.7795,0.0607,0.0,0.0,0.0,0.0,0.0,0.0,0.0,0.0,0.0,0.0,0.0,0.0,0.0,0.0,0.0,0.0,0.0,1.9046,1.9837,2.0474,2.0331,1.9295,1.8077,0.0,0.0,1.4496,1.3751,1.3484,1.3481,1.3751,1.3802,1.3961,1.443,0.0,0.0,0.0,0.0,0.0,0.0,0.0,0.0,0.0,0.0,0.0,0.0,0.0,0.0,2.2096,2.1845,2.1706,2.1706,2.1513,2.1334,2.1194,2.1068,2.0933,2.0802,2.0598,2.0424,2.0298,2.0157,2.0026,1.9885,1.9556,1.9404,0.0,1.9115,1.8919,1.8772,1.8429,1.8219,1.805,1.7575,1.7392,1.7365,1.7093,1.6991,1.6991,1.6991,1.6991,1.6991,1.6991,1.6991,1.6991,1.6991,1.6991,1.6991,1.6991,1.685,1.6675,1.6532,1.6402,1.6253,1.6129,1.6095,1.6095,1.6095,1.6095,1.6095,1.6095,1.6095,1.6095,1.6095,1.6095,1.5987,1.5639,1.5377,1.5047,1.4663,0.5942,0.0113,0.0011,0.0,0.0,0.0,0.0,0.0,0.0,0.0,0.0,0.0,0.0,0.0,0.0,0.0,0.0,0.0,0.0,0.0,1.767,1.8395,1.8909,1.8557,1.769,1.6748,1.6057,0.0,1.4129,1.3576,1.3437,1.3481,1.3751,1.3795,1.4056,1.4848,1.5097,0.0,0.0,0.0,0.0,0.0,0.0,0.0,0.0,0.0,0.0,0.0,0.0,0.0,2.1831,2.1618,2.1564,2.1706,2.1421,2.1249,2.1194,2.0983,2.084,2.0802,2.0598,2.0424,2.0298,2.0157,1.9978,1.9742,1.9413,1.9202,1.9115,1.8933,1.8756,1.8586,1.8375,1.8158,1.7928,1.7534,1.7338,1.7236,1.7059,1.6991,1.6991,1.6991,1.6991,1.6991,1.6991,1.6991,1.6991,1.6991,1.6991,1.6991,1.6991,1.685,1.6675,1.6532,1.6402,1.6253,1.6129,1.6095,1.6095,1.6095,1.6095,1.6095,1.6095,1.6095,1.6095,1.6095,1.6095,1.5987,1.5639,1.5453,1.5169,1.4744,0.879,0.354,0.0281,0.0,0.0,0.0,0.0,0.0,0.0,0.0,0.0,0.0,0.0,0.0,0.0,0.0,0.0,0.0,0.0,0.0,0.0,1.7324,1.7812,1.7521,1.6829,0.0,0.0,0.0,1.3858,1.3414,1.3326,1.3403,1.3681,1.372,1.3958,1.4663,1.4837,0.0,0.0,0.0,0.0,0.0,0.0,0.0,0.0,0.0,0.0,0.0,0.0,0.0,2.1584,2.1425,2.1374,2.1512,2.1319,2.114,2.1055,2.0874,2.0752,2.0682,2.0508,2.0352,2.0225,2.0085,1.9854,1.9571,1.9305,1.9115,0.0,1.8777,1.8586,1.8409,1.8219,1.8002,1.7752,1.7446,1.7277,1.7181,1.7046,1.6991,1.6991,1.6991,1.6991,1.6991,1.6991,1.6991,1.6991,1.6991,1.6991,1.6978,1.691,1.6796,1.6648,1.6464,1.6362,1.6253,1.6129,1.6095,1.6095,1.6095,1.6095,1.6095,1.6095,1.6095,1.6095,1.6095,1.606,1.5919,1.5645,1.544,1.521,1.4922,1.0216,0.5174,0.0407,0.0,0.0,0.0,0.0,0.0,0.0,0.0,0.0,0.0,0.0,0.0,0.0,0.0,0.0,0.0,0.0,0.0,0.0,1.6421,1.6984,1.6958,1.6441,1.5735,0.0,0.0,0.0,0.0,0.0,1.3278,1.3566,1.3613,1.3721,1.4104,0.0,0.0,0.0,0.0,0.0,0.0,0.0,0.0,0.0,0.0,0.0,0.0,0.0,0.0,2.1371,2.1246,2.1181,2.1177,2.1177,2.1055,2.0802,2.0788,2.0682,2.0478,2.035,2.0225,2.0085,1.9958,1.9712,0.0,1.9256,1.9115,1.8938,1.8625,1.8415,1.8253,1.8003,1.7772,1.7555,1.7304,1.7182,1.7175,1.7039,1.6991,1.6991,1.6991,1.6991,1.6991,1.6991,1.6991,1.6991,1.6991,1.6991,1.6944,1.6749,1.6689,1.6621,1.6362,1.6287,1.6252,1.6122,1.6095,1.6095,1.6095,1.6095,1.6095,1.6095,1.6095,1.6095,1.6095,1.5991,1.5829,1.5631,1.5365,1.5214,1.52,1.0362,0.5202,0.041,0.0,0.0,0.0,0.0,0.0,0.0,0.0,0.0,0.0,0.0,0.0,0.0,0.0,0.0,0.0,0.0,0.0,1.3754,0.0,1.4785,1.4636,1.4392,1.4118,0.0,0.0,0.0,0.0,0.0,0.0,0.0,0.0,0.0,0.0,0.0,0.0,0.0,0.0,0.0,0.0,0.0,0.0,0.0,0.0,0.0,0.0,0.0,2.1249,2.1109,2.1052,2.1001,2.0895,2.0895,2.0861,2.0802,2.0648,2.051,2.0352,2.0318,2.0171,1.996,1.9903,1.9659,1.9257,1.9202,1.8978,1.8611,1.8522,1.8361,1.8124,1.7962,1.7704,1.7426,1.7263,1.7134,1.7039,1.7005,1.6991,1.6991,1.6991,1.6991,1.6991,1.6991,1.6991,1.6991,1.6991,1.6991,1.6944,1.6749,1.6627,1.6505,1.6341,1.6218,1.6136,1.6114,1.6095,1.6095,1.6095,1.6095,1.6095,1.6095,1.6095,1.6095,1.6095,1.5991,1.5829,1.5631,1.546,1.5312,1.5209,1.0565,0.5455,0.0428,0.0,0.0,0.0,0.0,0.0,0.0,0.0,0.0,0.0,0.0,0.0,0.0,0.0,0.0,0.0,0.0,0.0,1.2925,1.3458,1.3935,1.3833,1.3751,1.3636,1.3441,0.0,0.0,0.0,0.0,0.0,0.0,0.0,0.0,0.0,0.0,0.0,0.0,0.0,0.0,0.0,0.0,0.0,0.0,0.0,0.0,0.0,0.0,2.1072,2.1001,2.0949,2.0874,2.0802,2.0718,2.0668,2.0668,2.0494,2.0365,2.0298,2.0171,2.0012,1.9812,1.9713,1.9468,1.9109,1.9109,1.8884,1.8503,1.8435,1.8247,1.7996,1.7765,1.7521,1.7284,1.7161,1.7059,1.6991,1.6991,1.6991,1.6991,1.6991,1.6991,1.6991,1.6991,1.6991,1.6991,1.6991,1.6931,1.6823,1.6648,1.6512,1.6375,1.6239,1.6156,1.6075,1.6019,1.606,1.6054,1.5906,1.5988,1.608,1.6025,1.606,1.6095,1.6095,1.5905,1.5711,1.5612,1.5379,1.5187,1.5066,1.0589,0.5536,0.0429,0.0,0.0,0.0,0.0,0.0,0.0,0.0,0.0,0.0,0.0,0.0,0.0,0.0,0.0,0.0,0.0,0.0,1.2631,1.3244,1.3774,1.3697,1.369,1.364,1.3352,0.0,0.0,0.0,0.0,0.0,0.0,0.0,0.0,0.0,0.0,0.0,0.0,0.0,0.0,0.0,0.0,0.0,0.0,0.0,0.0,0.0,0.0,2.0962,2.0933,2.082,2.0752,2.0752,2.0562,2.0474,2.0474,2.0368,2.0277,2.0245,1.9992,1.9797,1.9654,1.9468,1.9222,1.8973,0.0,0.0,1.8435,1.8287,1.8091,1.782,1.75,1.7304,1.7175,1.7046,1.6991,1.6991,1.6991,1.6991,1.6991,1.6991,1.6991,1.6991,1.6991,1.6991,1.6991,1.6964,1.6823,1.6675,1.6539,1.6382,1.6239,1.6095,1.6053,1.5993,1.5889,1.5932,1.594,1.5665,1.5847,1.6026,1.5882,1.5972,1.6067,1.6027,1.5753,1.5558,1.5538,1.5221,1.4952,1.4857,1.1144,0.6313,0.0498,0.0,0.0583,0.1958,0.0759,0.0,0.0,0.0,0.0,0.0,0.0,0.0,0.0,0.0,0.0,0.0,0.0,0.0,1.2631,1.3244,1.369,1.3241,1.3207,1.321,0.0,0.0,0.0,0.0,0.0,0.0,0.0,0.0,0.0,0.0,0.0,0.0,0.0,0.0,0.0,0.0,0.0,0.0,0.0,0.0,0.0,0.0,0.0,2.0756,2.0598,2.0562,2.0541,2.0541,2.0406,2.0331,2.0331,2.0318,2.0191,1.9958,1.9797,1.9625,1.9437,1.929,1.9081,1.8825,0.0,1.8581,1.8145,1.8016,1.784,1.7622,1.7331,1.7229,1.7175,1.7046,1.6991,1.6991,1.6991,1.6991,1.6991,1.6991,1.6991,1.6991,1.6991,1.6991,1.6951,1.6796,1.6716,1.6675,1.6539,1.632,1.6101,1.5964,1.5798,1.5666,1.5652,1.5653,1.566,1.5612,1.5778,1.587,1.5684,1.5803,1.587,1.5699,1.5536,1.5386,1.5281,1.5109,1.4905,1.467,1.3974,0.9849,0.0774,0.0,0.3245,1.0865,0.4205,0.0,0.0,0.0,0.0,0.0,0.0,0.0,0.0,0.0,0.0,0.0,0.0,0.0,1.2397,1.2841,1.3163,1.303,1.3397,1.3712,0.0,0.0,0.0,0.0,0.0,0.0,0.0,0.0,0.0,0.0,0.0,0.0,0.0,0.0,0.0,0.0,0.0,0.0,0.0,0.0,0.0,0.0,2.0702,2.0598,2.0492,2.0492,2.0474,2.039,2.0331,2.0225,2.0085,2.001,1.9903,1.9798,1.9625,1.9413,1.9183,1.9115,1.8933,1.864,0.0,1.8423,1.8091,1.7962,1.7738,1.7473,1.7283,1.7161,1.7086,1.7018,1.6991,1.6991,1.6991,1.6991,1.6991,1.6991,1.6991,1.6991,1.6991,1.6924,1.6816,1.6729,1.6648,1.6533,1.6341,1.6136,1.5945,1.5783,1.5677,1.5579,1.5509,1.5545,1.5563,1.5413,1.5581,1.5689,1.5516,1.5623,1.5716,1.5612,1.5482,1.5345,1.5224,1.4984,1.4755,1.4568,1.4482,1.2626,0.8115,0.5338,0.4498,0.6062,0.2282,0.0,0.0,0.0,0.0,0.0,0.0,0.0,0.0,0.0,0.0,0.0,0.0,0.0,1.2257,1.2583,1.2854,1.2972,0.0,1.396,0.0,0.0,0.0,0.0,0.0,0.0,0.0,0.0,0.0,0.0,0.0,0.0,0.0,0.0,0.0,0.0,0.0,0.0,0.0,0.0,2.0732,2.0732,2.0598,2.0494,2.0453,2.0453,2.0386,2.0259,2.0225,2.0103,1.9905,1.9729,1.9625,1.9625,1.9413,1.9183,1.8953,1.8905,1.8708,1.8409,1.8409,1.8253,1.7968,1.784,1.7602,1.7338,1.7215,1.7086,1.6991,1.6991,1.6991,1.6991,1.6991,1.6991,1.6991,1.6951,1.6964,1.6991,1.691,1.6802,1.6682,1.6627,1.6512,1.6355,1.615,1.5938,1.5735,1.5584,1.5536,1.5475,1.5384,1.5428,1.5454,1.524,1.5386,1.5516,1.5384,1.5462,1.5524,1.5469,1.5372,1.5242,1.5063,1.4816,1.4597,1.4464,1.4354,1.4282,1.4232,1.0809,0.7088,0.3369,0.1162,0.0,0.0,0.0,0.0,0.0,0.0,0.0,0.0,0.0,0.0,0.0,0.0,0.0,1.2406,1.2816,1.3142,1.303,0.0,0.0,0.0,0.0,0.0,0.0,0.0,0.0,0.0,0.0,0.0,0.0,0.0,0.0,0.0,0.0,0.0,0.0,0.0,0.0,0.0,2.0648,2.0528,2.0528,2.0508,2.0453,2.0318,2.0318,2.0243,2.0119,1.9992,1.9919,1.9905,1.9574,1.9417,1.9417,1.9154,1.8953,1.8811,1.8626,1.8395,1.8124,1.8124,1.7934,1.7629,1.7487,1.7358,1.7195,1.7066,1.7018,1.6991,1.6991,1.6991,1.6991,1.6991,1.6991,1.6971,1.6776,1.685,1.6944,1.6626,1.6607,1.6655,1.6409,1.6232,1.6122,1.6114,1.5776,1.5426,1.542,1.5316,1.5238,1.5224,1.522,1.522,1.5199,1.5316,1.5365,1.5233,1.5323,1.5337,1.5082,1.5034,1.4907,1.4586,1.4532,1.4464,1.4333,1.4306,1.4225,1.404,1.3593,1.3073,1.2476,0.461,0.0,0.0,0.0,0.0,0.0,0.0,0.0,0.0,0.0,0.0,0.0,0.0,0.0,1.2195,1.2497,1.2796,1.2959,0.0,0.0,0.0,0.0,0.0,0.0,0.0,0.0,0.0,0.0,0.0,0.0,0.0,0.0,0.0,0.0,0.0,0.0,0.0,0.0,0.0,2.0541,2.0492,2.0492,2.0419,2.0352,2.0298,2.0225,2.0103,1.9978,1.9851,1.9729,1.9595,1.9218,1.9021,1.9021,1.8919,1.8777,1.8605,1.8449,1.8273,1.8105,1.8017,1.7826,1.7575,1.7365,1.7243,1.7188,1.7046,1.6991,1.6991,1.6991,1.6991,1.6991,1.6991,1.6917,1.6816,1.687,1.6802,1.668,1.664,1.6539,1.641,1.6225,1.5995,1.5792,1.5792,1.5596,1.5364,1.5192,1.5184,1.5184,1.5095,1.5143,1.5204,1.5204,1.524,1.526,1.5206,1.5172,1.5123,1.5025,1.4889,1.4742,1.4525,1.4498,1.4444,1.4308,1.4299,1.4245,1.408,1.398,1.265,0.9666,0.876,0.5832,0.0232,0.0,0.0,0.0,0.0,0.0,0.0,0.0,0.0,0.0,0.0,0.0,1.2133,1.233,1.2572,1.284,0.0,0.0,0.0,0.0,0.0,0.0,0.0,0.0,0.0,0.0,0.0,0.0,0.0,0.0,0.0,0.0,0.0,0.0,0.0,0.0,2.0492,2.0458,2.044,2.044,2.0352,2.0264,2.0171,2.0051,1.9903,1.9747,1.9571,1.9415,1.9276,1.8899,1.8709,1.8709,1.862,1.8512,1.8375,1.8287,1.8158,1.803,1.7874,1.7704,1.7514,1.7284,1.7181,1.7127,1.7045,1.6991,1.6991,1.6924,1.691,1.6904,1.6862,1.6755,1.6648,1.6748,1.6646,1.6498,1.6512,1.6403,1.6253,1.6094,1.5832,1.5579,1.5496,1.5406,1.5289,1.5109,1.5136,1.5165,1.5082,1.5136,1.5204,1.5204,1.517,1.515,1.5186,1.5036,1.4907,1.4907,1.4755,1.4588,1.445,1.4441,1.4396,1.4312,1.4258,1.4163,1.4025,1.3952,1.1941,0.7267,1.1016,0.937,0.037,0.0,0.0,0.0,0.0,0.0,0.0,0.0,0.0,0.0,0.0,0.0,1.2325,1.2402,1.2526,1.2669,0.0,0.0,0.0,0.0,0.0,0.0,0.0,0.0,0.0,0.0,0.0,0.0,0.0,0.0,0.0,0.0,2.0453,2.0318,2.0298,2.0352,2.0478,2.0386,2.0298,2.0298,2.0298,2.0171,1.9903,1.9763,1.9605,1.9404,1.9143,1.9007,1.9007,1.8659,1.8488,1.8482,1.8219,1.8091,1.8105,1.8105,1.8016,1.7888,1.7677,1.7521,1.7392,1.7256,1.712,1.6991,1.6991,1.7004,1.6971,1.677,1.6696,1.6688,1.6546,1.6491,1.6484,1.6341,1.6389,1.645,1.6183,1.6185,1.6239,1.5971,1.5744,1.5531,1.5274,1.5204,1.5204,1.5204,1.5204,1.5204,1.5204,1.5204,1.5204,1.5204,1.5089,1.5041,1.5165,1.4925,1.4706,1.4706,1.4588,1.445,1.4319,1.4299,1.4299,1.4299,1.4174,1.4025,1.3819,1.3802,1.1766,0.6998,1.0825,0.9278,0.037,0.0,0.0,0.0,0.0,0.0,0.0,0.0,0.0,0.0,0.0,0.0,1.2058,0.0,0.0,0.0,0.0,0.0,0.0,0.0,0.0,0.0,0.0,0.0,0.0,0.0,0.0,0.0,0.0,0.0,0.0,2.0191,2.0313,2.0171,2.0157,2.0171,2.0212,2.0171,2.0157,2.0157,1.9976,1.9836,1.9763,1.9409,1.9184,1.9115,1.8815,1.8645,1.8645,1.8267,1.8085,1.8071,1.7758,1.7738,1.7948,1.7812,1.7677,1.7541,1.7392,1.7304,1.7249,1.7107,1.7045,1.6991,1.6991,1.6917,1.6783,1.6716,1.6641,1.6546,1.6512,1.6443,1.6369,1.6417,1.6335,1.6198,1.6122,1.606,1.5951,1.564,1.5432,1.5287,1.5097,1.495,1.4846,1.4846,1.5031,1.5165,1.5082,1.5136,1.5177,1.5075,1.5102,1.5077,1.4873,1.4778,1.4672,1.4575,1.4455,1.4335,1.4306,1.4299,1.4299,1.4299,1.4258,1.4122,1.3833,1.38,1.1765,0.7002,0.4986,0.2784,0.0109,0.0,0.0,0.0,0.0,0.0,0.0,0.0,0.0,0.0,0.0,0.0,1.2428,0.0,0.0,0.0,0.0,0.0,0.0,0.0,0.0,0.0,0.0,0.0,0.0,0.0,0.0,0.0,0.0,0.0,0.0,2.0051,2.0171,2.0046,2.001,2.0046,2.0083,2.0051,1.9997,1.996,1.9797,1.962,1.943,1.9096,1.8865,1.8728,1.8423,1.8219,1.8137,1.7846,1.7697,1.7697,1.7507,1.748,1.7623,1.7555,1.748,1.7385,1.7256,1.7175,1.7113,1.6951,1.6877,1.6883,1.6822,1.6728,1.6614,1.6553,1.6491,1.6416,1.6355,1.6252,1.6156,1.6238,1.6096,1.5894,1.5894,1.5839,1.5729,1.5467,1.5303,1.5145,1.4941,1.4785,1.4706,1.4706,1.4852,1.4984,1.4896,1.5009,1.5095,1.5019,1.5002,1.4959,1.4837,1.4663,1.4534,1.4505,1.4394,1.4299,1.4299,1.4299,1.4299,1.4299,1.4179,1.4019,1.3826,1.3701,1.1659,0.6998,0.2485,0.0,0.0,0.0,0.0,0.0,0.0,0.0,0.0,0.0,0.0,0.0,0.0,0.0,0.0,0.0,0.0,0.0,0.0,0.0,0.0,0.0,0.0,0.0,0.0,0.0,0.0,0.0,0.0,0.0,0.0,0.0,0.0,0.0,2.0012,1.9849,1.9836,1.989,2.001,1.9903,1.9783,1.9655,1.962,1.943,1.8972,1.8825,1.8594,1.8273,1.8002,1.7772,1.7575,1.7446,1.7385,1.7385,1.7372,1.7297,1.7188,1.7317,1.7378,1.7358,1.7216,1.7093,1.6957,1.6769,1.6675,1.6675,1.6552,1.6491,1.647,1.6341,1.6287,1.6253,1.6122,1.6004,1.5901,1.5875,1.5744,1.5599,1.5572,1.5558,1.5524,1.5386,1.5242,1.507,1.4753,1.4678,1.4665,1.4665,1.4674,1.4706,1.4706,1.4837,1.4966,1.4953,1.4816,1.4751,1.4912,1.4595,1.436,1.4475,1.438,1.4299,1.4299,1.4299,1.4292,1.4278,1.4006,1.3808,1.3781,1.3578,1.1507,0.6984,0.2485,0.0,0.0,0.0,0.0,0.0,0.0,0.0,0.0,0.0,0.0,0.0,0.0,0.0,0.0,0.0,0.0,0.0,0.0,0.0,0.0,0.0,0.0,0.0,0.0,0.0,0.0,0.0,0.0,0.0,0.0,0.0,0.0,0.0,1.9679,1.9394,1.9345,1.9359,1.9393,1.9374,1.9291,1.9164,1.9056,1.8885,1.8626,1.8375,1.8173,1.7996,1.7778,1.7595,1.7446,1.7304,1.7243,1.7243,1.7141,1.7073,1.7046,1.7175,1.7195,1.708,1.6884,1.679,1.6749,1.6594,1.6546,1.6539,1.6505,1.6443,1.6341,1.6308,1.6232,1.6122,1.5991,1.5916,1.5875,1.5723,1.5638,1.5558,1.535,1.5294,1.5228,1.4934,1.4751,1.4627,1.4566,1.4453,1.4394,1.4394,1.4548,1.4706,1.4706,1.4733,1.473,1.4631,1.4656,1.4656,1.4475,1.4444,1.443,1.4349,1.4319,1.4299,1.4299,1.4299,1.4262,1.4158,1.4083,1.3926,1.3674,1.3685,1.1715,0.6998,0.2485,0.0,0.0,0.0,0.0,0.0,0.0,0.0,0.0,0.0,0.0,0.0,0.0,0.0,0.0,0.0,0.0,0.0,0.0,0.0,0.0,0.0,0.0,0.0,0.0,0.0,0.0,0.0,0.0,0.0,0.0,1.9501,1.933,1.934,1.9301,1.913,1.904,1.9007,1.9007,1.9007,1.8938,1.8761,1.864,1.8458,1.8227,1.7988,1.7772,1.7575,1.7453,1.7345,1.7209,1.7141,1.7107,1.71,1.7032,1.6957,1.6857,1.6931,1.6924,1.685,1.6681,1.66,1.6587,1.6457,1.6397,1.6389,1.6259,1.6211,1.6204,1.6129,1.6067,1.5985,1.5916,1.5794,1.5627,1.5454,1.5371,1.5276,1.5033,1.4959,1.4913,1.4753,1.4597,1.4507,1.4581,1.445,1.4319,1.4387,1.4446,1.4507,1.4507,1.4561,1.4581,1.4507,1.4566,1.4561,1.4417,1.4396,1.4387,1.4312,1.4299,1.4299,1.4299,1.4299,1.4256,1.411,1.4007,1.3861,1.3616,1.361,1.1628,0.6995,0.2485,0.0,0.0,0.0,0.0,0.0,0.0,0.0,0.0,0.0,0.0,0.0,0.0,0.0,0.0,0.0,0.0,0.0,0.0,0.0,0.0,0.0,0.0,0.0,0.0,0.0,0.0,0.0,1.9128,1.9128,1.9128,1.9115,1.908,1.8978,1.8919,1.8884,1.8777,1.8709,1.8709,1.8682,1.86,1.8409,1.8259,1.807,1.7826,1.7656,1.7453,1.7215,1.7181,1.71,1.6957,1.693,1.6917,1.6917,1.6917,1.6836,1.6655,1.6648,1.6635,1.6661,1.6525,1.6444,1.6423,1.6293,1.6206,1.6158,1.5925,1.5917,1.6007,1.593,1.5875,1.5855,1.5855,1.5646,1.5343,1.5206,1.5075,1.4914,1.4724,1.4665,1.4665,1.4638,1.4548,1.4491,1.4597,1.4471,1.4333,1.4437,1.4387,1.4299,1.4299,1.4394,1.4475,1.4475,1.4475,1.4475,1.4475,1.4369,1.4299,1.4299,1.4299,1.4299,1.4299,1.4299,1.4242,1.407,1.3897,1.3745,1.3582,1.3455,1.1817,0.8092,0.2913,0.0,0.0,0.0,0.0,0.0,0.0,0.0,0.0,0.0,0.0,0.0,0.0,0.0,0.0,0.0,0.0,0.0,0.0,0.0,0.0,0.0,0.0,0.0,0.0,0.0,1.8591,1.8743,1.8845,1.8845,1.8845,1.8797,1.8626,1.8571,1.8523,1.8409,1.8375,1.8375,1.8375,1.8253,1.8125,1.7996,1.7798,1.7629,1.7473,1.7433,1.7358,1.7195,1.7086,1.6937,1.6742,1.662,1.6572,1.6572,1.6572,1.6546,1.6518,1.6409,1.6423,1.6518,1.6376,1.6259,1.6143,1.6011,1.5851,1.5687,1.5646,1.5658,1.5685,1.5843,1.579,1.5645,1.5645,1.5454,1.5199,1.5068,1.4896,1.4706,1.4568,1.4532,1.4505,1.4394,1.4346,1.4333,1.4353,1.4333,1.4306,1.4326,1.4312,1.4299,1.4299,1.4312,1.4326,1.4326,1.4326,1.4326,1.4326,1.4312,1.4299,1.4299,1.4299,1.4299,1.4299,1.4299,1.4179,1.3873,1.3819,1.37,1.3457,1.3408,1.3145,1.2534,0.4636,0.0,0.0,0.0,0.0,0.0,0.0,0.0,0.0,0.0,0.0,0.0,0.0,0.0,0.0,0.0,0.0,0.0,0.0,0.0,0.0,0.0,0.0,0.0,1.7798,1.7995,1.8327,1.8464,1.8511,1.8511,1.8511,1.8498,1.8394,1.8321,1.8233,1.8091,1.7982,1.7887,1.7798,1.7744,1.7684,1.7623,1.7467,1.7351,1.7297,1.7216,1.71,1.6925,1.6857,1.6749,1.6587,1.6532,1.6498,1.6498,1.6498,1.6423,1.6273,1.6212,1.6259,1.6382,1.6246,1.6109,1.5984,1.5916,1.5783,1.5592,1.5523,1.5524,1.5599,1.5615,1.5567,1.5475,1.5399,1.5253,1.5048,1.4799,1.4654,1.4561,1.4423,1.4394,1.438,1.4319,1.4299,1.4319,1.4389,1.436,1.4319,1.4389,1.4349,1.4299,1.4299,1.4299,1.4299,1.4299,1.4299,1.4299,1.4299,1.4299,1.4299,1.4299,1.4299,1.4299,1.4299,1.4299,1.4173,1.3839,1.3869,1.3765,1.3428,1.3397,1.3401,1.3395,0.4966,0.0,0.0,0.0,0.0,0.0,0.0,0.0,0.0,0.0,0.0,0.0,0.0,0.0,0.0,0.0,0.0,0.0,0.0,0.0,0.0,0.0,0.0,0.0,1.7392,1.7541,1.7988,1.8096,1.8117,1.8077,1.8096,1.8117,1.8077,1.7989,1.788,1.7786,1.7636,1.7507,1.7406,1.7372,1.7351,1.7351,1.7222,1.7154,1.7154,1.7012,1.6857,1.6702,1.6628,1.6546,1.6457,1.6416,1.6375,1.6354,1.6354,1.6198,1.5925,1.5925,1.5966,1.6022,1.5981,1.5892,1.5773,1.5739,1.5613,1.5428,1.5272,1.5286,1.5369,1.5352,1.5303,1.5223,1.5206,1.5061,1.4826,1.4584,1.4478,1.4423,1.4333,1.4299,1.4299,1.4299,1.4299,1.4326,1.4417,1.4369,1.4326,1.4434,1.4369,1.4299,1.4299,1.4299,1.4299,1.4299,1.4299,1.4299,1.4299,1.4299,1.4299,1.4299,1.4299,1.4299,1.4299,1.4265,1.4154,1.3885,1.3892,1.3778,1.3432,1.3401,1.2435,1.0137,0.3709,0.0,0.0,0.0,0.0,0.0,0.0,0.0,0.0,0.0,0.0,0.0,0.0,0.0,0.0,0.0,0.0,0.0,0.0,0.0,0.0,0.0,0.0,1.7392,1.7392,1.7419,1.7433,1.7548,1.7588,1.7467,1.7548,1.7588,1.746,1.7433,1.7426,1.7433,1.7426,1.7419,1.7392,1.729,1.7202,1.7202,1.7086,1.7005,1.7005,1.6816,1.6709,1.6696,1.6451,1.6314,1.6308,1.6178,1.606,1.5923,1.5923,1.5754,1.5433,1.5433,1.5371,1.5267,1.5516,1.555,1.5425,1.5287,1.5157,1.5014,1.4812,1.4735,1.4787,1.5104,1.5006,1.478,1.5086,1.4896,1.4518,1.4505,1.441,1.4306,1.4299,1.4299,1.4299,1.4299,1.4299,1.4299,1.4306,1.4306,1.4299,1.4306,1.4306,1.4299,1.4299,1.4299,1.4299,1.4299,1.4299,1.4299,1.4299,1.4299,1.4299,1.4299,1.4299,1.4299,1.4299,1.4188,1.4078,1.4002,1.3827,1.3631,1.3418,1.3404,0.9763,0.1239,0.0255,0.0,0.0,0.0,0.0,0.0,0.0,0.0,0.0,0.0,0.0,0.0,0.0,0.0,0.0,0.0,0.0,0.0,0.0,1.5803,1.6318,1.6694,1.6952,1.6952,1.7053,1.7141,1.7141,1.7324,1.746,1.7419,1.744,1.746,1.7412,1.7392,1.7372,1.7283,1.7277,1.7236,1.7148,1.71,1.7073,1.7073,1.7038,1.6937,1.681,1.6742,1.6627,1.6451,1.6355,1.6218,1.604,1.5872,1.5711,1.5579,1.5579,1.543,1.5138,1.5138,1.5045,1.4879,1.4983,1.5062,1.5138,1.5095,1.4968,1.4803,1.4726,1.4706,1.4708,1.4832,1.48,1.4694,1.4735,1.4645,1.4484,1.4396,1.434,1.4299,1.4299,1.4299,1.4299,1.4299,1.4299,1.4299,1.4299,1.4299,1.4299,1.4299,1.4299,1.4299,1.4299,1.4299,1.4299,1.4299,1.4299,1.4299,1.4299,1.4299,1.4299,1.4299,1.4299,1.4299,1.4299,1.4267,1.4172,1.4018,1.4049,1.3901,1.3442,0.812,0.3425,0.0204,0.0,0.0,0.0,0.0,0.0,0.0,0.0,0.0,0.0,0.0,0.0,0.0,0.0,0.0,0.0,0.0,0.0,0.0,0.0,1.4846,1.5809,0.0,1.633,1.658,1.6769,1.6917,1.6984,1.7154,1.727,1.727,1.7297,1.7311,1.7263,1.727,1.7236,1.7134,1.7134,1.708,1.6904,1.6904,1.6904,1.6904,1.6904,1.6843,1.6715,1.6661,1.6491,1.6183,1.617,1.6033,1.5746,1.5638,1.5489,1.5274,1.5309,1.5165,1.4826,1.4826,1.4733,1.4568,1.4568,1.4694,1.49,1.4853,1.4742,1.4624,1.4577,1.4568,1.4575,1.4622,1.4597,1.4561,1.4518,1.4471,1.4428,1.4333,1.4299,1.4299,1.4299,1.4299,1.4299,1.4299,1.4299,1.4299,1.4299,1.4299,1.4299,1.4299,1.4299,1.4299,1.4299,1.4299,1.4299,1.4299,1.4299,1.4299,1.4299,1.4299,1.4299,1.4299,1.4299,1.4296,1.43,1.4241,1.4171,1.4112,1.4037,1.2611,0.9197,0.3432,0.0,0.0,0.0,0.0,0.0,0.0,0.0,0.0,0.0,0.0,0.0,0.0,0.0,0.0,0.0,0.0,0.0,0.0,0.0,0.0,0.0,0.0,1.5452,1.5585,1.5569,1.6308,1.6567,1.6735,1.6951,1.6998,1.6984,1.6998,1.71,1.7154,1.7012,1.6991,1.6984,1.6984,1.6998,1.691,1.6702,1.6689,1.6689,1.6689,1.6689,1.6689,1.6682,1.6559,1.63,1.5903,1.5888,1.572,1.5393,1.5504,1.5379,1.4991,1.5123,1.4941,1.4491,1.4491,1.4417,1.4299,1.4299,1.445,1.4678,1.4552,1.4491,1.4478,1.4353,1.4299,1.4319,1.4455,1.441,1.4319,1.4444,1.4414,1.4299,1.4299,1.4299,1.4299,1.4299,1.4299,1.4299,1.4299,1.4299,1.4299,1.4299,1.4299,1.4299,1.4299,1.4299,1.4299,1.4299,1.4299,1.4299,1.4299,1.4299,1.4306,1.4306,1.4306,1.4306,1.4306,1.4299,1.4302,1.4296,1.4133,1.408,1.4279,1.3525,0.9477,0.0739,0.0,0.0,0.0,0.0,0.0,0.0,0.0,0.0,0.0,0.0,0.0,0.0,0.0,0.0,0.0,0.0,0.0,1.0747,0.0,0.0,0.0,0.0,0.0,1.374,1.4102,1.4516,1.5508,1.5726,1.5936,1.6531,1.6728,1.6749,1.6653,1.687,1.7039,1.7011,1.687,1.6776,1.6776,1.6701,1.6619,1.6559,1.6559,1.6559,1.6559,1.6559,1.6512,1.6423,1.6197,1.6006,1.5908,1.5576,1.5354,1.526,1.5049,1.4834,1.4638,1.4679,1.4566,1.436,1.436,1.434,1.4299,1.4299,1.4335,1.441,1.4362,1.436,1.4353,1.4308,1.4299,1.4306,1.4346,1.4333,1.4306,1.4346,1.4333,1.4299,1.4299,1.4299,1.4299,1.4299,1.4297,1.4306,1.4306,1.4306,1.4299,1.4295,1.4299,1.4299,1.4299,1.4299,1.4295,1.4299,1.4306,1.4306,1.4306,1.4304,1.4296,1.4296,1.4296,1.4296,1.4296,1.4307,1.4303,1.4301,1.4244,1.424,1.4289,0.7943,0.2698,0.0215,0.0,0.0,0.0,0.0,0.0,0.0,0.0,0.0,0.0,0.0,0.0,0.0,0.0,0.0,0.0,0.0,0.0,0.0,0.0,0.0,0.0,0.0,0.0,1.3125,1.3417,1.38,1.4984,1.5287,1.5474,1.6024,1.6302,1.6437,1.6423,1.6632,1.6809,1.6876,1.677,1.6696,1.6696,1.6573,1.6484,1.6423,1.6423,1.6423,1.6423,1.6423,1.6355,1.6225,1.6025,1.5813,1.5617,1.534,1.5116,1.4903,1.4771,1.4597,1.4421,1.4471,1.4423,1.4299,1.4299,1.4299,1.4299,1.4299,1.4299,1.4299,1.4299,1.4299,1.4299,1.4299,1.4299,1.4299,1.4299,1.4299,1.4299,1.4299,1.4299,1.4299,1.4299,1.4299,1.4299,1.4299,1.4301,1.4293,1.4293,1.4293,1.4304,1.4306,1.4299,1.4299,1.4299,1.4301,1.4304,1.4302,1.4296,1.3695,1.1688,1.1299,1.1298,1.1298,1.1298,1.1298,1.1298,1.1301,1.2013,1.4042,1.4302,1.2769,0.8766,0.3336,0.0,0.0,0.0,0.0,0.0,0.0,0.0,0.0,0.0,0.0,0.0,0.0,0.0,0.0,0.0,0.0,0.0,0.0,0.0,0.0,0.0,0.0,0.0,0.0,0.0,1.3037,1.3085,1.3203,1.4477,1.483,1.4997,1.5335,1.5684,1.5953,1.6042,1.6267,1.6504,1.6669,1.6669,1.6661,1.6661,1.6539,1.6402,1.6273,1.6259,1.6252,1.6226,1.6226,1.6158,1.6027,1.5896,1.5624,1.5197,1.5138,1.4916,1.4505,1.4597,1.4534,1.4299,1.4417,1.4421,1.4299,1.4299,1.4299,1.4299,1.4299,1.4299,1.4299,1.4299,1.4299,1.4299,1.4299,1.4299,1.4299,1.4299,1.4299,1.4299,1.4299,1.4299,1.4299,1.4299,1.4299,1.4299,1.4299,1.4306,1.4306,1.4306,1.4295,1.4301,1.4299,1.4299,1.4299,1.4306,1.4293,1.4298,1.4293,1.4303,1.3024,0.8733,0.7041,0.6313,0.6313,0.6313,0.631,0.6313,0.6315,0.7856,1.2156,1.2708,0.9453,0.091,0.0,0.0,0.0,0.0,0.0,0.0,0.0,0.0,0.0,0.0,0.0,0.0,0.0,0.0,0.0,0.0,0.0,0.0,0.0,0.0,0.0,0.0,0.0,0.0,0.0,0.0,1.1837,1.1848,1.2119,1.297,1.3081,1.3261,1.4015,1.4514,1.4746,1.4565,1.5372,1.6177,1.6641,1.6506,1.6382,1.6382,1.6259,1.6135,1.5991,1.5977,1.5905,1.5753,1.5746,1.5679,1.5535,1.541,1.5245,1.5053,1.4785,1.4586,1.4498,1.4417,1.4342,1.4299,1.4326,1.4326,1.4299,1.4299,1.4299,1.4299,1.4299,1.4299,1.4299,1.4299,1.4299,1.4299,1.4299,1.4299,1.4299,1.4299,1.4299,1.4299,1.4299,1.4299,1.4299,1.4299,1.4299,1.4299,1.4299,1.4297,1.4295,1.4295,1.4293,1.4307,1.4301,1.4299,1.4295,1.4299,1.4302,1.43,1.4298,1.4296,1.4019,1.3083,0.666,0.139,0.139,0.139,0.1386,0.1385,0.1383,0.1724,0.2664,0.2793,0.2071,0.0197,0.0,0.0,0.0,0.0,0.0,0.0,0.0,0.0,0.0,0.0,0.0,0.0,0.0,0.0,0.0,0.0,0.0,0.0,0.0,0.0,0.0,0.0,0.0,1.1497,0.0,0.0,0.0,1.1719,1.1811,1.2547,1.2546,1.2613,1.3275,1.3698,1.4007,1.4174,1.4826,1.5452,1.5894,1.6103,1.6198,1.6198,1.5982,1.582,1.5763,1.5688,1.5613,1.5509,1.544,1.5365,1.5303,1.5172,1.4989,1.4758,1.459,1.4464,1.4396,1.4333,1.4299,1.4299,1.4235,1.4235,1.4299,1.4235,1.4242,1.4299,1.4299,1.4299,1.4299,1.4299,1.4299,1.4299,1.4299,1.4299,1.4299,1.4299,1.4299,1.4299,1.4299,1.4299,1.4299,1.4299,1.4299,1.4299,1.4299,1.4304,1.3973,1.236,1.3063,1.4305,1.4295,1.4306,1.4298,1.4296,1.4305,1.4303,1.4303,1.4301,1.2891,0.8093,0.3286,0.0,0.0,0.0,0.0,0.0,0.0,0.0,0.0,0.0,0.0,0.0,0.3473,0.4212,0.0326,0.0,0.0,0.0,0.0,0.0,0.0,0.0,0.0,0.0,0.0,0.0,0.0,0.0,0.0,0.0,0.0,0.0,0.0,0.0,0.0,0.0,0.0,1.1812,0.0,0.0,0.0,1.2299,1.2264,1.2239,0.0,1.2942,1.3305,1.3749,1.4168,1.4545,1.4778,1.5301,1.5715,1.5877,1.567,1.5504,1.5489,1.5299,1.521,1.5264,1.5113,1.5036,1.5063,1.4955,1.4765,1.4471,1.4457,1.4403,1.4299,1.4299,1.4299,1.4299,1.4188,1.4205,1.4299,1.4192,1.4205,1.4299,1.4299,1.4299,1.4299,1.4299,1.4299,1.4299,1.4299,1.4299,1.4299,1.4299,1.4299,1.4299,1.4299,1.4299,1.4299,1.4299,1.4306,1.4301,1.4301,1.4299,1.3563,1.0024,1.1577,1.4087,1.3145,1.2907,1.3149,1.4084,1.4303,1.3788,1.1939,1.1554,0.9262,0.15,0.0,0.0,0.0,0.0,0.0,0.0,0.0,0.0,0.0,0.0,0.0571,0.207,0.7853,0.9059,0.277,0.086,0.0,0.0,0.0,0.0,0.0,0.0,0.0,0.0,0.0,0.0,0.0,0.0,0.0,0.0,0.0,0.0,0.0,0.0,0.0,0.0,1.2527,0.0,0.0,0.0,1.1703,1.1429,0.0,1.152,0.0,0.0,0.0,1.2103,1.2912,1.3519,1.3438,1.3793,1.4335,1.5041,1.5204,1.5199,1.5082,1.4683,1.4525,1.476,1.4545,1.4455,1.4566,1.457,1.4478,1.4333,1.4326,1.4319,1.4299,1.4299,1.4299,1.4299,1.4285,1.4296,1.4299,1.4285,1.4296,1.4299,1.4299,1.4299,1.4299,1.4299,1.4299,1.4299,1.4299,1.4299,1.4299,1.4299,1.4299,1.4299,1.4299,1.4299,1.4299,1.4299,1.4297,1.4302,1.4302,1.4307,1.3332,0.8687,1.072,1.3316,0.9032,0.7922,0.8996,1.3287,1.4302,1.1969,0.3463,0.1625,0.1298,0.0207,0.0,0.0,0.0,0.0,0.0,0.0,0.0,0.0,0.0,0.0,0.2638,0.9546,1.1071,1.1238,1.0359,0.3964,0.0,0.0,0.0,0.0,0.0,0.0,0.0,0.0,0.0,0.0,0.0,0.0,0.0,0.0,0.0,0.0,0.0,0.0,0.0,0.0,0.0,0.0,1.1946,0.0,1.1536,0.0,0.0,0.0,0.0,0.0,0.0,0.0,1.2467,1.2776,1.2789,1.2939,1.3356,1.4206,1.4217,1.419,1.4295,1.4224,1.4258,1.4446,1.4182,1.4114,1.4362,1.4376,1.436,1.4299,1.4299,1.4299,1.4299,1.4299,1.4299,1.4299,1.4222,1.4222,1.4299,1.4222,1.4228,1.4299,1.4299,1.4299,1.4299,1.4299,1.4299,1.4299,1.4299,1.4299,1.4299,1.4299,1.4299,1.4299,1.4299,1.4299,1.4299,1.4299,1.4304,1.3951,1.2077,1.2824,1.3879,1.1849,0.873,0.6817,1.0365,0.715,0.3489,0.5527,0.6008,0.4901,0.0864,0.0,0.0,0.0,0.0,0.0,0.0,0.0,0.0,0.0,0.0,0.0,0.0,0.0,0.1254,0.4516,0.8909,1.16,1.1605,0.8606,0.4808,0.0282,0.0,0.0,0.0,0.0,0.0,0.0,0.0,0.0,0.0,0.0,0.0,0.0,0.0,0.0,1.2789,0.0,0.0,0.0,0.0,0.0,0.0,0.0,0.0,0.0,0.0,0.0,0.0,0.0,0.0,0.0,0.0,1.2128,1.2189,1.2196,1.2492,1.3291,1.3359,1.3437,1.3674,1.376,1.3866,1.4041,1.3708,1.369,1.4139,1.4166,1.4211,1.4299,1.4299,1.4299,1.4299,1.4299,1.4278,1.4238,1.4174,1.4192,1.4238,1.4174,1.4208,1.4299,1.4299,1.4299,1.4299,1.4299,1.4299,1.4299,1.4299,1.4299,1.4299,1.4299,1.4299,1.4299,1.4299,1.4299,1.4299,1.4299,1.4304,1.3701,1.0479,1.1749,1.3756,1.1116,0.7265,0.4916,0.9259,0.5212,0.0,0.0,0.0,0.0,0.0,0.0,0.0,0.0,0.0,0.0,0.0,0.0,0.0,0.0,0.0,0.0,0.0,0.0,0.0,0.0,0.6005,1.0009,1.001,1.099,0.8279,0.0492,0.0,0.0,0.0,0.0,0.0,0.0,0.0,0.0,0.0,0.0,0.0,0.0,0.0,0.0,0.0,0.0,0.0,1.2709,0.0,0.0,0.0,0.0,1.2135,0.0,0.0,0.0,0.0,0.0,0.0,0.0,0.0,0.0,0.0,1.1447,1.1662,1.228,1.286,1.3261,1.3397,1.318,1.3139,1.341,1.2997,1.3054,1.3785,1.3826,1.3961,1.4292,1.4299,1.4299,1.4299,1.4299,1.4224,1.4114,1.4235,1.4228,1.4104,1.4242,1.4292,1.4299,1.4299,1.4299,1.4299,1.4299,1.4299,1.4299,1.4299,1.4299,1.4299,1.4299,1.4299,1.4299,1.4299,1.4299,1.4299,1.4299,1.4304,1.3701,1.0479,1.1755,1.2372,0.3069,0.6921,1.1775,0.2791,0.0228,0.0,0.0,0.0,0.0,0.0,0.0,0.0,0.0,0.0,0.0,0.0,0.0,0.0,0.0,0.0,0.0,0.0,0.0,0.0,0.0,0.3592,0.5989,0.5984,0.9432,0.8279,0.0492,0.0,0.0,0.0,0.0,0.0,0.0,0.0,0.0,0.0,0.0,0.0,0.0,0.0,0.0,0.0,0.0,1.3814,1.3023,0.0,0.0,0.0,0.0,0.0,0.0,0.0,0.0,0.0,0.0,0.0,0.0,0.0,0.0,0.0,1.0992,1.1089,1.1524,1.2181,0.0,1.2541,1.2623,1.2739,1.2922,1.2709,1.281,1.337,1.366,1.3842,1.3972,1.4186,1.4299,1.4299,1.4299,1.4283,1.4235,1.4278,1.4283,1.4235,1.4278,1.4299,1.4299,1.4299,1.4299,1.4299,1.4299,1.4299,1.4299,1.4299,1.4299,1.4299,1.4299,1.4299,1.4299,1.4299,1.4299,1.4299,1.4299,1.4295,1.4104,1.3016,1.3442,1.3614,1.0378,0.7228,0.4092,0.0843,0.0,0.0,0.0,0.0,0.0,0.0,0.0,0.0,0.0,0.0,0.0,0.0,0.0,0.0,0.0,0.0,0.0,0.0,0.0,0.0,0.0,0.1175,0.1965,0.1962,0.3169,0.2799,0.0164,0.0,0.0,0.0,0.0,0.0,0.0,0.0,0.0,0.0,0.0,0.0,0.0,0.0,0.0,1.3765,1.3901,0.0,1.3302,1.3139,0.0,1.222,0.0,1.2515,0.0,0.0,0.0,0.0,0.0,0.0,0.0,0.0,0.0,0.0,1.0745,1.0804,1.1056,0.0,0.0,0.0,1.2121,1.2275,1.2313,1.2234,1.2386,1.2844,1.3281,1.3579,1.3714,1.4051,1.4245,1.4299,1.4299,1.4283,1.4228,1.4283,1.4283,1.4235,1.4278,1.4299,1.4299,1.4299,1.4299,1.4299,1.4299,1.4299,1.4299,1.4299,1.4299,1.4299,1.4299,1.4299,1.4299,1.4299,1.4295,1.4297,1.4297,1.4297,1.3982,1.2268,1.2938,1.4296,1.4297,0.7393,0.0,0.0,0.0,0.0,0.0,0.0,0.0,0.0,0.0,0.0,0.0,0.0,0.0,0.0,0.0,0.0,0.0,0.0,0.0,0.0,0.0,0.0,0.0,0.0,0.0,0.0,0.0,0.0,0.0,0.0,0.0,0.0,0.0,0.0,0.0,0.0,0.0,0.0,0.0,0.1311,0.3746,0.1187,0.0]}]]